[[{"header":{"parameterUnit":"m.s-1","parameterCategory":1,"la1":30.6,"la2":29.2853,"lo1":-89.7004,"lo2":-87.6739,"dy":0.0162,"dx":0.0183,"nx":112,"ny":82,"refTime":"2024-07-27T06:00:00:Z","depth":0,"parameterNumber":2,"parameterNumberName":"U-component_of_WINDS"},"data":[0.0,0.0,0.0,0.0,0.0,0.0,0.0,0.0,0.0,0.0,0.0,0.0,0.0,0.0,0.0,0.0,0.0,0.0,0.0,0.0,0.0,0.0,0.0,0.0,0.0,0.0,0.0,0.0,0.0,0.0,0.0,0.0,0.0,0.0,0.0,0.0,0.0,0.0,0.0,0.0,0.0,0.0,0.0,0.0,0.0,0.0,0.0,0.0,0.0,0.0,0.0,0.0,0.0,0.0,0.0,0.0,0.0,0.0,0.0,0.0,0.0,0.0,0.0,0.0,0.0,0.0,0.0,0.0,0.0,0.0,0.0,0.0,0.0,0.0,0.0,0.0,0.0,0.0,0.0,0.0,0.0,0.0,0.0,0.0,0.0,0.0,0.0,0.0,0.0,0.0,-0.6081,-0.6204,-0.6693,-0.6921,-0.6673,-0.688,-0.6774,-0.623,0.0,0.0,0.0,0.0,0.0,0.0,0.0,0.0,0.0,0.0,0.0,0.0,0.0,0.0,0.0,0.0,0.0,0.0,0.0,0.0,0.0,0.0,0.0,0.0,0.0,0.0,0.0,0.0,0.0,0.0,0.0,0.0,0.0,0.0,0.0,0.0,0.0,0.0,0.0,0.0,0.0,0.0,0.0,0.0,0.0,0.0,0.0,0.0,0.0,0.0,0.0,0.0,0.0,0.0,0.0,0.0,0.0,0.0,0.0,0.0,0.0,0.0,0.0,0.0,0.0,0.0,0.0,0.0,0.0,0.0,0.0,0.0,0.0,0.0,0.0,0.0,0.0,0.0,0.0,0.0,0.0,0.0,0.0,0.0,0.0,0.0,0.0,0.0,0.0,0.0,0.0,0.0,0.0,0.0,0.0,0.0,0.0,0.0,0.0,0.0,0.0,0.0,0.0,0.0,-0.5618,-0.6139,-0.6681,-0.7001,-0.6961,-0.6994,-0.6774,-0.623,0.0,0.0,0.0,0.0,0.0,0.0,0.0,0.0,0.0,0.0,0.0,0.0,0.0,0.0,0.0,0.0,0.0,0.0,0.0,0.0,0.0,0.0,0.0,0.0,0.0,0.0,0.0,0.0,0.0,0.0,0.0,0.0,0.0,0.0,0.0,0.0,0.0,0.0,0.0,0.0,0.0,0.0,0.0,0.0,0.0,0.0,0.0,0.0,0.0,0.0,0.0,0.0,0.0,0.0,0.0,0.0,0.0,0.0,0.0,0.0,0.0,0.0,0.0,0.0,0.0,0.0,0.0,0.0,0.0,0.0,0.0,0.0,0.0,0.0,0.0,0.0,0.0,0.0,0.0,0.0,0.0,0.0,0.0,0.0,0.0,0.0,0.0,0.0,0.0,0.0,0.0,0.0,0.0,0.0,0.0,0.0,0.0,0.0,0.0,0.0,0.0,0.0,0.0,-0.5535,-0.588,-0.6168,-0.6435,-0.6689,-0.6979,-0.6422,-0.6114,-0.6192,-0.5443,0.0,0.0,0.0,0.0,0.0,0.0,0.0,0.0,0.0,0.0,0.0,0.0,0.0,0.0,0.0,0.0,0.0,0.0,0.0,0.0,0.0,0.0,0.0,0.0,0.0,0.0,0.0,0.0,0.0,0.0,0.0,0.0,0.0,0.0,0.0,0.0,0.0,0.0,0.0,0.0,0.0,0.0,0.0,0.0,0.0,0.0,0.0,0.0,0.0,0.0,0.0,0.0,0.0,0.0,0.0,0.0,0.0,0.0,0.0,0.0,0.0,0.0,0.0,0.0,0.0,0.0,0.0,0.0,0.0,0.0,0.0,0.0,0.0,0.0,0.0,0.0,0.0,0.0,0.0,0.0,0.0,0.0,0.0,0.0,0.0,0.0,0.0,0.0,0.0,0.0,0.0,0.0,0.0,0.0,0.0,0.0,0.0,0.0,0.0,0.0,0.0,0.0,-0.5949,-0.6219,-0.618,-0.6307,-0.6562,-0.6979,-0.6023,-0.5594,-0.6,-0.4918,0.0,0.0,0.0,0.0,0.0,0.0,0.0,0.0,0.0,0.0,0.0,0.0,0.0,0.0,0.0,0.0,0.0,0.0,0.0,0.0,0.0,0.0,0.0,0.0,0.0,0.0,0.0,0.0,0.0,0.0,0.0,0.0,0.0,0.0,0.0,0.0,0.0,0.0,0.0,0.0,0.0,0.0,0.0,0.0,0.0,0.0,0.0,0.0,0.0,0.0,0.0,0.0,0.0,0.0,0.0,0.0,0.0,0.0,0.0,0.0,0.0,0.0,0.0,0.0,0.0,0.0,0.0,0.0,0.0,0.0,0.0,0.0,0.0,0.0,0.0,0.0,0.0,0.0,0.0,0.0,0.0,0.0,0.0,0.0,0.0,0.0,0.0,0.0,0.0,0.0,0.0,0.0,0.0,0.0,0.0,0.0,0.0,0.0,0.0,0.0,0.0,0.0,-0.5844,-0.6186,-0.6179,-0.6641,-0.6937,-0.6979,-0.6319,-0.577,-0.5571,-0.4465,0.0,0.0,0.0,0.0,0.0,0.0,0.0,0.0,0.0,0.0,0.0,0.0,0.0,0.0,0.0,0.0,0.0,0.0,0.0,0.0,0.0,0.0,0.0,0.0,0.0,0.0,0.0,0.0,0.0,0.0,0.0,0.0,0.0,0.0,0.0,0.0,0.0,0.0,0.0,0.0,0.0,0.0,0.0,0.0,0.0,0.0,0.0,0.0,0.0,0.0,0.0,0.0,0.0,0.0,0.0,0.0,0.0,0.0,0.0,0.0,0.0,0.0,0.0,0.0,0.0,0.0,0.0,0.0,0.0,0.0,0.0,0.0,0.0,0.0,0.0,0.0,0.0,0.0,0.0,0.0,0.0,0.0,0.0,0.0,0.0,0.0,0.0,0.0,0.0,0.0,0.0,0.0,0.0,0.0,0.0,0.0,0.0,0.0,0.0,0.0,0.0,0.0,-0.5342,-0.5573,-0.5144,-0.5513,-0.5797,-0.5797,-0.4809,-0.4309,-0.4671,0.0,0.0,0.0,0.0,0.0,0.0,0.0,0.0,0.0,0.0,0.0,0.0,0.0,0.0,0.0,0.0,0.0,0.0,0.0,0.0,0.0,0.0,0.0,0.0,0.0,0.0,0.0,0.0,0.0,0.0,0.0,0.0,0.0,0.0,0.0,0.0,0.0,0.0,0.0,0.0,0.0,0.0,0.0,0.0,0.0,0.0,0.0,0.0,0.0,0.0,0.0,0.0,0.0,0.0,0.0,0.0,0.0,0.0,0.0,0.0,0.0,0.0,0.0,0.0,0.0,0.0,0.0,0.0,0.0,0.0,0.0,0.0,0.0,0.0,0.0,0.0,0.0,0.0,0.0,0.0,0.0,0.0,0.0,0.0,0.0,0.0,0.0,0.0,0.0,0.0,0.0,0.0,0.0,0.0,0.0,0.0,0.0,0.0,0.0,0.0,0.0,0.0,-0.448,-0.4862,-0.5027,-0.4973,-0.4994,-0.5105,-0.5218,-0.4051,-0.3517,-0.3938,0.0,0.0,0.0,0.0,0.0,0.0,0.0,0.0,0.0,0.0,0.0,0.0,0.0,0.0,0.0,0.0,0.0,0.0,0.0,0.0,0.0,0.0,0.0,0.0,0.0,0.0,0.0,0.0,0.0,0.0,0.0,0.0,0.0,0.0,0.0,0.0,0.0,0.0,0.0,0.0,0.0,0.0,0.0,0.0,0.0,0.0,0.0,0.0,0.0,0.0,0.0,0.0,0.0,0.0,0.0,0.0,0.0,0.0,0.0,0.0,0.0,0.0,0.0,0.0,0.0,0.0,0.0,0.0,0.0,0.0,0.0,0.0,0.0,0.0,0.0,0.0,0.0,0.0,0.0,0.0,0.0,0.0,0.0,0.0,0.0,0.0,0.0,0.0,0.0,0.0,0.0,0.0,0.0,0.0,0.0,0.0,0.0,0.0,0.0,0.0,0.0,0.0,-0.4923,-0.4467,-0.4565,-0.6005,-0.5403,-0.506,-0.5435,-0.4433,-0.3694,0.0,0.0,0.0,0.0,0.0,0.0,0.0,0.0,0.0,0.0,0.0,0.0,0.0,0.0,0.0,0.0,0.0,0.0,0.0,0.0,0.0,0.0,0.0,0.0,0.0,0.0,0.0,0.0,0.0,0.0,0.0,0.0,0.0,0.0,0.0,0.0,0.0,0.0,0.0,0.0,0.0,0.0,0.0,0.0,0.0,0.0,0.0,0.0,0.0,0.0,0.0,0.0,0.0,0.0,0.0,0.0,0.0,0.0,0.0,0.0,0.0,0.0,0.0,0.0,0.0,0.0,0.0,0.0,0.0,0.0,0.0,0.0,0.0,0.0,0.0,0.0,0.0,0.0,0.0,0.0,0.0,0.0,0.0,0.0,0.0,0.0,0.0,0.0,0.0,0.0,0.0,0.0,0.0,0.0,0.0,0.0,0.0,0.0,0.0,0.0,0.0,0.0,0.0,-0.4624,-0.4759,-0.4792,-0.4769,-0.4643,-0.431,-0.3731,-0.3282,-0.2896,-0.2587,0.0,0.0,0.0,0.0,0.0,0.0,0.0,0.0,0.0,0.0,0.0,0.0,0.0,0.0,0.0,0.0,0.0,0.0,0.0,0.0,0.0,0.0,0.0,0.0,0.0,0.0,0.0,0.0,0.0,0.0,0.0,0.0,0.0,0.0,0.0,0.0,0.0,0.0,0.0,0.0,0.0,0.0,0.0,0.0,0.0,0.0,0.0,0.0,0.0,0.0,0.0,0.0,0.0,0.0,0.0,0.0,0.0,0.0,0.0,0.0,0.0,0.0,0.0,0.0,0.0,0.0,0.0,0.0,0.0,0.0,0.0,0.0,0.0,0.0,0.0,0.0,0.0,0.0,0.0,0.0,0.0,0.0,0.0,0.0,0.0,0.0,0.0,0.0,0.0,0.0,0.0,0.0,0.0,0.0,0.0,0.0,0.0,0.0,0.0,0.0,0.0,0.0,-0.4418,-0.4684,-0.4746,-0.4571,-0.4214,-0.3707,-0.3124,-0.2831,-0.2578,-0.2337,0.0,0.0,0.0,0.0,0.0,0.0,0.0,0.0,0.0,0.0,0.0,0.0,0.0,0.0,0.0,0.0,0.0,0.0,0.0,0.0,0.0,0.0,0.0,0.0,0.0,0.0,0.0,0.0,0.0,0.0,0.0,0.0,0.0,0.0,0.0,0.0,0.0,0.0,0.0,0.0,0.0,0.0,0.0,0.0,0.0,0.0,0.0,0.0,0.0,0.0,0.0,0.0,0.0,0.0,0.0,0.0,0.0,0.0,0.0,0.0,0.0,0.0,0.0,0.0,0.0,0.0,0.0,0.0,0.0,0.0,0.0,0.0,0.0,0.0,0.0,0.0,0.0,0.0,0.0,0.0,0.0,0.0,0.0,0.0,0.0,0.0,0.0,0.0,0.0,0.0,0.0,0.0,0.0,0.0,0.0,0.0,0.0,0.0,0.0,0.0,0.0,0.0,-0.4287,-0.4418,-0.4605,-0.498,-0.402,-0.3319,-0.3253,-0.2915,-0.2647,-0.2493,0.0,0.0,0.0,0.0,0.0,0.0,0.0,0.0,0.0,0.0,0.0,0.0,0.0,0.0,0.0,0.0,0.0,0.0,0.0,0.0,0.0,0.0,0.0,0.0,0.0,0.0,0.0,0.0,0.0,0.0,0.0,0.0,0.0,0.0,0.0,0.0,0.0,0.0,0.0,0.0,0.0,0.0,0.0,0.0,0.0,0.0,0.0,0.0,0.0,0.0,0.0,0.0,0.0,0.0,0.0,0.0,0.0,0.0,0.0,0.0,-0.5418,0.0,0.0,0.0,0.0,0.0,0.0,0.0,0.0,0.0,0.0,0.0,0.0,0.0,0.0,0.0,0.0,0.0,0.0,0.0,0.0,0.0,0.0,0.0,0.0,0.0,0.0,0.0,0.0,0.0,0.0,0.0,0.0,0.0,0.0,0.0,0.0,0.0,0.0,0.0,0.0,0.0,-0.4053,-0.4692,-0.4915,-0.4429,-0.386,-0.338,-0.3032,-0.2819,-0.2647,-0.2493,-0.2316,0.0,0.0,0.0,0.0,0.0,0.0,0.0,0.0,0.0,0.0,0.0,0.0,0.0,0.0,0.0,0.0,0.0,0.0,0.0,0.0,0.0,0.0,0.0,0.0,0.0,0.0,0.0,0.0,0.0,0.0,0.0,0.0,0.0,0.0,0.0,0.0,0.0,0.0,0.0,0.0,0.0,0.0,0.0,0.0,0.0,0.0,0.0,0.0,0.0,0.0,0.0,0.0,0.0,0.0,0.0,0.0,0.0,0.0,0.0,0.0,-0.59,0.0,0.0,0.0,0.0,0.0,0.0,0.0,0.0,0.0,0.0,0.0,0.0,0.0,0.0,0.0,0.0,0.0,0.0,0.0,0.0,0.0,0.0,0.0,0.0,0.0,0.0,0.0,0.0,0.0,0.0,0.0,0.0,0.0,0.0,0.0,0.0,0.0,0.0,0.0,0.0,-0.3989,-0.4664,-0.4892,-0.4282,-0.3834,-0.3401,-0.2946,-0.2768,-0.2682,-0.2599,-0.2422,0.0,0.0,0.0,0.0,0.0,0.0,0.0,0.0,0.0,0.0,0.0,0.0,0.0,0.0,0.0,0.0,0.0,0.0,0.0,0.0,0.0,0.0,0.0,0.0,0.0,0.0,0.0,0.0,0.0,0.0,0.0,0.0,0.0,0.0,0.0,0.0,0.0,0.0,0.0,0.0,0.0,0.0,0.0,0.0,0.0,0.0,0.0,0.0,0.0,0.0,0.0,0.0,0.0,-0.6794,-0.6947,-0.7125,-0.6934,-0.7088,-0.7508,-0.6821,-0.6606,-0.672,-0.6411,0.0,0.0,0.0,0.0,0.0,0.0,0.0,0.0,0.0,0.0,0.0,0.0,0.0,0.0,0.0,0.0,0.0,0.0,0.0,0.0,0.0,0.0,0.0,0.0,-0.3256,-0.3313,-0.3229,0.0,0.0,0.0,0.0,0.0,0.0,0.0,0.0,0.0,0.0,0.0,-0.3868,-0.4418,-0.4624,-0.4136,-0.376,-0.3407,-0.2984,-0.2808,-0.271,-0.2716,-0.2568,-0.2513,0.0,0.0,0.0,0.0,0.0,0.0,0.0,0.0,0.0,0.0,0.0,0.0,0.0,0.0,0.0,0.0,0.0,0.0,0.0,0.0,0.0,0.0,0.0,0.0,0.0,0.0,0.0,0.0,0.0,0.0,0.0,0.0,-0.4395,-0.4661,0.0,0.0,0.0,0.0,0.0,0.0,0.0,0.0,0.0,0.0,0.0,0.0,0.0,-0.6907,-0.6907,-0.7201,-0.7392,-0.7399,-0.7622,-0.7729,-0.7762,-0.7722,-0.7749,-0.7862,-0.7749,0.0,-0.7352,-0.676,0.0,0.0,0.0,0.0,0.0,0.0,0.0,0.0,0.0,0.0,0.0,0.0,0.0,0.0,0.0,0.0,0.0,0.0,0.0,0.0,0.0,0.0,-0.367,-0.3548,-0.3537,-0.3544,0.0,-0.3293,-0.3049,-0.2907,-0.2862,0.0,0.0,0.0,0.0,0.0,0.0,0.0,-0.3442,-0.4033,-0.4275,-0.3723,-0.3521,-0.3316,-0.3103,-0.2961,-0.2822,-0.2723,-0.2568,-0.2513,-0.2513,-0.2296,0.0,0.0,0.0,0.0,0.0,0.0,0.0,0.0,0.0,0.0,0.0,0.0,0.0,0.0,0.0,0.0,0.0,0.0,0.0,0.0,0.0,0.0,0.0,0.0,0.0,0.0,0.0,0.0,0.0,-0.4502,-0.4943,-0.507,-0.5377,-0.5631,0.0,0.0,0.0,0.0,0.0,0.0,0.0,0.0,0.0,-0.7123,-0.7375,-0.749,-0.749,-0.7829,-0.8024,-0.8031,-0.8283,-0.8424,-0.8424,-0.8424,-0.8424,-0.841,-0.825,-0.8103,-0.799,-0.7522,-0.7341,-0.7284,0.0,0.0,0.0,0.0,-0.589,-0.5279,-0.5213,-0.4671,-0.3936,-0.367,0.0,0.0,0.0,0.0,0.0,0.0,0.0,0.0,0.0,0.0,-0.4831,-0.4798,-0.4652,-0.4443,-0.414,-0.4184,-0.4102,0.0,-0.3118,-0.3068,-0.2954,0.0,0.0,0.0,0.0,-0.3471,-0.3331,-0.3691,-0.388,-0.3622,-0.3442,-0.3324,-0.3256,-0.3039,-0.2879,-0.2812,-0.2699,-0.2613,-0.2613,-0.2469,-0.2357,0.0,0.0,0.0,0.0,0.0,0.0,0.0,0.0,0.0,0.0,0.0,0.0,0.0,0.0,0.0,0.0,0.0,0.0,0.0,0.0,0.0,0.0,0.0,0.0,0.0,0.0,0.0,0.0,-0.5168,-0.5633,-0.5825,-0.6174,-0.6418,0.0,0.0,0.0,0.0,0.0,0.0,-0.7198,-0.7535,-0.7742,-0.7742,-0.7996,-0.8156,-0.8156,-0.8377,-0.8484,-0.8484,-0.8704,-0.8804,-0.8804,-0.8804,-0.8804,-0.8798,-0.8577,-0.8484,-0.8457,-0.8083,-0.7882,-0.7882,-0.744,-0.7194,-0.7002,-0.6623,-0.5903,-0.5136,-0.5229,-0.473,-0.406,-0.3944,-0.391,-0.386,-0.3554,0.0,0.0,0.0,0.0,-0.5567,-0.5667,-0.5494,-0.5306,-0.5241,-0.506,-0.4803,-0.4316,-0.4526,-0.4574,0.0,-0.3489,-0.3493,-0.3256,0.0,0.0,0.0,-0.3454,-0.3574,-0.3409,-0.351,-0.3581,-0.3581,-0.3476,-0.3392,-0.3354,-0.3151,-0.3005,-0.2964,-0.2856,-0.2795,-0.2795,-0.2682,-0.2603,-0.2603,0.0,0.0,0.0,0.0,0.0,0.0,0.0,0.0,0.0,0.0,0.0,0.0,0.0,0.0,0.0,0.0,0.0,0.0,0.0,0.0,0.0,0.0,0.0,0.0,0.0,0.0,0.0,0.0,0.0,-0.719,-0.7104,0.0,0.0,0.0,0.0,-0.7466,-0.7695,-0.7822,-0.7835,-0.817,-0.838,-0.838,-0.8611,-0.8764,-0.8764,-0.8778,-0.8784,-0.8784,-0.8798,-0.8804,-0.8804,-0.8804,-0.8804,-0.8804,-0.8791,-0.8784,-0.8744,-0.8121,-0.7882,-0.7882,-0.7882,-0.7433,-0.6863,-0.7124,-0.634,-0.5099,-0.5271,-0.4807,-0.4184,-0.4174,-0.4174,-0.4143,-0.3986,-0.3992,0.0,0.0,-0.4278,-0.4278,-0.4285,-0.4282,-0.4203,-0.3955,-0.3879,-0.3837,-0.3653,-0.3667,-0.3667,0.0,-0.3993,-0.416,-0.3642,0.0,-0.4378,-0.3686,-0.4168,-0.4391,-0.3656,-0.3575,-0.3581,-0.3581,-0.3571,-0.351,-0.3319,-0.3293,-0.3226,-0.3082,-0.3103,-0.3096,-0.3096,-0.2961,-0.2886,-0.2886,-0.2616,0.0,0.0,0.0,0.0,0.0,0.0,0.0,0.0,0.0,0.0,0.0,0.0,0.0,0.0,0.0,0.0,0.0,0.0,0.0,0.0,0.0,0.0,0.0,0.0,0.0,0.0,0.0,0.0,-0.7391,-0.7548,0.0,-0.7563,-0.7702,-0.7842,-0.8084,-0.8156,-0.8297,-0.8484,-0.8597,-0.8651,-0.8651,-0.8751,-0.8804,-0.8804,-0.8804,-0.8804,-0.8804,-0.8804,-0.8804,-0.8804,-0.8804,-0.8804,-0.8804,-0.8804,-0.8804,-0.8791,-0.8584,-0.849,-0.849,-0.849,-0.8331,-0.8024,-0.7709,-0.6945,-0.5989,-0.5552,-0.4969,-0.4385,-0.4385,-0.4324,-0.4204,-0.4294,-0.4616,-0.51,-0.5597,-0.5726,-0.5833,-0.6308,-0.631,-0.6171,-0.6062,-0.5901,-0.5634,-0.524,-0.5085,-0.4798,-0.4003,-0.3918,-0.3972,-0.3894,-0.4098,-0.4146,-0.3911,-0.4098,-0.4106,-0.3773,-0.3717,-0.368,-0.3592,-0.3581,-0.3558,-0.35,-0.3363,-0.3286,-0.3273,-0.3174,-0.3082,-0.3082,-0.2985,-0.291,-0.291,-0.264,-0.241,0.0,0.0,0.0,0.0,0.0,0.0,0.0,0.0,0.0,0.0,0.0,0.0,0.0,0.0,0.0,0.0,0.0,0.0,0.0,0.0,0.0,0.0,0.0,0.0,0.0,-0.7151,-0.7499,-0.7847,-0.7984,-0.8076,-0.8076,-0.817,-0.831,-0.8504,-0.8517,-0.8604,-0.8798,-0.8804,-0.8804,-0.8804,-0.8804,-0.8804,-0.8804,-0.8804,-0.8804,-0.8804,-0.8804,-0.8804,-0.8804,-0.8804,-0.8804,-0.8804,-0.8804,-0.8804,-0.8804,-0.8804,-0.8804,-0.8804,-0.8804,-0.8646,-0.8374,-0.7883,-0.7235,-0.648,-0.576,-0.5218,-0.4842,-0.4842,-0.4609,-0.4391,-0.4703,-0.5003,-0.5328,-0.6036,-0.6204,-0.6421,-0.7128,-0.7172,-0.7028,-0.7002,-0.6845,-0.6548,-0.6131,-0.5824,-0.5354,-0.4584,-0.4311,-0.4141,-0.4002,-0.426,-0.4325,-0.4026,-0.426,-0.4285,-0.3935,-0.387,-0.3832,-0.3737,-0.3683,-0.3649,-0.3649,-0.3514,-0.3429,-0.3471,-0.3334,-0.3276,-0.3276,-0.3086,-0.2981,-0.2981,-0.2716,-0.2537,-0.2435,0.0,0.0,0.0,0.0,0.0,0.0,0.0,0.0,0.0,0.0,0.0,0.0,0.0,0.0,0.0,0.0,0.0,0.0,0.0,0.0,0.0,0.0,0.0,-0.7826,-0.7975,-0.8243,-0.8648,-0.8539,-0.839,-0.839,-0.8644,-0.8804,-0.8804,-0.8804,-0.8804,-0.8804,-0.8804,-0.8804,-0.8804,-0.8804,-0.8804,-0.8804,-0.8804,-0.8804,-0.8804,-0.8804,-0.8804,-0.8804,-0.8804,-0.8804,-0.8804,-0.8804,-0.8804,-0.8804,-0.8804,-0.8804,-0.8804,-0.8804,-0.8374,-0.7723,-0.7723,-0.7235,-0.648,-0.576,-0.5538,-0.5538,-0.5538,-0.5058,-0.468,-0.5324,-0.5058,-0.468,-0.5324,-0.5538,-0.5706,-0.6421,-0.6642,-0.6587,-0.6468,-0.6417,-0.6406,-0.6276,-0.5648,-0.5164,-0.5302,-0.5145,-0.4775,-0.4132,-0.4711,-0.4972,-0.4157,-0.4715,0.0,-0.4096,-0.4026,-0.4026,-0.4019,-0.3887,-0.3795,-0.3792,-0.3666,-0.3585,-0.3581,-0.3581,-0.3581,-0.3581,-0.329,-0.3088,-0.3082,-0.2835,-0.2761,-0.291,0.0,0.0,0.0,0.0,0.0,0.0,0.0,0.0,0.0,0.0,0.0,0.0,0.0,0.0,0.0,0.0,0.0,0.0,0.0,0.0,0.0,-0.7702,-0.8172,-0.8545,-0.8427,-0.8434,-0.8728,-0.8741,-0.8691,-0.8691,-0.8758,-0.8804,-0.8804,-0.8804,-0.8804,-0.8804,-0.8804,-0.8804,-0.8804,-0.8804,-0.8804,-0.8804,-0.8804,-0.8804,-0.8804,-0.8804,-0.8804,-0.8804,-0.8804,-0.8804,-0.8804,-0.8804,-0.8804,-0.8804,-0.8804,-0.8804,-0.8804,-0.8804,-0.8699,-0.8427,-0.7889,-0.7235,-0.6588,-0.6367,-0.6312,-0.6312,-0.6312,-0.5819,-0.5273,-0.5433,-0.5378,-0.5382,-0.6095,-0.6312,-0.6475,-0.7182,-0.7396,-0.7379,-0.7365,-0.7348,-0.7331,-0.7309,-0.6718,-0.6212,-0.6216,-0.6183,-0.5774,-0.4552,-0.4537,-0.4656,-0.4402,-0.4591,0.0,-0.4202,-0.4133,-0.409,-0.4033,-0.3982,-0.3914,-0.3799,-0.3754,-0.369,-0.3588,-0.3581,-0.3581,-0.3581,-0.3392,-0.3196,-0.3085,-0.294,-0.2866,0.0,0.0,0.0,0.0,0.0,0.0,0.0,0.0,0.0,0.0,0.0,0.0,0.0,0.0,0.0,0.0,0.0,0.0,0.0,0.0,0.0,0.0,-0.8577,-0.899,-0.9036,-0.8735,-0.8617,-0.8784,-0.8804,-0.8804,-0.8804,-0.8804,-0.8804,-0.8804,-0.8804,-0.8804,-0.8804,-0.8804,-0.8804,-0.8804,-0.8804,-0.8804,-0.8804,-0.8804,-0.8804,-0.8804,-0.8804,-0.8804,-0.8804,-0.8804,-0.8804,-0.8804,-0.8804,-0.8804,-0.8804,-0.8804,-0.8804,0.0,0.0,0.0,0.0,0.0,-0.7883,-0.745,-0.7182,-0.7074,-0.7074,-0.7074,-0.6578,-0.6036,-0.6303,-0.6195,-0.6091,-0.6853,-0.7074,-0.7235,-0.7996,-0.8156,-0.8156,-0.8156,-0.8156,-0.8156,-0.8156,-0.7563,-0.6966,-0.6642,-0.6367,0.0,-0.468,-0.4732,-0.4842,-0.4519,-0.4519,-0.4433,-0.4348,-0.4338,-0.4304,-0.4216,-0.4151,-0.403,-0.3988,-0.3866,0.0,0.0,0.0,-0.3551,-0.3487,-0.3356,0.0,0.0,0.0,0.0,0.0,0.0,0.0,0.0,-0.2959,-0.294,0.0,0.0,0.0,0.0,0.0,0.0,0.0,0.0,0.0,0.0,0.0,0.0,0.0,0.0,0.0,0.0,-0.9813,-0.9922,-0.9331,-0.8992,-0.8804,-0.8804,-0.8804,-0.8804,-0.8804,-0.8804,-0.8804,-0.8804,-0.8804,-0.8804,-0.8804,0.0,0.0,0.0,0.0,-0.8804,-0.8804,-0.8804,-0.8804,-0.8804,-0.8804,-0.8804,-0.8804,-0.8804,-0.8804,-0.8804,-0.8804,-0.8804,-0.8804,-0.8804,-0.8804,-0.8804,-0.8804,-0.8752,-0.8699,-0.8699,-0.8646,-0.848,-0.7777,0.0,0.0,-0.7557,-0.7128,-0.6696,-0.7396,-0.7182,-0.6858,-0.7509,-0.7777,-0.7996,-0.8646,-0.8804,-0.8804,-0.8804,-0.8804,-0.8804,-0.8804,-0.8209,-0.7503,-0.6858,-0.6145,-0.5437,-0.4732,-0.5058,-0.5164,-0.457,-0.4519,-0.4519,-0.4519,-0.4519,-0.4519,-0.4519,0.0,0.0,-0.4197,-0.3999,-0.3836,-0.3819,-0.37,-0.3568,-0.3386,-0.3383,-0.3383,-0.3383,-0.3383,-0.345,-0.3629,-0.3632,-0.3746,-0.387,-0.3269,-0.3232,0.0,0.0,0.0,0.0,0.0,0.0,0.0,0.0,0.0,0.0,0.0,0.0,0.0,0.0,0.0,-1.0231,-0.9916,-0.9566,-0.9687,-0.9176,-0.8804,-0.8804,-0.8804,-0.8804,-0.8804,-0.8804,-0.8804,-0.8804,-0.8804,-0.8804,-0.8804,-0.8804,-0.8804,-0.8804,-0.8804,-0.8804,-0.8804,-0.8804,-0.8804,-0.8804,0.0,0.0,-0.8804,-0.8804,-0.8804,-0.8804,-0.8804,-0.8804,-0.8804,-0.8804,-0.8804,-0.8804,-0.8804,-0.8427,-0.7937,-0.7937,-0.7557,-0.702,-0.6858,-0.6804,-0.6804,-0.6804,-0.6696,-0.6642,-0.675,-0.7128,0.0,-0.767,-0.8156,-0.8646,-0.8752,-0.8804,-0.8804,-0.8804,-0.8804,-0.8804,-0.8804,-0.8209,-0.767,-0.7509,-0.6907,-0.615,-0.5433,-0.4948,-0.4625,-0.4515,-0.4519,-0.4519,-0.4519,-0.4519,-0.4519,-0.4519,-0.4491,-0.4375,-0.4207,-0.414,-0.4056,-0.3982,-0.3948,-0.3921,-0.3842,-0.3842,-0.3842,-0.3842,-0.3842,-0.3904,-0.3934,-0.3843,-0.3863,-0.3886,-0.3688,-0.3734,0.0,0.0,0.0,0.0,0.0,0.0,0.0,0.0,0.0,0.0,0.0,-0.9463,-0.9873,0.0,-1.0356,-1.0372,-1.0221,-0.9923,-0.9392,-0.9309,-0.9159,-0.8857,-0.8804,-0.8804,-0.8804,-0.8804,-0.8804,-0.8804,-0.8804,-0.8804,-0.8804,-0.8804,-0.8804,-0.8804,-0.8804,-0.8804,-0.8804,-0.8804,-0.8804,-0.8804,-0.8804,-0.8804,-0.8804,-0.8804,-0.8804,-0.8804,-0.8804,-0.8804,-0.8804,-0.8804,-0.8804,-0.8804,-0.8804,-0.8586,-0.8262,-0.8262,-0.7777,-0.7128,-0.7128,-0.6912,-0.6588,-0.6588,-0.6588,-0.6696,-0.702,-0.7128,-0.7289,-0.8049,-0.8262,-0.8321,-0.8699,-0.8804,-0.8804,-0.8804,-0.8804,-0.8699,-0.8321,-0.7943,-0.7503,-0.674,-0.6308,-0.5819,-0.5113,-0.4732,-0.4519,-0.4519,-0.4519,-0.4519,-0.4519,-0.4519,-0.4519,-0.4519,-0.4519,-0.4433,-0.4362,-0.4237,-0.413,-0.4029,-0.4019,-0.4019,-0.4019,-0.4019,-0.4019,-0.4019,-0.4019,-0.4022,-0.4082,-0.3979,-0.402,-0.4203,-0.4066,-0.402,0.0,0.0,0.0,0.0,0.0,0.0,0.0,-0.9111,-0.8984,-0.9414,-1.0049,-1.0557,-1.0474,-1.0862,-1.1027,-1.0424,-1.0482,-1.0218,-0.9159,-0.9361,-0.9413,-0.8857,-0.8804,-0.8804,-0.8804,-0.8804,-0.8804,-0.8804,-0.8804,-0.8804,-0.8804,-0.8804,-0.8804,-0.8804,-0.8804,-0.8804,-0.8804,-0.8804,-0.8804,-0.8804,-0.8804,-0.8804,-0.8804,-0.8804,-0.8804,-0.8804,-0.8804,-0.8804,-0.8804,-0.8804,-0.8804,-0.8804,-0.8804,-0.8804,-0.8804,-0.8646,-0.8103,-0.7509,-0.7509,-0.7074,-0.6588,-0.6588,-0.6588,-0.6696,-0.7289,-0.7182,-0.7074,-0.8262,-0.8268,-0.8049,-0.8646,-0.8804,-0.8804,-0.8804,-0.8804,-0.8593,-0.783,-0.7563,-0.7069,-0.576,-0.5378,-0.5109,-0.457,-0.4519,-0.4519,-0.4519,-0.4519,-0.4519,-0.4519,-0.4519,-0.4519,-0.4519,-0.4519,-0.4519,-0.4519,-0.4358,-0.4236,-0.4114,-0.4107,-0.4107,-0.4107,-0.4107,-0.4107,-0.4107,-0.4107,-0.4161,-0.4277,-0.4168,-0.4234,-0.4478,-0.4317,-0.4041,-0.8203,-0.8613,-0.9033,-0.9417,-0.9485,-0.967,0.0,-1.0664,-1.0752,-1.1224,-1.139,-1.1393,-1.1159,-1.1147,-1.1107,-1.0806,-1.0289,-0.9865,-0.9718,-0.9263,-0.891,-0.8811,-0.8804,-0.8804,-0.8804,-0.8804,-0.8804,-0.8804,-0.8804,-0.8804,-0.8804,-0.8804,-0.8804,-0.8804,-0.8804,-0.8804,-0.8804,-0.8804,-0.8804,-0.8804,-0.8804,-0.8804,-0.8804,-0.8804,-0.8804,-0.8804,-0.8804,-0.8804,-0.8804,-0.8804,-0.8804,-0.8804,-0.8804,-0.8804,-0.8699,-0.8049,-0.7343,-0.6696,-0.6696,-0.6696,-0.6588,-0.6588,-0.6588,-0.6588,-0.6696,-0.7128,-0.7616,-0.7777,-0.8209,-0.8699,-0.8758,-0.8804,-0.8804,-0.8804,-0.8804,-0.8593,-0.783,-0.7182,-0.6475,-0.5651,-0.5003,-0.457,-0.4519,-0.4519,-0.4519,-0.4519,-0.4519,-0.4519,-0.4519,-0.4519,-0.4519,-0.4519,-0.4519,-0.4519,-0.4519,-0.4501,-0.4484,-0.447,-0.4467,-0.4467,-0.4467,-0.4467,-0.4467,-0.4467,-0.4467,-0.4467,-0.447,-0.4433,-0.4453,-0.4473,-0.432,-0.358,-0.8926,-0.9238,-0.9437,-0.9902,-1.0195,-1.0469,-1.083,-1.1103,-1.1338,-1.1567,-1.1768,-1.181,-1.1304,-1.137,-1.1282,-1.034,-0.9961,-0.9666,-0.9256,-0.8956,-0.8804,-0.8804,-0.8804,-0.8804,-0.8804,-0.8804,-0.8804,-0.8804,-0.8804,-0.8804,-0.8804,-0.8804,-0.8804,-0.8804,-0.8804,-0.8804,-0.8804,-0.8804,-0.8804,-0.8804,-0.8804,-0.8804,-0.8804,-0.8804,-0.8804,-0.8804,-0.8804,-0.8804,-0.8804,-0.8804,-0.8804,-0.8804,-0.8804,-0.8804,-0.8752,-0.848,-0.7883,-0.7235,-0.7235,-0.6966,-0.6588,-0.6588,-0.6312,-0.6036,-0.6475,-0.6258,-0.5982,-0.6804,-0.6961,-0.6956,-0.7396,-0.783,-0.8156,-0.8156,-0.8156,-0.7943,-0.7235,-0.647,-0.5764,-0.5058,-0.4677,-0.4519,-0.4519,-0.4519,-0.4519,-0.4519,-0.4519,-0.4519,-0.4519,-0.4519,-0.4519,-0.4519,-0.4519,-0.4519,-0.4519,-0.4519,-0.4519,-0.4519,-0.4519,-0.4519,-0.4519,-0.4519,-0.4519,-0.4519,-0.4519,-0.4519,-0.4519,-0.4473,-0.4027,-0.3132,-0.3081,-0.2296,-0.9427,-0.968,-0.9883,-1.0205,-1.0596,-1.0908,-1.0908,-1.1338,-1.1792,-1.1792,-1.21,-1.2158,-1.1495,-1.143,-1.1166,-0.9969,-0.9666,-0.9361,-0.8857,-0.8804,-0.8804,-0.8804,-0.8804,-0.8804,-0.8804,-0.8804,-0.8804,-0.8804,-0.8804,-0.8804,-0.8804,-0.8804,-0.8804,-0.8804,-0.8804,-0.8804,-0.8804,-0.8804,-0.8804,-0.8804,-0.8804,-0.8804,-0.8804,-0.8804,-0.8804,-0.8804,-0.8804,-0.8804,-0.8804,-0.8804,-0.8804,-0.8804,-0.8804,-0.8804,-0.8804,-0.8804,-0.848,-0.7996,-0.7996,-0.767,-0.7182,-0.7182,-0.6686,-0.6195,-0.6475,-0.5882,-0.5226,-0.6095,-0.6036,-0.5923,-0.648,-0.7128,-0.767,-0.745,-0.7563,-0.745,-0.6475,-0.5869,-0.5324,-0.4625,-0.4519,-0.4519,-0.4519,-0.4519,-0.4519,-0.4519,-0.4519,-0.4519,-0.4519,-0.4519,-0.4519,-0.4519,-0.4519,-0.4519,-0.4519,-0.4519,-0.4519,-0.4519,-0.4519,-0.4519,-0.4519,-0.4519,-0.4519,-0.4519,-0.4519,-0.4519,-0.4519,-0.4525,-0.391,-0.285,-0.2402,-0.1398,-0.9592,-0.9941,-1.0264,-1.0312,-1.0596,-1.0908,-1.0908,-1.1582,-1.2161,-1.2161,-1.2559,-1.2647,-1.1904,-1.1258,-1.0618,-0.9909,-0.9263,-0.8804,-0.8804,-0.8804,-0.8804,-0.8804,-0.8804,-0.8804,-0.8804,-0.8804,-0.8804,-0.8804,-0.8804,-0.8804,-0.8804,-0.8804,-0.8804,-0.8804,-0.8804,-0.8804,-0.8804,-0.8804,-0.8804,-0.8804,-0.8804,-0.8804,-0.8804,-0.8804,-0.8804,-0.8804,-0.8804,-0.8804,-0.8804,-0.8804,-0.8804,-0.8804,-0.8804,-0.8804,-0.8804,-0.8804,-0.8804,-0.8752,-0.8752,-0.8752,-0.8752,-0.8752,-0.8209,-0.7503,-0.6804,-0.6588,-0.6421,-0.5706,-0.6036,-0.6588,-0.6588,-0.7128,-0.7509,-0.6804,-0.7182,-0.7283,-0.5869,-0.5542,-0.5324,-0.4625,-0.4519,-0.4519,-0.4519,-0.4519,-0.4519,-0.4519,-0.4519,-0.4519,-0.4519,-0.4519,-0.4519,-0.4519,-0.4519,-0.4519,-0.4519,-0.4519,-0.4519,-0.4519,-0.4519,-0.4519,-0.4519,-0.4519,-0.4519,-0.4519,-0.4519,-0.4519,-0.4519,-0.4484,-0.4497,-0.4383,-0.2921,-0.1403,-0.9912,-1.0166,-1.0283,-1.0283,-1.0596,-1.0908,-1.0908,-1.1367,-1.1875,-1.2122,-1.2353,-1.233,-1.1868,-1.1266,-1.0568,-0.9917,-0.9263,-0.8804,-0.8804,-0.8804,-0.8804,-0.8804,-0.8804,-0.8804,-0.8804,-0.8804,-0.8804,-0.8804,-0.8804,-0.8804,-0.8804,-0.8804,-0.8804,-0.8804,-0.8804,-0.8804,-0.8804,-0.8804,-0.8804,-0.8804,-0.8804,-0.8804,-0.8804,-0.8804,-0.8804,-0.8804,-0.8804,-0.8804,-0.8804,-0.8804,-0.8804,-0.8804,-0.8804,-0.8804,-0.8804,-0.8804,-0.8804,-0.8804,-0.8804,-0.8804,-0.8804,-0.8804,-0.8321,-0.7563,-0.6804,-0.6258,-0.571,-0.5058,-0.5007,-0.5226,-0.5226,-0.571,-0.6195,-0.5928,-0.6086,-0.6086,-0.5597,-0.5164,-0.4787,-0.4519,-0.4519,-0.4519,-0.4519,-0.4519,-0.4519,-0.4519,-0.4519,-0.4519,-0.4519,-0.4519,-0.4519,-0.4519,-0.4519,-0.4519,-0.4519,-0.4519,-0.4519,-0.4519,-0.4519,-0.4519,-0.4519,-0.4519,-0.4519,-0.4519,-0.4519,-0.4522,-0.4473,-0.448,-0.4494,-0.4507,-0.3943,-0.2413,-1.0137,-1.0283,-1.0283,-1.0283,-1.0359,-1.0431,-1.0643,-1.1006,-1.1455,-1.1879,-1.2119,-1.2213,-1.2211,-1.1198,-1.0417,-1.0527,-0.9467,-0.8788,-0.9093,-0.8956,-0.8804,-0.8804,-0.8804,-0.8804,-0.8804,-0.8804,-0.8804,-0.8804,-0.8804,-0.8804,-0.8804,-0.8804,-0.8804,-0.8804,-0.8804,-0.8804,-0.8804,-0.8911,-0.8965,-0.8965,-0.8965,-0.8911,-0.8804,-0.8804,-0.8804,-0.8804,-0.8804,-0.8804,-0.8804,-0.8804,-0.8804,-0.8804,-0.8804,-0.8804,-0.8804,-0.8804,-0.8804,-0.8804,-0.8804,-0.8804,-0.8804,-0.8804,-0.848,-0.7883,-0.6912,-0.6258,-0.571,-0.4791,-0.4519,-0.4519,-0.4519,-0.5167,-0.5814,-0.5542,-0.5706,-0.5814,-0.5542,-0.4948,-0.4519,-0.4519,-0.4519,-0.4519,-0.4519,-0.4519,-0.4519,-0.4519,-0.4519,-0.4519,-0.4519,-0.4519,-0.4519,-0.4519,-0.4519,-0.4519,-0.4519,-0.4519,-0.4519,-0.4519,-0.4519,-0.4519,-0.4519,-0.4519,-0.4519,-0.4519,-0.4519,-0.4522,-0.448,-0.3968,-0.3981,-0.4458,-0.3373,-0.185,-1.0273,-1.0283,-1.0283,-1.0283,-0.9922,-0.9686,-1.0147,-1.0512,-1.0909,-1.1421,-1.185,-1.2268,-1.2744,-1.1136,-1.0174,-1.1514,-0.9838,-0.8737,-0.9622,-0.9211,-0.8804,-0.8804,-0.8804,-0.8804,-0.8804,-0.8804,-0.8811,-0.8831,0.0,-0.8804,-0.8804,-0.8804,-0.8804,-0.8804,-0.8824,-0.8831,-0.8831,-0.9064,-0.921,-0.921,-0.921,-0.9118,-0.8851,-0.8851,-0.8844,-0.8831,-0.8831,-0.8824,-0.8804,-0.8804,-0.8804,-0.8804,-0.8804,-0.8804,-0.8804,-0.8824,-0.8831,-0.8831,-0.8844,-0.8831,-0.8804,-0.8804,-0.8804,-0.8533,-0.7074,-0.6642,-0.6317,-0.4952,-0.4515,-0.4519,-0.4519,-0.55,-0.6367,-0.5597,-0.6036,-0.6367,-0.5597,-0.4948,-0.4519,-0.4519,-0.4519,-0.4519,-0.4519,-0.4519,-0.4519,-0.4519,-0.4519,-0.4519,-0.4519,-0.4519,-0.4519,-0.4519,-0.4519,-0.4519,-0.4519,-0.4519,-0.4519,-0.4519,-0.4519,-0.4519,-0.4519,-0.4519,-0.4519,-0.4519,-0.4519,-0.4522,-0.448,-0.2959,-0.291,-0.4228,-0.1345,-0.0,-1.0195,-1.0283,-1.0283,-1.0283,-1.0205,-1.0077,-1.0013,-1.0065,-1.0256,-1.0774,-1.093,-1.1211,-1.183,-1.0891,-1.0202,-1.0529,-0.9539,-0.8776,-0.9001,-0.891,-0.8804,-0.8804,-0.8804,-0.8804,-0.8804,-0.8804,-0.8898,-0.9057,-0.8931,-0.8804,-0.8804,-0.8804,-0.8804,-0.8804,-0.9018,-0.907,-0.907,-0.9419,-0.9573,-0.9573,-0.9573,-0.9532,-0.9459,-0.9459,-0.9339,-0.907,-0.907,-0.9005,-0.8804,-0.8804,-0.8804,-0.8804,-0.8804,-0.8804,-0.8831,-0.9051,-0.907,-0.9158,-0.9385,-0.9172,-0.8804,-0.8804,-0.8804,-0.8646,-0.7723,-0.702,-0.6421,-0.5492,-0.4893,-0.4519,-0.4519,-0.5113,-0.5601,-0.4897,-0.5273,-0.5601,-0.4893,-0.4625,-0.4519,-0.4519,-0.4519,-0.4519,-0.4519,-0.4519,-0.4519,-0.4519,-0.4519,-0.4519,-0.4519,-0.4519,-0.4519,-0.4519,-0.4519,-0.4519,-0.4519,-0.4519,-0.4519,-0.4519,-0.4519,-0.4519,-0.4519,-0.4519,-0.4519,-0.4519,-0.4519,-0.4473,-0.449,-0.2961,-0.1843,-0.1121,-0.0336,-0.0,-1.0215,-1.0283,-1.0283,-1.0283,-1.0118,-0.9979,-1.0043,-1.0022,-1.0119,-1.0613,-1.0745,-1.0888,-1.148,-1.0552,-0.9913,-1.0561,-0.9485,-0.8761,-0.919,-0.9008,-0.8804,-0.8804,-0.8804,-0.8804,-0.8804,-0.8804,-0.8878,-0.9038,-0.9018,-0.8998,-0.8998,-0.9118,-0.9132,-0.9005,-0.9285,-0.9499,-0.9568,-0.9793,-0.9873,-0.9873,-0.9873,-0.9806,-0.9686,-0.9686,-0.9593,-0.9432,0.0,-0.9265,-0.8998,-0.8998,-0.8925,-0.8804,-0.8804,-0.8804,-0.8824,-0.8991,-0.9051,-0.9092,-0.9385,-0.9272,-0.8998,-0.8998,-0.8911,-0.8646,-0.7937,-0.7182,-0.6421,-0.5706,-0.5003,-0.457,-0.4842,-0.5437,-0.5982,-0.5928,-0.5928,-0.5873,-0.55,-0.4956,-0.4519,-0.4519,-0.4519,-0.4519,-0.4519,-0.4519,-0.4519,-0.4519,-0.4519,-0.4519,-0.4519,-0.4519,-0.4519,-0.4519,-0.4519,-0.4519,-0.4519,-0.4519,-0.4519,-0.4519,-0.4519,-0.4519,-0.4519,-0.4519,-0.4519,-0.4525,-0.4525,-0.448,-0.4504,-0.3646,-0.2127,-0.0,-0.0,-0.0,-1.0283,-1.0283,-1.0283,-1.0283,-0.9961,-0.9734,-1.0146,-1.0149,-1.0233,-1.065,-1.0784,-1.0881,-1.1338,-1.0211,-0.9646,-1.09,-0.964,-0.8818,-0.9666,-0.9211,-0.8804,-0.8804,-0.8804,-0.8804,-0.8804,-0.8804,-0.8824,-0.8864,-0.9044,-0.9183,-0.9183,-0.9519,-0.9586,-0.9309,-0.9606,-0.988,-1.0174,-1.0174,-1.0174,-1.0174,-1.0174,-1.004,-0.98,-0.98,-0.978,-0.974,-0.974,-0.9573,-0.9243,-0.9243,-0.9132,-0.8864,-0.8864,-0.8838,-0.8811,-0.8851,-0.8864,-0.8911,-0.9183,-0.9276,-0.9236,-0.9196,-0.9072,-0.8745,-0.8055,-0.7235,-0.6475,-0.5814,-0.5113,-0.4625,-0.5218,-0.5982,-0.6696,-0.7182,-0.6912,-0.6534,-0.6372,-0.5391,-0.4519,-0.4519,-0.4519,-0.4519,-0.4519,-0.4519,-0.4519,-0.4519,-0.4519,-0.4519,-0.4519,-0.4519,-0.4519,-0.4519,-0.4519,-0.4519,-0.4519,-0.4519,-0.4519,-0.4519,-0.4519,-0.4519,-0.4519,-0.4519,-0.4522,-0.448,-0.448,-0.449,-0.4514,-0.4514,-0.2977,-0.0,-0.0,-0.0,-1.0283,-1.0283,-1.0283,-1.0283,-1.0235,-1.0135,-1.0008,-0.9969,-0.9971,-1.0056,-1.0056,-1.015,-1.0467,-1.01,-0.9951,-1.0588,-0.9763,-0.9255,-0.9717,-0.9211,-0.8804,-0.8804,-0.8804,-0.8804,-0.8804,-0.8804,-0.8911,-0.909,-0.9157,-0.9183,-0.9183,-0.9519,-0.9773,-0.996,-1.0013,-1.0187,-1.0481,-1.0481,-1.0481,-1.0481,-1.0481,-1.0517,-1.047,-1.047,-1.0274,-1.004,-1.004,0.0,-0.9606,-0.9606,-0.9432,-0.911,-0.911,-0.9018,-0.8838,-0.9024,-0.911,-0.9183,-0.978,-0.9806,-0.9566,-0.9263,-0.915,-0.9064,-0.8718,-0.767,-0.6588,-0.6421,-0.5496,-0.4515,-0.4625,-0.5609,-0.6317,-0.5277,-0.5828,-0.6263,-0.5117,-0.468,-0.4519,-0.4519,-0.4519,-0.4519,-0.4519,-0.4519,-0.4519,-0.4519,-0.4519,-0.4519,-0.4519,-0.4519,-0.4519,-0.4519,-0.4519,-0.4519,-0.4519,-0.4519,-0.4519,-0.4519,-0.4519,-0.4519,-0.4519,-0.4519,-0.4522,-0.448,-0.448,-0.449,-0.4514,-0.4514,-0.2977,-0.0,-0.0,-0.0,-1.0283,-1.0283,-1.0283,-1.0283,-1.0283,-1.0254,-1.0127,-1.0134,-1.0134,-1.0134,-1.0134,-1.0148,-1.0273,-1.009,-0.9991,-1.0187,-0.9719,-0.9379,-0.9472,-0.922,-0.908,-0.9295,-0.9309,-0.9465,-0.9814,-0.9865,-0.9725,-0.9521,-0.9684,-0.9618,-0.9239,-0.9379,-0.9726,-1.0327,-1.02,-1.0261,-1.0618,-1.0624,-1.0624,-1.0624,-1.0624,-1.0624,-1.0624,-1.0624,-1.0481,-1.0347,-1.0347,-1.018,-0.9907,-0.9907,-0.9646,-0.9183,-0.9183,-0.9065,-0.8824,-0.8965,-0.9018,-0.9078,-0.9512,-0.9673,-0.9633,-0.9339,-0.9183,-0.913,-0.8891,-0.7777,-0.6588,-0.6588,-0.5609,-0.457,-0.4948,-0.5546,-0.5928,-0.566,-0.5823,-0.5764,-0.4736,-0.4519,-0.4519,-0.4519,-0.4519,-0.4519,-0.4519,-0.4519,-0.4519,-0.4519,-0.4519,-0.4519,-0.4519,-0.4519,-0.4519,-0.4519,-0.4519,-0.4519,-0.4519,-0.4519,-0.4519,-0.4519,-0.4519,-0.4519,-0.4519,-0.4522,-0.4477,-0.4487,-0.4494,-0.3705,-0.2132,-0.2132,-0.1401,-0.0,-0.0,-0.0,-1.0283,-1.0283,-1.0283,-1.0283,-1.0283,-1.0283,-1.0283,-1.0283,-1.0283,-1.0283,-1.0283,-1.0283,-1.0283,-1.0136,-1.0007,-1.0089,-0.9899,-0.9733,-0.9616,-0.9445,-0.9479,-0.9982,-0.9865,-1.0064,-1.0712,-1.0661,-1.0415,-1.0064,-1.0113,-0.9973,-0.9419,-0.9369,-0.9773,-1.0598,-1.0334,-1.0321,-1.0618,-1.0624,-1.0624,-1.0624,-1.0624,-1.0624,-1.0624,-1.0624,-1.0624,-1.0624,-1.0624,-1.0428,0.0,-1.0214,-0.9866,-0.9283,-0.9283,-0.9118,-0.8804,-0.8804,-0.8804,-0.8851,-0.9084,-0.9392,-0.9552,-0.9263,-0.923,-0.9265,-0.8918,-0.7777,-0.6588,-0.6588,-0.5609,-0.4625,-0.5164,-0.5487,-0.5869,-0.648,-0.5928,-0.5164,-0.4625,-0.4519,-0.4519,-0.4519,-0.4519,-0.4519,-0.4519,-0.4519,-0.4519,-0.4519,-0.4519,-0.4519,-0.4519,-0.4519,-0.4519,-0.4519,-0.4519,-0.4519,-0.4519,-0.4519,-0.4519,-0.4519,-0.4519,-0.4519,-0.4522,-0.4473,-0.4487,-0.4501,-0.4507,-0.3033,-0.0,-0.0,-0.0,-0.0,-0.0,-0.0,-1.0283,-1.0283,-1.0283,-1.0283,-1.0283,-1.0283,-1.0283,-1.0283,-1.0283,-1.0283,-1.0283,-1.0283,-1.0283,-1.0273,-1.038,-1.0767,-1.0616,-1.0605,-1.0986,-1.0268,-0.9982,-1.061,-1.0167,-1.0064,-1.0712,-1.0269,-1.0115,-1.0669,-1.0198,-0.9875,-0.9987,-1.0033,-1.02,-1.0611,-1.0598,-1.0598,-1.0624,-1.0624,-1.0624,-1.0624,-1.0624,-1.0624,-1.0624,-1.0624,-1.0624,-1.0624,-1.0624,-1.0611,0.0,-1.0521,-1.0174,-0.9646,-0.9646,-0.9299,-0.8804,-0.8804,-0.8804,-0.8851,-0.9084,-0.9203,-0.9223,-0.919,-0.9419,-0.9539,-0.8978,-0.7777,-0.6588,-0.6588,-0.5609,-0.4519,-0.457,-0.5555,-0.6534,-0.6588,-0.555,-0.457,-0.4519,-0.4519,-0.4519,-0.4519,-0.4519,-0.4519,-0.4519,-0.4519,-0.4519,-0.4519,-0.4519,-0.4519,-0.4519,-0.4519,-0.4519,-0.4519,-0.4519,-0.4519,-0.4519,-0.4519,-0.4519,-0.4519,-0.4519,-0.4522,-0.4477,-0.448,-0.449,-0.4511,-0.4514,-0.3033,-0.0,-0.0,-0.0,-0.0,-0.0,-0.0,-1.0352,-1.0695,-1.1028,-1.0723,-1.0654,-1.0654,-1.0654,-1.0459,-1.0283,-1.0283,-1.0283,-1.0283,-1.0283,-1.0283,-1.0342,-1.0508,-1.0472,-1.0512,-1.0795,-1.0509,-1.0575,-1.1314,-1.1166,-1.1275,-1.1999,-1.1801,-1.1592,-1.1416,-1.0613,-1.021,-1.045,-0.9911,-0.9886,-1.0604,-1.0388,-1.0381,-1.0624,-1.0624,-1.0624,-1.0624,-1.0624,-1.0624,-1.0624,-1.0624,-1.0624,-1.0624,-1.0624,-1.0624,0.0,-1.0624,-1.0214,-0.9686,-0.9686,-0.9325,-0.8804,-0.8804,-0.8804,-0.8824,-0.8938,-0.9092,-0.9157,-0.9038,-0.9178,-0.9339,-0.8931,-0.7777,-0.6588,-0.6588,-0.5609,-0.4519,-0.4519,-0.4901,-0.5336,-0.5336,-0.4897,-0.4519,-0.4519,-0.4519,-0.4519,-0.4519,-0.4519,-0.4519,-0.4519,-0.4519,-0.4519,-0.4519,-0.4519,-0.4519,-0.4519,-0.4519,-0.4519,-0.4519,-0.4519,-0.4519,-0.4519,-0.4519,-0.4519,-0.4519,-0.4525,-0.4473,-0.448,-0.4494,-0.4504,-0.4514,-0.2695,-0.1177,-0.0,-0.0,-0.0,-0.0,-0.0,-0.0,-1.0547,-1.1047,-1.1528,-1.1182,-1.1006,-1.0908,-1.0908,-1.0586,-1.0283,-1.0283,-1.0283,-1.0283,-1.0283,-1.0283,-1.0283,0.0,-1.0538,-1.0746,-1.0888,-1.094,-1.1257,-1.2015,-1.1922,-1.208,-1.2832,-1.2881,-1.2608,-1.1864,-1.1156,-1.0778,-1.0852,-1.0086,-0.9959,-1.0598,-1.0354,-1.0347,-1.0618,-1.0624,-1.0624,-1.0624,-1.0624,-1.0624,-1.0624,-1.0624,-1.0624,-1.0624,-1.0624,-1.0624,0.0,-1.0624,-1.0214,-0.9686,-0.9686,-0.9325,-0.8804,-0.8804,-0.8804,-0.8804,-0.8804,-0.8938,-0.9078,-0.8871,-0.8945,-0.9017,-0.8871,-0.7777,-0.6588,-0.6588,-0.5609,-0.4574,-0.4732,-0.4625,-0.4574,-0.4732,-0.4625,-0.4519,-0.4519,-0.4519,-0.4519,-0.4519,-0.4519,-0.4519,-0.4519,-0.4519,-0.4519,-0.4519,-0.4519,-0.4519,-0.4519,-0.4519,-0.4519,-0.4519,-0.4519,-0.4519,-0.4519,-0.4519,-0.4519,-0.4519,-0.4473,-0.4307,-0.3858,-0.4274,-0.4058,-0.3203,-0.1065,-0.0,-0.0,-0.0,-0.0,-0.0,-0.0,-0.0,-1.0898,-1.1221,-1.1606,-1.1596,-1.123,-1.0908,-1.0908,-1.0586,-1.0283,-1.0283,-1.0283,-1.0283,-1.0283,-1.0283,-1.0283,-1.0283,-1.1028,-1.1596,-1.1606,-1.1696,-1.207,-1.2822,-1.2236,-1.208,-1.2832,-1.2881,-1.2608,-1.1864,-1.1765,0.0,-1.1296,-1.0885,-1.0637,-1.0604,-1.0618,-1.0618,-1.0624,-1.0624,-1.0624,-1.0624,-1.0624,-1.0624,-1.0624,-1.0624,-1.0624,-1.0624,-1.0624,-1.0624,0.0,-1.0624,-1.0214,-0.9686,-0.9686,-0.9325,-0.8804,-0.8804,-0.8804,-0.8804,-0.8804,-0.8811,-0.8811,-0.8804,-0.8811,-0.8811,-0.8804,-0.7777,-0.6588,-0.6588,-0.5609,-0.468,-0.5324,-0.5003,-0.468,-0.5324,-0.5003,-0.4519,-0.4519,-0.4519,-0.4519,-0.4519,-0.4519,-0.4519,-0.4519,-0.4519,-0.4519,-0.4519,-0.4519,-0.4519,-0.4519,-0.4519,-0.4519,-0.4519,-0.4519,-0.4519,-0.4519,-0.4519,-0.4519,-0.4519,-0.4473,-0.3802,-0.2287,-0.3705,-0.3091,-0.0112,-0.0,-0.0,-0.0,-0.0,-0.0,-0.0,-0.0,-0.0,-1.0557,-1.1047,-1.1528,-1.1191,-1.1006,-1.0908,-1.0908,-1.0586,-1.0283,-1.0283,-1.0283,-1.0283,-1.0283,-1.0283,-1.0381,-1.0664,-1.0937,0.0,-1.1934,-1.2051,-1.2282,-1.2842,-1.2715,-1.2657,-1.2881,-1.2881,-1.2774,-1.2559,-1.2305,-1.2103,-1.2018,-1.117,-1.0502,-1.0013,-1.0154,-1.0254,-1.0254,-1.0254,-1.0361,-1.0624,-1.0624,-1.0624,-1.0624,-1.0624,-1.0624,-1.0624,-1.0624,-1.0624,0.0,-1.0624,-1.0214,-0.9686,-0.9686,-0.9325,-0.8804,-0.8804,-0.8804,-0.8804,-0.8804,-0.8804,-0.8804,-0.8804,-0.8804,-0.8804,-0.8804,-0.7777,-0.648,-0.5982,-0.5542,-0.5218,-0.5433,-0.5003,-0.457,-0.4787,-0.468,-0.4519,-0.4519,-0.4519,-0.4519,-0.4519,-0.4519,-0.4519,-0.4519,-0.4519,-0.4519,-0.4519,-0.4519,-0.4519,-0.4519,-0.4519,-0.4519,-0.4519,-0.4519,-0.4519,-0.4519,-0.4519,-0.4522,-0.4473,-0.4484,-0.4268,-0.3766,-0.2242,-0.0953,-0.0,-0.0,-0.0,-0.0,-0.0,-0.0,-0.0,-0.0,-0.0,-1.0459,-1.1067,-1.1538,-1.1221,-1.1035,-1.0908,-1.0908,-1.0586,-1.0283,-1.0283,-1.0283,-1.0283,-1.0283,-1.0283,-1.042,-1.084,-1.1045,-1.1406,-1.2083,-1.2373,-1.2578,-1.2852,-1.2881,-1.2881,-1.2881,-1.2881,-1.2881,-1.2881,-1.2667,-1.2383,-1.2109,-1.1345,-1.0613,-0.996,-1.0025,-1.0174,-1.0281,-1.0281,-1.0374,-1.0624,-1.0624,-1.0624,-1.0624,-1.0624,-1.0624,-1.0624,-1.0624,-1.0624,0.0,-1.0441,-1.0114,-0.9673,-0.9559,-0.9225,-0.8804,-0.8804,-0.8804,-0.8804,-0.8804,-0.8804,-0.8804,-0.8804,-0.8593,-0.8321,-0.8049,-0.7509,-0.6799,-0.576,-0.5487,-0.5433,-0.5164,-0.4787,-0.4519,-0.4519,-0.4519,-0.4519,-0.4519,-0.4519,-0.4519,-0.4519,-0.4519,-0.4519,-0.4519,-0.4519,-0.4519,-0.4519,-0.4519,-0.4519,-0.4519,-0.4519,-0.4519,-0.4519,-0.4519,-0.4519,-0.4519,-0.4519,-0.4522,-0.448,-0.3974,-0.3872,-0.4458,-0.1625,-0.0,-0.0,-0.0,-0.0,-0.0,-0.0,-0.0,-0.0,-0.0,-0.0,0.0,-1.1084,-1.1479,-1.1508,-1.1162,-1.0869,-1.0869,-1.0566,0.0,-1.0283,-1.0283,-1.0293,-1.0322,-1.0332,-1.0478,-1.0928,-1.1348,-1.1758,-1.2171,-1.2627,-1.2881,-1.2881,-1.2881,-1.2881,-1.2881,-1.2881,-1.2881,-1.2881,-1.2881,-1.2608,-1.1922,-1.155,-1.1038,-1.0399,-1.0254,-1.0288,-1.0591,-1.0591,-1.0604,-1.0624,-1.0624,-1.0624,-1.0624,-1.0624,-1.0624,0.0,-1.0624,0.0,0.0,-1.0241,-0.9947,-0.9653,-0.9352,-0.9065,-0.8804,-0.8804,-0.8804,-0.8804,-0.8804,-0.8804,-0.8804,-0.8804,-0.8321,-0.767,-0.6966,-0.7182,-0.7396,-0.5977,-0.5597,-0.5433,-0.4791,-0.457,-0.4519,-0.4519,-0.4519,-0.4519,-0.4519,-0.4519,-0.4519,-0.4519,-0.4519,-0.4519,-0.4519,-0.4519,-0.4519,-0.4519,-0.4519,-0.4519,-0.4519,-0.4519,-0.4519,-0.4519,-0.4519,-0.4519,-0.4519,-0.4519,-0.4525,-0.448,-0.3183,-0.291,-0.4113,-0.1514,-0.0,-0.0,-0.0,-0.0,-0.0,-0.0,-0.0,-0.0,-0.0,-0.0,-0.9287,0.0,-1.0166,-1.0498,-1.0508,-1.043,0.0,-1.0352,-1.0283,-1.0283,-1.0283,-1.0381,-1.0703,-1.0762,-1.1016,-1.1752,-1.2002,-1.2227,-1.2666,-1.2812,-1.2881,-1.2881,-1.2881,-1.2881,-1.2881,-1.2881,-1.2881,-1.2881,-1.2881,-1.2822,-1.2666,-1.2022,-1.161,-1.1376,-1.0823,-1.0439,-1.0214,-1.0221,-1.0334,-1.0624,-1.0624,-1.0624,-1.0624,-1.0624,-1.0624,-1.0624,-1.0624,0.0,-1.0598,-1.0241,-0.9947,-0.9653,-0.9352,-0.9065,-0.8804,-0.8804,-0.8804,-0.8804,-0.8804,-0.8804,-0.8804,-0.8804,-0.8699,-0.8533,-0.8321,-0.7996,-0.7503,-0.6583,-0.6367,-0.6312,-0.6154,-0.5281,-0.4519,-0.4519,-0.4519,-0.4519,-0.4519,-0.4519,-0.4519,-0.4519,-0.4519,-0.4519,-0.4519,-0.4519,-0.4519,-0.4519,-0.4519,-0.4519,-0.4519,-0.4519,-0.4519,-0.4519,-0.4519,-0.4522,-0.4473,-0.4477,-0.448,-0.449,-0.416,-0.3088,-0.1121,-0.0392,-0.0,-0.0,-0.0,-0.0,-0.0,-0.0,-0.0,-0.0,-0.0,-0.0,-0.8603,-0.916,-0.9651,-0.9922,-1.0137,-1.0283,-1.0283,-1.0283,-1.0283,-1.0283,-1.0283,-1.041,-1.083,-1.0908,-1.1201,-1.2044,-1.218,-1.2383,-1.2822,-1.2881,-1.2881,-1.2881,-1.2881,-1.2881,0.0,-1.2881,-1.2881,-1.2881,-1.2881,-1.2881,-1.2881,-1.2187,-1.1738,-1.1521,-1.0894,-1.048,-1.0314,-1.0321,-1.0401,-1.0624,-1.0624,-1.0624,-1.0624,-1.0624,-1.0624,-1.0624,-1.0624,0.0,-1.0591,-1.0094,-0.9826,-0.9639,-0.9212,-0.8945,-0.8804,-0.8804,-0.8804,-0.8804,-0.8804,-0.8804,-0.8804,-0.8804,-0.8586,-0.8209,-0.7883,-0.7723,-0.7563,-0.6804,-0.6367,-0.6036,-0.5719,-0.5062,-0.4519,-0.4519,-0.4519,-0.4519,-0.4519,-0.4519,-0.4519,-0.4519,-0.4519,-0.4519,-0.4519,-0.4519,-0.4519,-0.4519,-0.4519,-0.4519,-0.4519,-0.4519,-0.4519,-0.4519,-0.4522,-0.4473,-0.448,-0.449,-0.4497,-0.4504,-0.4511,-0.3147,-0.0112,-0.0,-0.0,-0.0,-0.0,-0.0,-0.0,-0.0,-0.0,-0.0,-0.0,-0.0,-0.834,-0.9043,-0.9592,-0.9592,-0.9961,-1.0283,-1.0283,-1.0283,-1.0283,-1.0283,-1.0332,-1.0508,-1.0928,-1.1064,-1.1377,-1.2197,-1.2334,-1.2461,-1.2832,-1.2881,-1.2881,-1.2881,-1.2881,0.0,-1.2881,-1.2881,-1.2881,-1.2881,-1.2881,-1.2881,-1.2881,-1.2295,-1.1802,-1.1464,-1.0786,-1.0514,-1.0594,-1.049,-1.0448,-1.0494,-1.0494,-1.0577,-1.0624,-1.0577,-1.0577,-1.0618,0.0,0.0,-1.051,-0.986,-0.9619,-0.9559,-0.9018,-0.8804,-0.8804,-0.8804,-0.8804,-0.8804,-0.8804,-0.8804,-0.8804,-0.8804,-0.8374,-0.7723,-0.6966,-0.7128,-0.7396,-0.675,-0.6145,-0.5487,-0.4842,-0.457,-0.4519,-0.4519,-0.4519,-0.4519,-0.4519,-0.4519,-0.4519,-0.4519,-0.4519,-0.4519,-0.4519,-0.4519,-0.4519,-0.4519,-0.4519,-0.4519,-0.4519,-0.4519,-0.4519,-0.4519,-0.4473,-0.4421,-0.4193,-0.4386,-0.4514,-0.4514,-0.4058,-0.2639,-0.0112,-0.0,-0.0,-0.0,-0.0,-0.0,-0.0,-0.0,-0.0,-0.0,-0.0,-0.0,-0.8691,-0.9258,-0.9592,-0.9592,-0.9961,-1.0283,-1.0283,-1.0283,-1.0283,-1.0283,-1.0566,-1.0947,-1.143,-1.1768,-1.2187,-1.2695,-1.2783,-1.2803,-1.2871,-1.2881,-1.2881,-1.2881,0.0,-1.2881,-1.2881,-1.2881,-1.2881,-1.2881,-1.2881,-1.2881,-1.2881,-1.2774,-1.2551,-1.2175,-1.1481,-1.0997,-1.0711,-1.01,-0.994,-1.018,-1.018,-1.0314,-1.0618,-1.0301,-1.0321,-1.0598,0.0,-0.9953,-1.014,-0.9552,-0.925,-0.9216,-0.8938,-0.8804,-0.8804,-0.8804,-0.8804,-0.8804,-0.8804,-0.8804,-0.8804,-0.8804,-0.8699,-0.848,-0.7777,-0.7182,-0.675,-0.6642,-0.6529,-0.6258,-0.5542,-0.4948,-0.4519,-0.4519,-0.4519,-0.4519,-0.4519,-0.4519,-0.4519,-0.4519,-0.4519,-0.4519,-0.4519,-0.4519,-0.4519,-0.4519,-0.4519,-0.4519,-0.4519,-0.4519,-0.4519,-0.4519,-0.4473,-0.3968,-0.2679,-0.3764,-0.4518,-0.4528,-0.2077,-0.0505,-0.0,-0.0,-0.0,-0.0,-0.0,-0.0,-0.0,-0.0,-0.0,-0.0,-0.0,-0.0,-0.8496,-0.8975,-0.9404,-0.9873,-1.0478,-1.0949,-1.0674,-1.0801,-1.1018,-1.1018,-1.1165,-1.1396,-1.1846,-1.209,-1.2373,-1.2812,-1.2881,-1.2881,-1.2881,-1.2881,-1.2881,0.0,0.0,-1.2881,-1.2881,-1.2881,-1.2881,-1.2881,-1.2881,-1.2881,-1.2881,-1.2881,-1.2457,-1.1541,-1.1172,-1.0582,-0.9686,-0.937,-0.9439,-0.988,-0.988,-0.9953,-1.008,-0.9947,-0.9953,-1.0074,0.0,-0.976,-0.9846,-0.9419,-0.9183,-0.9157,-0.8918,-0.8804,-0.8804,-0.8804,-0.8804,-0.8804,-0.8804,-0.8804,-0.8804,-0.8804,-0.8804,-0.8646,-0.7937,-0.7723,-0.7557,-0.6362,-0.5769,-0.5496,-0.5487,-0.5003,-0.4519,-0.4519,-0.4519,-0.4519,-0.4519,-0.4519,-0.4519,-0.4519,-0.4519,-0.4519,-0.4519,-0.4519,-0.4519,-0.4519,-0.4519,-0.4519,-0.4519,-0.4519,-0.4519,-0.4519,-0.4477,-0.3863,-0.2343,-0.2127,-0.2077,-0.2079,-0.0785,-0.0,-0.0,-0.0,-0.0,-0.0,-0.0,-0.0,-0.0,-0.0,-0.0,-0.0,-0.0,-0.0,-0.8379,-0.8838,-0.9336,-1.0088,-1.0812,-1.1273,-1.1094,-1.124,-1.1479,-1.1577,-1.1685,-1.1816,-1.2122,-1.2314,-1.249,-1.2832,-1.2881,-1.2881,-1.2881,-1.2881,-1.2881,-1.2881,-1.2881,-1.2881,-1.2881,-1.2881,-1.2881,-1.2881,-1.2881,-1.2881,-1.2881,-1.2725,-1.2147,-1.1065,-1.072,-1.0064,-0.9061,-0.8857,-0.9065,-0.9579,-0.9579,-0.9619,-0.9679,-0.9613,-0.9619,-0.9679,-0.9539,-0.9512,-0.9559,-0.9259,-0.9084,-0.9064,-0.8891,-0.8804,-0.8804,-0.8804,-0.8804,-0.8804,-0.8804,-0.8804,-0.8804,-0.8804,-0.8804,-0.8646,-0.7937,-0.7996,-0.7937,-0.6249,-0.5167,-0.4625,-0.5109,-0.4893,-0.4519,-0.4519,-0.4519,-0.4519,-0.4519,-0.4519,-0.4519,-0.4519,-0.4519,-0.4519,-0.4519,-0.4519,-0.4519,-0.4519,-0.4519,-0.4519,-0.4519,-0.4519,-0.4519,-0.4519,-0.4484,-0.3755,-0.1842,-0.0671,-0.0,-0.0,-0.0,-0.0,-0.0,-0.0,-0.0,-0.0,-0.0,-0.0,-0.0,-0.0,-0.0,-0.0,-0.0,-0.0,-0.873,-0.9268,-0.9661,-1.0166,-1.0371,-1.0616,-1.1381,-1.1221,-1.1064,-1.1518,-1.1895,-1.2187,-1.218,-1.2559,-1.2842,-1.2871,-1.2881,-1.2881,-1.2881,0.0,-1.2881,-1.2881,-1.2881,-1.2881,-1.2881,-1.2881,-1.2881,-1.2881,-1.2881,-1.2881,-1.2881,-1.2236,-1.1814,-1.1715,-1.0517,-0.9814,-0.9718,-0.9106,-0.8965,-0.9216,-0.9216,-0.9419,-0.9673,-0.9399,-0.9419,-0.9653,-0.9105,-0.9025,-0.919,-0.8958,-0.8838,-0.8838,-0.8818,-0.8804,-0.8804,-0.8804,-0.8804,-0.8804,-0.8804,-0.8804,-0.8804,-0.8804,-0.8804,-0.8646,-0.7937,-0.7235,-0.675,-0.6588,-0.5555,-0.4519,-0.457,-0.4519,-0.4519,-0.4519,-0.4519,-0.4519,-0.4519,-0.4519,-0.4519,-0.4519,-0.4519,-0.4519,-0.4519,-0.4519,-0.4519,-0.4519,-0.4519,-0.4519,-0.4519,-0.4519,-0.4519,-0.4519,-0.4484,-0.3307,-0.0392,-0.0056,-0.0,-0.0,-0.0,-0.0,-0.0,-0.0,-0.0,-0.0,-0.0,-0.0,-0.0,-0.0,-0.0,-0.0,-0.0,-0.0,-0.8457,-0.9111,-0.9699,-1.0176,-1.0724,-1.1204,-1.1528,-1.165,-1.1855,-1.2295,-1.252,-1.2637,-1.2637,-1.2773,-1.2881,-1.2881,-1.2881,-1.2881,-1.2881,-1.2881,-1.2881,-1.2881,-1.2881,-1.2881,-1.2881,-1.2501,-1.2236,-1.2236,-1.2236,-1.2039,-1.1642,-1.1724,-1.1416,-1.0568,-1.0064,-0.9614,-0.9159,-0.891,-0.8864,-0.8971,-0.8971,-0.9031,-0.9138,-0.9018,-0.9031,-0.9125,-0.8905,-0.8871,-0.8965,-0.8851,-0.8804,-0.8804,-0.8804,-0.8804,-0.8804,-0.8804,-0.8804,-0.8804,-0.8804,-0.8804,-0.8804,-0.8804,-0.8804,-0.8646,-0.7937,-0.7503,-0.7074,-0.6199,-0.5546,-0.5109,-0.5109,-0.4787,-0.4519,-0.4519,-0.4519,-0.4519,-0.4519,-0.4519,-0.4519,-0.4519,-0.4519,-0.4519,-0.4519,-0.4519,-0.4519,-0.4519,-0.4519,-0.4519,-0.4519,-0.4519,-0.4519,-0.4519,-0.363,-0.2235,-0.0168,-0.0,-0.0,-0.0,-0.0,-0.0,-0.0,-0.0,-0.0,-0.0,-0.0,-0.0,-0.0,-0.0,-0.0,-0.0,-0.0,-0.0,-0.8332,-0.8994,-0.9699,-1.0176,-1.082,-1.1469,-1.1709,-1.2002,-1.2353,-1.2793,-1.2881,-1.2881,-1.2881,-1.2881,-1.2881,-1.2881,-1.2881,-1.2881,-1.2881,-1.2881,-1.2881,-1.2881,-1.2881,-1.2881,-1.2881,-1.2236,-1.1814,-1.1814,-1.1616,-1.1266,-1.0813,-1.1015,-1.0771,-0.9814,-0.9614,-0.9263,-0.8804,-0.8804,-0.8804,-0.8804,-0.8804,-0.8804,-0.8804,-0.8804,-0.8804,-0.8804,-0.8804,-0.8804,-0.8804,-0.8804,-0.8804,-0.8804,-0.8804,-0.8804,-0.8804,-0.8804,-0.8804,-0.8804,-0.8804,-0.8804,-0.8804,-0.8804,-0.8646,-0.8374,-0.783,-0.7391,-0.6794,-0.576,-0.5324,-0.5164,-0.5164,-0.4842,-0.4519,-0.4519,-0.4519,-0.4519,-0.4519,-0.4519,-0.4519,-0.4519,-0.4519,-0.4519,-0.4519,-0.4519,-0.4519,-0.4519,-0.4519,-0.4519,-0.4519,-0.4519,-0.4522,-0.4473,-0.3125,-0.1619,-0.0112,-0.0,-0.0,-0.0,-0.0,-0.0,-0.0,-0.0,-0.0,-0.0,-0.0,-0.0,-0.0,-0.0,-0.0,-0.0,-0.0,-0.0,-0.8411,-0.8994,-0.9699,-1.0176,-1.0605,-1.1152,-1.1986,-1.218,-1.2353,-1.2793,-1.2881,-1.2881,-1.2881,-1.2881,-1.2881,-1.2881,-1.2881,-1.2881,-1.2881,-1.2881,-1.2881,-1.2881,-1.2881,-1.2881,-1.2881,-1.2236,-1.1814,-1.1814,-1.1166,-1.0813,-1.0762,-1.0167,-0.9814,-0.9814,-0.9159,-0.8804,-0.8804,-0.8804,-0.8804,-0.8804,-0.8804,-0.8804,-0.8804,-0.8804,-0.8804,-0.8804,-0.8804,-0.8804,-0.8804,-0.8804,-0.8804,-0.8804,-0.8804,-0.8804,-0.8804,-0.8804,-0.8804,-0.8804,-0.8804,-0.8804,-0.8804,-0.8804,-0.8321,-0.7723,-0.767,-0.6686,-0.5487,-0.5487,-0.5003,-0.4519,-0.4519,-0.4519,-0.4519,-0.4519,-0.4519,-0.4519,-0.4519,-0.4519,-0.4519,-0.4519,-0.4519,-0.4519,-0.4519,-0.4519,-0.4519,-0.4519,-0.4519,-0.4519,-0.4519,-0.4519,-0.4525,-0.4494,-0.313,-0.1619,-0.0112,-0.0,-0.0,-0.0,-0.0,-0.0,-0.0,-0.0,-0.0,-0.0,-0.0,-0.0,-0.0,-0.0,-0.0,-0.0,-0.0,-0.0,-0.8411,-0.8994,-0.9699,-1.0176,-1.1064,-1.1859,-1.2122,-1.218,-1.2353,-1.2793,-1.2881,-1.2881,-1.2881,-1.2881,-1.2881,-1.2881,-1.2881,-1.2881,-1.2881,-1.2881,-1.2881,-1.2881,-1.2881,-1.2881,-1.2881,-1.2236,-1.1616,-1.1116,-1.0914,-1.0364,-0.9465,-0.9666,-0.9562,-0.9106,-0.891,-0.8804,-0.8804,-0.8804,-0.8804,-0.8804,-0.8804,-0.8804,-0.8804,-0.8804,-0.8804,-0.8804,-0.8804,-0.8804,-0.8804,-0.8804,-0.8804,-0.8804,-0.8804,-0.8804,-0.8804,-0.8804,-0.8804,-0.8804,-0.8804,-0.8804,-0.8804,-0.8804,-0.8321,-0.7616,-0.7074,-0.6253,-0.5378,-0.4948,-0.468,-0.4519,-0.4519,-0.4519,-0.4519,-0.4519,-0.4519,-0.4519,-0.4519,-0.4519,-0.4519,-0.4519,-0.4519,-0.4519,-0.4519,-0.4519,-0.4519,-0.4519,-0.4519,-0.4519,-0.4519,-0.4525,-0.448,-0.4494,-0.4101,-0.2805,-0.0224,-0.0,-0.0,-0.0,-0.0,-0.0,-0.0,-0.0,-0.0,-0.0,-0.0,-0.0,-0.0,-0.0,-0.0,-0.0,-0.0,-0.0,-0.8828,-0.9375,-1.0029,-1.0645,-1.1387,-1.2051,-1.2412,-1.249,-1.2559,-1.2832,-1.2881,-1.2881,-1.2881,-1.2881,-1.2881,-1.2881,-1.2881,-1.2881,-1.2881,-1.2881,-1.2774,-1.251,-1.2452,-1.2452,-1.2452,-1.1584,-1.0965,-1.0813,-1.032,-0.9666,-0.8857,-0.9159,-0.9211,-0.8804,-0.8804,-0.8804,-0.8804,-0.8804,-0.8804,-0.8804,-0.8804,-0.8804,-0.8804,-0.8804,-0.8804,-0.8804,-0.8804,-0.8804,-0.8804,-0.8804,-0.8804,-0.8804,-0.8804,-0.8804,-0.8804,-0.8804,-0.8804,-0.8804,-0.8804,-0.8593,-0.8374,-0.8374,-0.7664,-0.674,-0.6308,-0.5655,-0.5003,-0.4625,-0.4519,-0.4519,-0.4519,-0.4519,-0.4519,-0.4519,-0.4519,-0.4519,-0.4519,-0.4519,-0.4519,-0.4519,-0.4519,-0.4519,-0.4519,-0.4519,-0.4519,-0.4519,-0.4519,-0.4519,-0.4519,-0.4525,-0.4252,-0.3638,-0.3588,-0.2635,-0.0224,-0.0,-0.0,-0.0,-0.0,-0.0,-0.0,-0.0,-0.0,-0.0,-0.0,-0.0,-0.0,-0.0,-0.0,-0.0,-0.0,-0.0,-0.9437,-0.9922,-1.0528,-1.139,-1.1665,-1.1939,-1.2695,-1.2881,-1.2881,-1.2881,-1.2881,-1.2881,-1.2881,-1.2881,-1.2881,-1.2881,-1.2881,-1.2881,-1.2881,-1.2881,-1.2618,-1.1873,-1.1814,-1.1765,-1.1715,-1.0618,-1.0115,-1.0669,-0.9562,-0.8857,-0.8804,-0.8804,-0.8804,-0.8804,-0.8804,-0.8804,-0.8804,-0.8804,-0.8804,-0.8804,-0.8804,-0.8804,-0.8804,-0.8804,-0.8804,-0.8804,-0.8804,-0.8804,-0.8804,-0.8804,-0.8804,-0.8804,-0.8804,-0.8804,-0.8804,-0.8804,-0.8804,-0.8804,-0.8699,-0.8268,-0.767,-0.7616,-0.6632,-0.5487,-0.5487,-0.5058,-0.4519,-0.4519,-0.4519,-0.4519,-0.4519,-0.4519,-0.4519,-0.4519,-0.4519,-0.4519,-0.4519,-0.4519,-0.4519,-0.4519,-0.4519,-0.4519,-0.4519,-0.4519,-0.4519,-0.4519,-0.4519,-0.4519,-0.4519,-0.4519,-0.3959,-0.2567,-0.2176,-0.1452,-0.0112,-0.0,-0.0,-0.0,-0.0,-0.0,-0.0,-0.0,-0.0,-0.0,-0.0,-0.0,-0.0,-0.0,-0.0,-0.0,-0.0,-0.0,-0.9111,-0.9697,-1.0528,-1.139,-1.2126,-1.2646,-1.2832,-1.2881,-1.2881,-1.2881,-1.2881,-1.2881,-1.2881,-1.2881,-1.2881,-1.2881,-1.2881,-1.2881,-1.2881,-1.2881,-1.2618,-1.1873,-1.1814,-1.1616,-1.1065,-1.0762,-1.0415,-1.0064,-0.9762,-0.9361,-0.8804,-0.8804,-0.8804,-0.8804,-0.8804,-0.8804,-0.8804,-0.8804,-0.8804,0.0,-0.8804,-0.8804,-0.8804,-0.8804,-0.8804,-0.8804,-0.8804,-0.8804,-0.8804,-0.8804,-0.8804,-0.8804,-0.8804,-0.8804,-0.8804,-0.8804,-0.8804,-0.8699,-0.8156,-0.783,-0.7616,-0.702,-0.6253,-0.5487,-0.5487,-0.5058,-0.4519,-0.4519,-0.4519,-0.4519,-0.4519,-0.4519,-0.4519,-0.4519,-0.4519,-0.4519,-0.4519,-0.4519,-0.4519,-0.4519,-0.4519,-0.4519,-0.4519,-0.4519,-0.4519,-0.4519,-0.4519,-0.4519,-0.4519,-0.4525,-0.4366,-0.4036,-0.1899,-0.0335,-0.0,-0.0,-0.0,-0.0,-0.0,-0.0,-0.0,-0.0,-0.0,-0.0,-0.0,-0.0,-0.0,-0.0,-0.0,-0.0,-0.0,-0.0,-0.9248,-0.9932,-1.0791,-1.166,-1.2383,-1.2881,-1.2881,-1.2881,-1.2881,-1.2881,-1.2881,-1.2881,-1.2881,-1.2881,-1.2881,-1.2881,-1.2881,-1.2881,-1.2881,-1.2608,-1.2089,-1.1416,-1.1065,-1.072,-1.0364,-1.0012,-0.9814,-0.9814,-0.951,-0.9159,-0.8804,-0.8804,-0.8804,-0.8804,-0.8804,-0.8804,-0.8804,-0.8804,-0.8804,-0.8804,-0.8804,-0.8804,-0.8804,-0.8804,-0.8804,-0.8804,-0.8804,-0.8804,-0.8804,-0.8804,-0.8804,-0.8804,-0.8804,-0.8804,-0.8804,-0.8804,-0.8804,-0.8699,-0.7937,-0.745,-0.7074,-0.6308,-0.5601,-0.5003,-0.5003,-0.4787,-0.4519,-0.4519,-0.4519,-0.4519,-0.4519,-0.4519,-0.4519,-0.4519,-0.4519,-0.4519,-0.4519,-0.4519,-0.4519,-0.4519,-0.4519,-0.4519,-0.4519,-0.4519,-0.4519,-0.4519,-0.4519,-0.4519,-0.4519,-0.4522,-0.4477,-0.4487,-0.2456,-0.0781,-0.0056,-0.0,-0.0,-0.0,-0.0,-0.0,-0.0,-0.0,-0.0,-0.0,-0.0,-0.0,-0.0,-0.0,-0.0,-0.0,-0.0,-0.0,-0.9316,-1.0146,-1.1123,-1.1957,-1.2559,-1.2881,-1.2881,-1.2881,-1.2881,-1.2881,-1.2881,-1.2881,-1.2881,-1.2881,-1.2881,-1.2715,-1.2822,-1.2881,-1.2715,-1.2295,-1.1665,-1.0914,-1.0312,-0.9865,-0.9666,-0.9113,-0.9008,-0.9562,-0.9106,-0.8804,-0.8804,-0.8804,-0.8804,-0.8804,-0.8804,-0.8804,-0.8804,-0.8804,-0.8804,-0.8804,-0.8804,-0.8804,-0.8804,-0.8804,-0.8804,-0.8804,-0.8804,-0.8804,-0.8804,-0.8804,-0.8804,-0.8804,-0.8804,-0.8804,-0.8804,-0.8804,-0.8804,-0.8699,-0.783,-0.7128,-0.648,-0.5601,-0.4948,-0.4519,-0.4519,-0.4519,-0.4519,-0.4519,-0.4519,-0.4519,-0.4519,-0.4519,-0.4519,-0.4519,-0.4519,-0.4519,-0.4519,-0.4519,-0.4519,-0.4519,-0.4519,-0.4519,-0.4519,-0.4519,-0.4519,-0.4519,-0.4519,-0.4519,-0.4519,-0.4519,-0.4522,-0.4477,-0.335,-0.1896,-0.0167,-0.0,-0.0,-0.0,-0.0,-0.0,-0.0,-0.0,-0.0,-0.0,-0.0,-0.0,-0.0,-0.0,-0.0,-0.0,-0.0,-0.0,-0.8622,-0.9697,-1.1123,-1.1957,-1.2559,-1.2881,-1.2881,-1.2881,-1.2881,-1.2881,-1.2881,-1.2881,-1.2881,-1.2881,-1.2666,-1.203,-1.2501,-1.2666,-1.203,-1.2403,-1.2255,-1.0965,-1.0712,-1.021,-0.9061,-0.8857,-0.8857,-0.891,-0.8857,-0.8804,-0.8804,-0.8804,-0.8804,-0.8804,-0.8804,-0.8804,-0.8804,-0.8804,-0.8804,-0.8804,-0.8804,-0.8804,-0.8804,-0.8804,-0.8804,-0.8804,-0.8804,-0.8804,-0.8804,-0.8804,-0.8804,-0.8804,-0.8804,-0.8804,-0.8804,-0.8804,-0.8804,-0.8586,-0.7235,-0.6696,-0.6372,-0.5062,-0.457,-0.4519,-0.4519,-0.4519,-0.4519,-0.4519,-0.4519,-0.4519,-0.4519,-0.4519,-0.4519,-0.4519,-0.4519,-0.4519,-0.4519,-0.4519,-0.4519,-0.4519,-0.4519,-0.4519,-0.4519,-0.4519,-0.4519,-0.4519,-0.4519,-0.4519,-0.4519,-0.4519,-0.4522,-0.4477,-0.4311,-0.307,-0.0223,-0.0,-0.0,-0.0,-0.0,-0.0,-0.0,-0.0,-0.0,-0.0,-0.0,-0.0,-0.0,-0.0,-0.0,-0.0,-0.0,-0.0,-0.9567,-1.0342,-1.1182,-1.2314,-1.2744,-1.2881,-1.2881,-1.2881,-1.2881,-1.2881,-1.2881,-1.2881,-1.2881,-1.2881,-1.2666,-1.1922,-1.208,-1.203,-1.1316,-1.1183,-1.0931,-1.032,-0.9917,-0.9465,-0.8857,-0.8804,-0.8804,-0.8804,-0.8804,-0.8804,-0.8804,-0.8804,-0.8804,-0.8804,-0.8804,-0.8804,-0.8804,-0.8804,-0.8804,-0.8804,-0.8804,-0.8804,-0.8804,-0.8804,-0.8804,-0.8804,-0.8804,-0.8804,-0.8804,-0.8804,-0.8804,-0.8804,-0.8804,-0.8804,-0.8804,-0.8804,-0.8804,-0.8593,-0.7128,-0.6588,-0.6372,-0.4952,-0.4519,-0.4519,-0.4519,-0.4519,-0.4519,-0.4519,-0.4519,-0.4519,-0.4519,-0.4519,-0.4519,-0.4519,-0.4519,-0.4519,-0.4519,-0.4519,-0.4519,-0.4519,-0.4519,-0.4519,-0.4519,-0.4519,-0.4519,-0.4519,-0.4519,-0.4519,-0.4519,-0.4519,-0.4519,-0.4525,-0.4477,-0.3971,-0.2629,-0.0949,-0.0,-0.0,-0.0,-0.0,-0.0,-0.0,-0.0,-0.0,-0.0,-0.0,-0.0,-0.0,-0.0,-0.0,-0.0,-0.0,-1.0171,-1.0577,-1.0898,-1.2217,-1.2637,-1.2744,-1.2852,-1.2881,-1.2881,-1.2881,-1.2881,-1.2881,-1.2881,-1.2881,-1.2666,-1.1922,-1.1814,-1.1566,-1.0914,-1.0364,-1.0012,-0.9814,-0.9361,-0.9008,-0.8804,-0.8804,-0.8804,-0.8804,-0.8804,-0.8804,-0.8804,-0.8804,-0.8804,-0.8804,-0.8804,-0.8804,-0.8804,-0.8804,-0.8804,-0.8804,-0.8804,-0.8804,-0.8804,-0.8804,-0.8804,-0.8804,-0.8804,-0.8804,-0.8804,-0.8804,-0.8804,-0.8804,-0.8804,-0.8804,-0.8804,-0.8804,-0.8804,-0.8593,-0.7128,-0.6588,-0.6372,-0.4952,-0.4519,-0.4519,-0.4519,-0.4519,-0.4519,-0.4519,-0.4519,-0.4519,-0.4519,-0.4519,-0.4519,-0.4519,-0.4519,-0.4519,-0.4519,-0.4519,-0.4519,-0.4519,-0.4519,-0.4519,-0.4519,-0.4519,-0.4519,-0.4519,-0.4519,-0.4519,-0.4519,-0.4519,-0.4519,-0.4519,-0.4525,-0.448,-0.4494,-0.2066,-0.0391,-0.0,-0.0,-0.0,-0.0,-0.0,-0.0,-0.0,-0.0,-0.0,-0.0,-0.0,-0.0,-0.0,-0.0,-0.0,-0.941,-0.9667,-0.9972,-1.1351,-1.1943,-1.2373,-1.2783,-1.2881,-1.2881,-1.2881,-1.2881,-1.2881,-1.2881,-1.2881,-1.2666,-1.1922,-1.1814,-1.1566,-1.0914,-1.0771,-1.0517,-0.9865,-0.9762,-0.951,-0.8857,-0.8804,-0.8804,-0.8804,-0.8804,-0.8804,-0.8804,-0.8804,-0.8804,-0.8804,-0.8804,-0.8804,-0.8804,-0.8804,-0.8804,-0.8804,-0.8804,-0.8804,-0.8804,-0.8804,-0.8804,-0.8804,-0.8804,-0.8804,-0.8804,-0.8804,-0.8804,-0.8804,-0.8804,-0.8804,-0.8804,-0.8804,-0.8804,-0.8593,-0.7128,-0.6588,-0.6372,-0.4952,-0.4519,-0.4519,-0.4519,-0.4519,-0.4519,-0.4519,-0.4519,-0.4519,-0.4519,-0.4519,-0.4519,-0.4519,-0.4519,-0.4519,-0.4519,-0.4519,-0.4519,-0.4519,-0.4519,-0.4519,-0.4519,-0.4519,-0.4519,-0.4519,-0.4519,-0.4519,-0.4519,-0.4519,-0.4519,-0.4519,-0.4519,-0.4473,-0.4494,-0.3019,-0.1507,-0.0112,-0.0,-0.0,-0.0,-0.0,-0.0,-0.0,-0.0,-0.0,-0.0,-0.0,-0.0,-0.0,-0.0,-0.0,-0.9435,-0.9784,-1.016,-1.0971,-1.1689,-1.2219,-1.2422,-1.2676,-1.2881,-1.2881,-1.2881,-1.2803,-1.252,-1.2695,-1.2666,-1.1922,-1.1466,-1.0914,-1.0261,-0.9762,-0.9413,-0.9211,-0.9159,-0.9061,-0.8804,-0.8804,-0.8804,-0.8804,-0.8804,-0.8804,-0.8804,-0.8804,-0.8804,-0.8804,-0.8804,-0.8804,-0.8804,-0.8804,-0.8804,-0.8804,-0.8804,-0.8804,-0.8804,-0.8804,-0.8804,-0.8804,-0.8804,-0.8804,-0.8804,-0.8804,-0.8804,-0.8804,-0.8804,-0.8804,-0.8804,-0.8804,-0.8804,-0.8593,-0.7128,-0.6588,-0.6372,-0.4952,-0.4519,-0.4519,-0.4519,-0.4519,-0.4519,-0.4519,-0.4519,-0.4519,-0.4519,-0.4519,-0.4519,-0.4519,-0.4519,-0.4519,-0.4519,-0.4519,-0.4519,-0.4519,-0.4519,-0.4519,-0.4519,-0.4519,-0.4519,-0.4519,-0.4519,-0.4519,-0.4519,-0.4519,-0.4519,-0.4519,-0.4519,-0.4525,-0.4484,-0.3072,-0.1562,-0.0112,-0.0,-0.0,-0.0,-0.0,-0.0,-0.0,-0.0,-0.0,-0.0,-0.0,-0.0,-0.0,-0.0,-0.0,-0.9465,-0.9765,-1.0158,-1.0895,-1.14,-1.1851,-1.2314,-1.2559,-1.2705,-1.2852,-1.2764,-1.2617,-1.2471,-1.2568,-1.2503,-1.2031,-1.1184,-1.0481,-1.0202,-0.9361,-0.8804,-0.8804,-0.8804,-0.8804,-0.8804,-0.8804,-0.8804,-0.8804,-0.8804,0.0,-0.8804,-0.8804,-0.8804,-0.8804,-0.8804,-0.8804,-0.8804,-0.8804,-0.8804,-0.8804,-0.8804,-0.8804,-0.8804,-0.8804,-0.8804,-0.8804,-0.8804,-0.8804,-0.8804,-0.8804,-0.8804,-0.8804,-0.8804,-0.8804,-0.8804,-0.8804,-0.8804,-0.8593,-0.7128,-0.6588,-0.6372,-0.4952,-0.4519,-0.4519,-0.4519,-0.4519,-0.4519,-0.4519,-0.4519,-0.4519,-0.4519,-0.4519,-0.4519,-0.4519,-0.4519,-0.4519,-0.4519,-0.4519,-0.4519,-0.4519,-0.4519,-0.4519,-0.4519,-0.4519,-0.4519,-0.4519,-0.4519,-0.4519,-0.4519,-0.4519,-0.4519,-0.4519,-0.4519,-0.4522,-0.4477,-0.3577,-0.2122,-0.0112,-0.0,-0.0,-0.0,-0.0,-0.0,-0.0,-0.0,-0.0,-0.0,-0.0,-0.0,-0.0,-0.0,-0.0,0.0,0.0,0.0,-1.1159,-1.1129,-1.1185,-1.2572,-1.251,-1.2334,-1.2773,-1.2529,-1.2363,-1.2783,-1.252,-1.218,-1.218,-1.1066,-1.0368,-1.0772,-0.9666,-0.8804,-0.8804,-0.8804,-0.8804,-0.8804,-0.8804,-0.8804,-0.8804,-0.8804,-0.8804,-0.8798,-0.8784,-0.8784,-0.8791,-0.8791,-0.8798,-0.8804,-0.8804,-0.8804,-0.8804,-0.8804,-0.8804,-0.8804,-0.8804,-0.8804,-0.8804,-0.8804,-0.8804,-0.8804,-0.8804,-0.8804,-0.8804,-0.8804,-0.8804,-0.8804,-0.8804,-0.8804,-0.8593,-0.7128,-0.6588,-0.6372,-0.4952,-0.4519,-0.4519,-0.4519,-0.4519,-0.4519,-0.4519,-0.4519,-0.4519,-0.4519,-0.4519,-0.4519,-0.4519,-0.4519,-0.4519,-0.4519,-0.4519,-0.4519,-0.4519,-0.4519,-0.4519,-0.4519,-0.4519,-0.4519,-0.4519,-0.4519,-0.4519,-0.4519,-0.4519,-0.4519,-0.4519,-0.4519,-0.4522,-0.4477,-0.449,-0.3249,-0.0279,-0.0,-0.0,-0.0,-0.0,-0.0,-0.0,-0.0,-0.0,-0.0,-0.0,-0.0,-0.0,-0.0,-0.0,-0.96,0.0,0.0,0.0,0.0,0.0,-1.1932,-1.1907,-1.1875,-1.2314,-1.2314,-1.2219,-1.2393,-1.2314,-1.218,-1.218,-1.1345,-1.0656,-1.0797,-0.9666,-0.8804,-0.8804,-0.8804,-0.8804,-0.8804,-0.8804,-0.8804,0.0,-0.8804,-0.8717,-0.8504,-0.829,-0.827,-0.8484,-0.849,-0.8597,-0.8804,-0.8804,-0.8804,-0.8804,-0.8804,-0.8804,-0.8804,-0.8804,-0.8804,-0.8804,-0.8804,-0.8804,-0.8804,-0.8804,-0.8804,-0.8804,-0.8804,-0.8804,-0.8804,-0.8804,-0.8804,-0.8593,-0.7128,-0.6588,-0.6372,-0.4952,-0.4519,-0.4519,-0.4519,-0.4519,-0.4519,-0.4519,-0.4519,-0.4519,-0.4519,-0.4519,-0.4519,-0.4519,-0.4519,-0.4519,-0.4519,-0.4519,-0.4519,-0.4519,-0.4519,-0.4519,-0.4519,-0.4519,-0.4519,-0.4519,-0.4519,-0.4519,-0.4519,-0.4519,-0.4519,-0.4519,-0.4519,-0.4519,-0.4522,-0.4484,-0.3644,-0.1729,-0.0615,-0.0,-0.0,-0.0,-0.0,-0.0,-0.0,-0.0,-0.0,-0.0,-0.0,-0.0,-0.0,-0.0,-1.0089,-1.0602,-1.1279,-1.1156,0.0,0.0,-1.1899,-1.1767,-1.1707,0.0,-1.1807,-1.1752,-1.2112,-1.208,-1.207,-1.2441,-1.1649,-1.0937,-1.0797,-0.9666,-0.8804,-0.8804,-0.8804,-0.8804,-0.8804,-0.8804,-0.8804,-0.8804,-0.8697,-0.8497,-0.8203,-0.8023,-0.807,-0.8414,-0.8427,-0.8517,-0.8804,-0.8804,-0.8804,-0.8804,-0.8804,-0.8804,-0.8804,-0.8804,-0.8804,-0.8804,-0.8804,-0.8804,-0.8804,-0.8804,-0.8804,-0.8804,-0.8804,-0.8804,-0.8804,-0.8804,-0.8804,-0.8593,-0.7128,-0.6588,-0.6372,-0.4952,-0.4519,-0.4519,-0.4519,-0.4519,-0.4519,-0.4519,-0.4519,-0.4519,-0.4519,-0.4519,-0.4519,-0.4519,-0.4519,-0.4519,-0.4519,-0.4519,-0.4519,-0.4519,-0.4519,-0.4519,-0.4519,-0.4519,-0.4519,-0.4519,-0.4519,-0.4519,-0.4519,-0.4519,-0.4519,-0.4519,-0.4519,-0.4519,-0.4519,-0.4484,-0.3866,-0.2287,-0.0839,-0.0,-0.0,-0.0,-0.0,-0.0,-0.0,-0.0,-0.0,-0.0,-0.0,-0.0,-0.0,-0.0,-1.0806,-1.0931,-1.1293,-1.2114,-1.2152,0.0,-1.2259,-1.2004,-1.1715,0.0,-1.1224,-1.1162,-1.2002,-1.1826,-1.1861,-1.2655,-1.1893,-1.1133,-1.0814,-0.9681,-0.8823,-0.8804,-0.8804,-0.8804,-0.8804,-0.8804,-0.8791,-0.8758,-0.8457,-0.8156,-0.7889,-0.7802,-0.7963,-0.8263,-0.8319,-0.843,-0.8758,-0.8758,-0.8778,-0.8804,-0.8804,-0.8804,-0.8804,-0.8804,-0.8804,-0.8804,-0.8804,-0.8804,-0.8804,-0.8804,-0.8804,-0.8804,-0.8804,-0.8804,-0.8804,-0.8804,-0.8804,-0.8586,-0.7182,-0.6696,-0.6372,-0.5062,-0.457,-0.4519,-0.4519,-0.4519,-0.4519,-0.4519,-0.4519,-0.4519,-0.4519,-0.4519,-0.4519,-0.4519,-0.4519,-0.4519,-0.4519,-0.4519,-0.4519,-0.4519,-0.4519,-0.4519,-0.4519,-0.4519,-0.4519,-0.4519,-0.4519,-0.4519,-0.4519,-0.4519,-0.4519,-0.4519,-0.4519,-0.4519,-0.4519,-0.4484,-0.3866,-0.2287,-0.0838,-0.0,-0.0,-0.0,-0.0,-0.0,-0.0,-0.0,-0.0,-0.0,-0.0,-0.0,-0.0,-0.0,-1.1538,-1.2423,-1.327,-1.2572,-1.3022,0.0,-1.2654,-1.2136,-1.1834,0.0,-1.1246,-1.1064,-1.1636,-1.1665,-1.1665,-1.1832,-1.1509,-1.1133,-1.0814,-0.9834,-0.9033,-0.883,-0.8804,-0.8804,-0.8804,-0.8804,-0.8711,-0.8477,-0.8004,-0.7661,-0.7607,-0.7328,-0.7335,-0.7681,-0.7688,-0.795,-0.8457,-0.8457,-0.8577,-0.8804,-0.8804,-0.8804,-0.8804,-0.8804,-0.8804,-0.8804,-0.8804,-0.8804,-0.8804,-0.8804,-0.8804,-0.8804,-0.8804,-0.8804,-0.8804,-0.8804,-0.8804,-0.8699,-0.7777,-0.7074,-0.648,-0.5601,-0.4948,-0.4519,-0.4519,-0.4519,-0.4519,-0.4519,-0.4519,-0.4519,-0.4519,-0.4519,-0.4519,-0.4519,-0.4519,-0.4519,-0.4519,-0.4519,-0.4519,-0.4519,-0.4519,-0.4519,-0.4519,-0.4519,-0.4519,-0.4519,-0.4519,-0.4519,-0.4519,-0.4519,-0.4519,-0.4519,-0.4519,-0.4519,-0.4519,-0.4473,-0.3858,-0.2287,-0.0837,-0.0,-0.0,-0.0,-0.0,-0.0,-0.0,-0.0,-0.0,-0.0,-0.0,-0.0,-0.0,-0.0,-1.214,-1.2605,-1.3267,-1.3267,-1.3444,0.0,0.0,-1.2556,-1.2096,-1.1789,-1.1295,-1.1065,-1.1532,-1.143,-1.1351,-1.1567,-1.128,-1.0967,-1.0703,-1.0008,-0.9438,-0.9295,-0.9008,-0.8804,-0.8804,-0.8804,-0.8691,-0.8397,-0.7956,-0.7629,-0.752,-0.7188,-0.7161,-0.75,-0.7513,-0.7689,-0.815,-0.8303,-0.8444,-0.8597,-0.8738,-0.8804,-0.8804,-0.8804,-0.8804,-0.8804,-0.8804,-0.8804,-0.8804,-0.8804,-0.8804,-0.8804,-0.8804,-0.8804,-0.8804,-0.8804,-0.8804,-0.8699,-0.7937,-0.7456,-0.6961,-0.5869,-0.5273,-0.4948,-0.4625,-0.4519,-0.4519,-0.4519,-0.4519,-0.4519,-0.4519,-0.4519,-0.4519,-0.4519,-0.4519,-0.4519,-0.4519,-0.4519,-0.4519,-0.4519,-0.4519,-0.4519,-0.4519,-0.4519,-0.4519,-0.4519,-0.4519,-0.4519,-0.4519,-0.4519,-0.4519,-0.4519,-0.4519,-0.4519,-0.4519,-0.4473,-0.4141,-0.3413,-0.1228,-0.0,-0.0,-0.0,-0.0,-0.0,-0.0,-0.0,-0.0,-0.0,-0.0,-0.0,-0.0,-0.0,-1.2685,-1.2718,-1.3044,-1.3758,-1.3797,-1.3627,0.0,0.0,0.0,-1.1953,-1.1386,-1.1095,-1.1424,0.0,0.0,-1.1302,0.0,0.0,0.0,-1.025,0.0,-0.9717,-0.9273,-0.8962,-0.8804,-0.8704,-0.8564,-0.839,-0.8043,-0.7756,-0.7569,-0.7275,-0.7214,-0.7506,-0.7453,-0.7528,-0.7836,-0.8076,-0.823,-0.829,-0.8584,-0.8697,-0.8644,-0.8758,-0.8778,-0.8731,-0.8784,-0.8804,-0.8804,-0.8804,-0.8804,-0.8804,-0.8804,-0.8804,-0.8804,-0.8804,-0.8804,-0.8699,-0.8103,-0.783,-0.7503,-0.6303,-0.5814,-0.5542,-0.4732,-0.457,-0.468,-0.4519,-0.4519,-0.4519,-0.4519,-0.4519,-0.4519,-0.4519,-0.4519,-0.4519,-0.4519,-0.4519,-0.4519,-0.4519,-0.4519,-0.4519,-0.4519,-0.4519,-0.4519,-0.4519,-0.4519,-0.4519,-0.4519,-0.4519,-0.4519,-0.4519,-0.4519,-0.4519,-0.4519,-0.4525,-0.448,-0.4494,-0.1955,-0.028,-0.0,-0.0,-0.0,-0.0,-0.0,-0.0,-0.0,-0.0,-0.0,-0.0,-0.0,-0.0,-1.3248,-1.3848,-1.4387,-1.3498,-1.4387,-1.5053,-1.354,0.0,-1.3042,-1.253,0.0,-1.1012,-1.1079,0.0,0.0,0.0,0.0,0.0,-1.0884,-1.0638,-1.0183,-0.9358,-0.9497,-0.9458,-0.8857,-0.8337,-0.8123,-0.8357,-0.7889,-0.7622,-0.7869,-0.7582,-0.7479,-0.7513,-0.7208,-0.7214,-0.756,-0.76,-0.7709,-0.7935,-0.8283,-0.8283,-0.8001,-0.8571,-0.8664,-0.8437,-0.8697,-0.8804,-0.8804,-0.8804,-0.8804,-0.8804,-0.8804,-0.8804,-0.8804,-0.8804,-0.8804,-0.8804,-0.8699,-0.8262,-0.767,-0.7503,-0.702,-0.6204,-0.4897,-0.4897,-0.5273,-0.468,-0.4519,-0.4519,-0.4519,-0.4519,-0.4519,-0.4519,-0.4519,-0.4519,-0.4519,-0.4519,-0.4519,-0.4519,-0.4519,-0.4519,-0.4519,-0.4519,-0.4519,-0.4519,-0.4519,-0.4519,-0.4519,-0.4519,-0.4519,-0.4519,-0.4519,-0.4519,-0.4519,-0.4519,-0.4473,-0.4494,-0.2907,-0.134,-0.0056,-0.0,-0.0,-0.0,-0.0,-0.0,-0.0,-0.0,-0.0,-0.0,-0.0,-0.0,-1.3348,-1.3797,-1.4324,-1.3822,-1.4261,-1.4525,-1.3484,-1.3047,-1.2669,-1.2139,0.0,0.0,0.0,0.0,0.0,0.0,-1.043,0.0,0.0,0.0,-1.0452,-0.9604,0.0,0.0,-0.8588,-0.833,-0.831,-0.8604,-0.807,-0.7869,-0.817,-0.7903,-0.7649,-0.752,-0.7341,-0.7255,-0.7208,-0.7426,-0.7574,-0.7669,-0.7969,-0.8049,-0.7888,-0.8183,-0.833,-0.8383,-0.8504,-0.8651,-0.8804,-0.8804,-0.8804,-0.8804,-0.8804,-0.8804,-0.8804,-0.8804,-0.8804,-0.8804,-0.8804,-0.8593,-0.8268,-0.783,-0.7182,-0.648,-0.5882,-0.5932,-0.6091,-0.5769,-0.5386,-0.5058,-0.5058,-0.4787,-0.4519,-0.4519,-0.4519,-0.4519,-0.4519,-0.4519,-0.4519,-0.4519,-0.4519,-0.4519,-0.4519,-0.4519,-0.4519,-0.4519,-0.4519,-0.4519,-0.4519,-0.4519,-0.4519,-0.4519,-0.4519,-0.4519,-0.4519,-0.4519,-0.4473,-0.4494,-0.2237,-0.0671,-0.0,-0.0,-0.0,-0.0,-0.0,-0.0,-0.0,-0.0,-0.0,-0.0,-0.0,-0.0,-1.3647,-1.3775,-1.4076,-1.3898,0.0,0.0,0.0,0.0,0.0,0.0,0.0,0.0,0.0,0.0,-1.0449,-1.0449,0.0,-1.0283,0.0,-1.0439,0.0,0.0,0.0,0.0,0.0,-0.8176,-0.8283,-0.8657,0.0,-0.8096,-0.847,-0.8399,-0.8092,-0.7602,-0.786,-0.7751,-0.7238,-0.7501,-0.7612,-0.7612,-0.7747,-0.7762,-0.7643,-0.7809,-0.8049,-0.8257,-0.8337,-0.8537,-0.8804,-0.8804,-0.8804,-0.8804,-0.8804,-0.8804,-0.8804,-0.8804,-0.8804,-0.8804,-0.8804,-0.8804,-0.8699,-0.7937,-0.745,-0.7128,-0.6696,-0.675,-0.6858,-0.6642,-0.6199,-0.576,-0.5542,-0.5164,-0.4732,-0.4519,-0.4519,-0.4519,-0.4519,-0.4519,-0.4519,-0.4519,-0.4519,-0.4519,-0.4519,-0.4519,-0.4519,-0.4519,-0.4519,-0.4519,-0.4519,-0.4519,-0.4519,-0.4519,-0.4519,-0.4519,-0.4519,-0.4519,-0.4301,-0.3922,-0.1454,-0.0,-0.0,-0.0,-0.0,-0.0,-0.0,-0.0,-0.0,-0.0,-0.0,-0.0,-0.0,-0.0,0.0,0.0,0.0,-1.3368,0.0,0.0,0.0,0.0,-1.2953,0.0,0.0,0.0,0.0,-1.1257,-1.0889,-1.0889,-1.0547,0.0,0.0,0.0,0.0,0.0,0.0,0.0,0.0,-0.7675,-0.7789,0.0,-0.8103,0.0,-0.8764,-0.9156,-0.888,-0.7923,-0.8781,-0.8784,-0.7878,-0.7885,-0.7893,-0.7893,-0.7649,-0.7328,-0.7032,-0.7616,-0.7888,-0.7915,-0.825,-0.8537,-0.8804,-0.8804,-0.8804,-0.8804,-0.8804,-0.8804,-0.8804,-0.8804,-0.8804,-0.8804,-0.8804,-0.8804,-0.8699,-0.7937,-0.8156,-0.848,-0.702,-0.7074,-0.7509,-0.6804,-0.6588,-0.6421,-0.5706,-0.5483,-0.5324,-0.468,-0.4519,-0.4519,-0.4519,-0.4519,-0.4519,-0.4519,-0.4519,-0.4519,-0.4519,-0.4519,-0.4519,-0.4519,-0.4519,-0.4519,-0.4519,-0.4519,-0.4519,-0.4519,-0.4519,-0.4519,-0.4519,-0.4519,-0.3846,-0.2343,-0.0837,-0.0,-0.0,-0.0,-0.0,-0.0,-0.0,-0.0,-0.0,-0.0,-0.0,-0.0,-0.0,-0.0,0.0,0.0,-1.3865,-1.2973,0.0,0.0,0.0,0.0,0.0,0.0,0.0,0.0,0.0,-1.1229,-1.0908,-1.0908,-1.0557,-1.0186,0.0,0.0,0.0,0.0,-0.83,-0.7887,0.0,0.0,0.0,0.0,-0.8096,0.0,0.0,-0.9364,-0.9303,-0.8443,-0.918,-0.9191,-0.8447,-0.8439,-0.8439,-0.8439,-0.7975,-0.7722,-0.7587,-0.7415,-0.7435,-0.7629,-0.7775,-0.8056,-0.8524,-0.8524,-0.8637,-0.8804,-0.8804,-0.8804,-0.8804,-0.8804,-0.8804,-0.8804,-0.8804,-0.8804,-0.8752,-0.8533,-0.8593,-0.8699,-0.8209,-0.8209,-0.8374,-0.8103,-0.7723,-0.7182,-0.6421,-0.5869,-0.5324,-0.468,-0.4519,-0.4519,-0.4519,-0.4519,-0.4519,-0.4519,-0.4519,-0.4519,-0.4519,-0.4519,-0.4519,-0.4519,-0.4519,-0.4519,-0.4519,-0.4519,-0.4519,-0.4519,-0.4519,-0.4519,-0.4519,-0.4525,-0.4252,-0.3752,-0.1396,-0.0,-0.0,-0.0,-0.0,-0.0,-0.0,-0.0,-0.0,-0.0,-0.0,-0.0,-0.0,-0.0,-1.4135,-1.3963,0.0,-1.2924,-1.313,0.0,-1.2291,0.0,-1.2945,0.0,0.0,0.0,0.0,0.0,-1.1143,-1.1143,-1.0654,-1.0078,0.0,-0.918,0.0,0.0,-0.7994,-0.7921,-0.768,-0.7845,-0.8178,-0.883,-0.8685,0.0,0.0,0.0,-1.0047,-0.9082,-0.9922,-0.9926,-0.9007,-0.8999,-0.8999,-0.8958,-0.8439,-0.8077,-0.787,-0.7489,-0.7403,-0.7513,-0.7513,-0.7856,-0.8427,-0.8427,-0.8544,-0.8804,-0.8804,-0.8804,-0.8804,-0.8804,-0.8804,-0.8804,-0.8804,-0.8804,-0.8804,-0.8804,-0.8804,-0.8804,-0.8804,-0.8804,-0.8804,-0.8804,-0.848,-0.7937,-0.7182,-0.6416,-0.571,-0.5003,-0.468,-0.4519,-0.4519,-0.4519,-0.4519,-0.4519,-0.4519,-0.4519,-0.4519,-0.4519,-0.4519,-0.4519,-0.4519,-0.4519,-0.4519,-0.4519,-0.4519,-0.4519,-0.4519,-0.4519,-0.4519,-0.4525,-0.448,-0.4494,-0.2178,-0.0559,-0.0,-0.0,-0.0,-0.0,-0.0,-0.0,-0.0,-0.0,-0.0,-0.0,-0.0,-0.0]},{"header":{"parameterUnit":"m.s-1","parameterCategory":1,"la1":30.6,"la2":29.2853,"lo1":-89.7004,"lo2":-87.6739,"dy":0.0162,"dx":0.0183,"nx":112,"ny":82,"refTime":"2024-07-27T06:00:00:Z","depth":0,"parameterNumber":3,"parameterNumberName":"V-component_of_WINDS"},"data":[0.0,0.0,0.0,0.0,0.0,0.0,0.0,0.0,0.0,0.0,0.0,0.0,0.0,0.0,0.0,0.0,0.0,0.0,0.0,0.0,0.0,0.0,0.0,0.0,0.0,0.0,0.0,0.0,0.0,0.0,0.0,0.0,0.0,0.0,0.0,0.0,0.0,0.0,0.0,0.0,0.0,0.0,0.0,0.0,0.0,0.0,0.0,0.0,0.0,0.0,0.0,0.0,0.0,0.0,0.0,0.0,0.0,0.0,0.0,0.0,0.0,0.0,0.0,0.0,0.0,0.0,0.0,0.0,0.0,0.0,0.0,0.0,0.0,0.0,0.0,0.0,0.0,0.0,0.0,0.0,0.0,0.0,0.0,0.0,0.0,0.0,0.0,0.0,0.0,0.0,-1.7054,-1.7279,-1.8515,-1.9014,-1.8335,-1.8904,-1.861,-1.7,0.0,0.0,0.0,0.0,0.0,0.0,0.0,0.0,0.0,0.0,0.0,0.0,0.0,0.0,0.0,0.0,0.0,0.0,0.0,0.0,0.0,0.0,0.0,0.0,0.0,0.0,0.0,0.0,0.0,0.0,0.0,0.0,0.0,0.0,0.0,0.0,0.0,0.0,0.0,0.0,0.0,0.0,0.0,0.0,0.0,0.0,0.0,0.0,0.0,0.0,0.0,0.0,0.0,0.0,0.0,0.0,0.0,0.0,0.0,0.0,0.0,0.0,0.0,0.0,0.0,0.0,0.0,0.0,0.0,0.0,0.0,0.0,0.0,0.0,0.0,0.0,0.0,0.0,0.0,0.0,0.0,0.0,0.0,0.0,0.0,0.0,0.0,0.0,0.0,0.0,0.0,0.0,0.0,0.0,0.0,0.0,0.0,0.0,0.0,0.0,0.0,0.0,0.0,0.0,-1.7684,-1.9035,-1.9265,-1.9234,-1.9124,-1.9216,-1.861,-1.7,0.0,0.0,0.0,0.0,0.0,0.0,0.0,0.0,0.0,0.0,0.0,0.0,0.0,0.0,0.0,0.0,0.0,0.0,0.0,0.0,0.0,0.0,0.0,0.0,0.0,0.0,0.0,0.0,0.0,0.0,0.0,0.0,0.0,0.0,0.0,0.0,0.0,0.0,0.0,0.0,0.0,0.0,0.0,0.0,0.0,0.0,0.0,0.0,0.0,0.0,0.0,0.0,0.0,0.0,0.0,0.0,0.0,0.0,0.0,0.0,0.0,0.0,0.0,0.0,0.0,0.0,0.0,0.0,0.0,0.0,0.0,0.0,0.0,0.0,0.0,0.0,0.0,0.0,0.0,0.0,0.0,0.0,0.0,0.0,0.0,0.0,0.0,0.0,0.0,0.0,0.0,0.0,0.0,0.0,0.0,0.0,0.0,0.0,0.0,0.0,0.0,0.0,0.0,-1.691,-1.7701,-1.9415,-1.9513,-1.9427,-1.9305,-1.9476,-1.8817,-1.7014,-1.5808,0.0,0.0,0.0,0.0,0.0,0.0,0.0,0.0,0.0,0.0,0.0,0.0,0.0,0.0,0.0,0.0,0.0,0.0,0.0,0.0,0.0,0.0,0.0,0.0,0.0,0.0,0.0,0.0,0.0,0.0,0.0,0.0,0.0,0.0,0.0,0.0,0.0,0.0,0.0,0.0,0.0,0.0,0.0,0.0,0.0,0.0,0.0,0.0,0.0,0.0,0.0,0.0,0.0,0.0,0.0,0.0,0.0,0.0,0.0,0.0,0.0,0.0,0.0,0.0,0.0,0.0,0.0,0.0,0.0,0.0,0.0,0.0,0.0,0.0,0.0,0.0,0.0,0.0,0.0,0.0,0.0,0.0,0.0,0.0,0.0,0.0,0.0,0.0,0.0,0.0,0.0,0.0,0.0,0.0,0.0,0.0,0.0,0.0,0.0,0.0,0.0,0.0,-1.7781,-1.8061,-1.9452,-1.9555,-1.9471,-1.9305,-1.9399,-1.8733,-1.7062,-1.5365,0.0,0.0,0.0,0.0,0.0,0.0,0.0,0.0,0.0,0.0,0.0,0.0,0.0,0.0,0.0,0.0,0.0,0.0,0.0,0.0,0.0,0.0,0.0,0.0,0.0,0.0,0.0,0.0,0.0,0.0,0.0,0.0,0.0,0.0,0.0,0.0,0.0,0.0,0.0,0.0,0.0,0.0,0.0,0.0,0.0,0.0,0.0,0.0,0.0,0.0,0.0,0.0,0.0,0.0,0.0,0.0,0.0,0.0,0.0,0.0,0.0,0.0,0.0,0.0,0.0,0.0,0.0,0.0,0.0,0.0,0.0,0.0,0.0,0.0,0.0,0.0,0.0,0.0,0.0,0.0,0.0,0.0,0.0,0.0,0.0,0.0,0.0,0.0,0.0,0.0,0.0,0.0,0.0,0.0,0.0,0.0,0.0,0.0,0.0,0.0,0.0,0.0,-1.8534,-1.9471,-1.9596,-1.9423,-1.932,-1.9305,-1.8749,-1.8025,-1.7145,-1.4953,0.0,0.0,0.0,0.0,0.0,0.0,0.0,0.0,0.0,0.0,0.0,0.0,0.0,0.0,0.0,0.0,0.0,0.0,0.0,0.0,0.0,0.0,0.0,0.0,0.0,0.0,0.0,0.0,0.0,0.0,0.0,0.0,0.0,0.0,0.0,0.0,0.0,0.0,0.0,0.0,0.0,0.0,0.0,0.0,0.0,0.0,0.0,0.0,0.0,0.0,0.0,0.0,0.0,0.0,0.0,0.0,0.0,0.0,0.0,0.0,0.0,0.0,0.0,0.0,0.0,0.0,0.0,0.0,0.0,0.0,0.0,0.0,0.0,0.0,0.0,0.0,0.0,0.0,0.0,0.0,0.0,0.0,0.0,0.0,0.0,0.0,0.0,0.0,0.0,0.0,0.0,0.0,0.0,0.0,0.0,0.0,0.0,0.0,0.0,0.0,0.0,0.0,-1.7749,-1.8515,-1.9711,-1.9225,-1.8815,-1.8815,-1.8264,-1.7283,-1.5768,0.0,0.0,0.0,0.0,0.0,0.0,0.0,0.0,0.0,0.0,0.0,0.0,0.0,0.0,0.0,0.0,0.0,0.0,0.0,0.0,0.0,0.0,0.0,0.0,0.0,0.0,0.0,0.0,0.0,0.0,0.0,0.0,0.0,0.0,0.0,0.0,0.0,0.0,0.0,0.0,0.0,0.0,0.0,0.0,0.0,0.0,0.0,0.0,0.0,0.0,0.0,0.0,0.0,0.0,0.0,0.0,0.0,0.0,0.0,0.0,0.0,0.0,0.0,0.0,0.0,0.0,0.0,0.0,0.0,0.0,0.0,0.0,0.0,0.0,0.0,0.0,0.0,0.0,0.0,0.0,0.0,0.0,0.0,0.0,0.0,0.0,0.0,0.0,0.0,0.0,0.0,0.0,0.0,0.0,0.0,0.0,0.0,0.0,0.0,0.0,0.0,0.0,-1.6573,-1.7096,-1.7678,-1.8888,-1.8478,-1.8102,-1.805,-1.7546,-1.6544,-1.4959,0.0,0.0,0.0,0.0,0.0,0.0,0.0,0.0,0.0,0.0,0.0,0.0,0.0,0.0,0.0,0.0,0.0,0.0,0.0,0.0,0.0,0.0,0.0,0.0,0.0,0.0,0.0,0.0,0.0,0.0,0.0,0.0,0.0,0.0,0.0,0.0,0.0,0.0,0.0,0.0,0.0,0.0,0.0,0.0,0.0,0.0,0.0,0.0,0.0,0.0,0.0,0.0,0.0,0.0,0.0,0.0,0.0,0.0,0.0,0.0,0.0,0.0,0.0,0.0,0.0,0.0,0.0,0.0,0.0,0.0,0.0,0.0,0.0,0.0,0.0,0.0,0.0,0.0,0.0,0.0,0.0,0.0,0.0,0.0,0.0,0.0,0.0,0.0,0.0,0.0,0.0,0.0,0.0,0.0,0.0,0.0,0.0,0.0,0.0,0.0,0.0,0.0,-1.5732,-1.6819,-1.7339,-1.6956,-1.7137,-1.7221,-1.7107,-1.6545,-1.5844,0.0,0.0,0.0,0.0,0.0,0.0,0.0,0.0,0.0,0.0,0.0,0.0,0.0,0.0,0.0,0.0,0.0,0.0,0.0,0.0,0.0,0.0,0.0,0.0,0.0,0.0,0.0,0.0,0.0,0.0,0.0,0.0,0.0,0.0,0.0,0.0,0.0,0.0,0.0,0.0,0.0,0.0,0.0,0.0,0.0,0.0,0.0,0.0,0.0,0.0,0.0,0.0,0.0,0.0,0.0,0.0,0.0,0.0,0.0,0.0,0.0,0.0,0.0,0.0,0.0,0.0,0.0,0.0,0.0,0.0,0.0,0.0,0.0,0.0,0.0,0.0,0.0,0.0,0.0,0.0,0.0,0.0,0.0,0.0,0.0,0.0,0.0,0.0,0.0,0.0,0.0,0.0,0.0,0.0,0.0,0.0,0.0,0.0,0.0,0.0,0.0,0.0,0.0,-1.6533,-1.6597,-1.6851,-1.8113,-1.7177,-1.6517,-1.6658,-1.5955,-1.4897,-1.3465,0.0,0.0,0.0,0.0,0.0,0.0,0.0,0.0,0.0,0.0,0.0,0.0,0.0,0.0,0.0,0.0,0.0,0.0,0.0,0.0,0.0,0.0,0.0,0.0,0.0,0.0,0.0,0.0,0.0,0.0,0.0,0.0,0.0,0.0,0.0,0.0,0.0,0.0,0.0,0.0,0.0,0.0,0.0,0.0,0.0,0.0,0.0,0.0,0.0,0.0,0.0,0.0,0.0,0.0,0.0,0.0,0.0,0.0,0.0,0.0,0.0,0.0,0.0,0.0,0.0,0.0,0.0,0.0,0.0,0.0,0.0,0.0,0.0,0.0,0.0,0.0,0.0,0.0,0.0,0.0,0.0,0.0,0.0,0.0,0.0,0.0,0.0,0.0,0.0,0.0,0.0,0.0,0.0,0.0,0.0,0.0,0.0,0.0,0.0,0.0,0.0,0.0,-1.6489,-1.6334,-1.6417,-1.7519,-1.6441,-1.5741,-1.5887,-1.5466,-1.4618,-1.3253,0.0,0.0,0.0,0.0,0.0,0.0,0.0,0.0,0.0,0.0,0.0,0.0,0.0,0.0,0.0,0.0,0.0,0.0,0.0,0.0,0.0,0.0,0.0,0.0,0.0,0.0,0.0,0.0,0.0,0.0,0.0,0.0,0.0,0.0,0.0,0.0,0.0,0.0,0.0,0.0,0.0,0.0,0.0,0.0,0.0,0.0,0.0,0.0,0.0,0.0,0.0,0.0,0.0,0.0,0.0,0.0,0.0,0.0,0.0,0.0,0.0,0.0,0.0,0.0,0.0,0.0,0.0,0.0,0.0,0.0,0.0,0.0,0.0,0.0,0.0,0.0,0.0,0.0,0.0,0.0,0.0,0.0,0.0,0.0,0.0,0.0,0.0,0.0,0.0,0.0,0.0,0.0,0.0,0.0,0.0,0.0,0.0,0.0,0.0,0.0,0.0,0.0,-1.5998,-1.6205,-1.6194,-1.6164,-1.5543,-1.5128,-1.5143,-1.5172,-1.4824,-1.3959,0.0,0.0,0.0,0.0,0.0,0.0,0.0,0.0,0.0,0.0,0.0,0.0,0.0,0.0,0.0,0.0,0.0,0.0,0.0,0.0,0.0,0.0,0.0,0.0,0.0,0.0,0.0,0.0,0.0,0.0,0.0,0.0,0.0,0.0,0.0,0.0,0.0,0.0,0.0,0.0,0.0,0.0,0.0,0.0,0.0,0.0,0.0,0.0,0.0,0.0,0.0,0.0,0.0,0.0,0.0,0.0,0.0,0.0,0.0,0.0,-1.4885,0.0,0.0,0.0,0.0,0.0,0.0,0.0,0.0,0.0,0.0,0.0,0.0,0.0,0.0,0.0,0.0,0.0,0.0,0.0,0.0,0.0,0.0,0.0,0.0,0.0,0.0,0.0,0.0,0.0,0.0,0.0,0.0,0.0,0.0,0.0,0.0,0.0,0.0,0.0,0.0,0.0,-1.6883,-1.7062,-1.7283,-1.8099,-1.6889,-1.6074,-1.6163,-1.5587,-1.4824,-1.3959,-1.3137,0.0,0.0,0.0,0.0,0.0,0.0,0.0,0.0,0.0,0.0,0.0,0.0,0.0,0.0,0.0,0.0,0.0,0.0,0.0,0.0,0.0,0.0,0.0,0.0,0.0,0.0,0.0,0.0,0.0,0.0,0.0,0.0,0.0,0.0,0.0,0.0,0.0,0.0,0.0,0.0,0.0,0.0,0.0,0.0,0.0,0.0,0.0,0.0,0.0,0.0,0.0,0.0,0.0,0.0,0.0,0.0,0.0,0.0,0.0,0.0,-1.6101,0.0,0.0,0.0,0.0,0.0,0.0,0.0,0.0,0.0,0.0,0.0,0.0,0.0,0.0,0.0,0.0,0.0,0.0,0.0,0.0,0.0,0.0,0.0,0.0,0.0,0.0,0.0,0.0,0.0,0.0,0.0,0.0,0.0,0.0,0.0,0.0,0.0,0.0,0.0,0.0,-1.728,-1.7717,-1.81,-1.8736,-1.7295,-1.6349,-1.6497,-1.5695,-1.5016,-1.4555,-1.3733,0.0,0.0,0.0,0.0,0.0,0.0,0.0,0.0,0.0,0.0,0.0,0.0,0.0,0.0,0.0,0.0,0.0,0.0,0.0,0.0,0.0,0.0,0.0,0.0,0.0,0.0,0.0,0.0,0.0,0.0,0.0,0.0,0.0,0.0,0.0,0.0,0.0,0.0,0.0,0.0,0.0,0.0,0.0,0.0,0.0,0.0,0.0,0.0,0.0,0.0,0.0,0.0,0.0,-1.8665,-1.9087,-1.9709,-1.9051,-1.9473,-2.0629,-1.8614,-1.8027,-1.8463,-1.7495,0.0,0.0,0.0,0.0,0.0,0.0,0.0,0.0,0.0,0.0,0.0,0.0,0.0,0.0,0.0,0.0,0.0,0.0,0.0,0.0,0.0,0.0,0.0,0.0,-1.8703,-1.903,-1.8311,0.0,0.0,0.0,0.0,0.0,0.0,0.0,0.0,0.0,0.0,0.0,-1.7628,-1.8403,-1.8896,-1.9048,-1.7691,-1.6747,-1.6708,-1.5926,-1.5368,-1.5209,-1.4382,-1.3896,0.0,0.0,0.0,0.0,0.0,0.0,0.0,0.0,0.0,0.0,0.0,0.0,0.0,0.0,0.0,0.0,0.0,0.0,0.0,0.0,0.0,0.0,0.0,0.0,0.0,0.0,0.0,0.0,0.0,0.0,0.0,0.0,-1.2076,-1.2894,0.0,0.0,0.0,0.0,0.0,0.0,0.0,0.0,0.0,0.0,0.0,0.0,0.0,-1.8977,-1.8977,-1.9785,-2.0173,-2.0191,-2.0941,-2.138,-2.1472,-2.1362,-2.1435,-2.1602,-2.129,0.0,-2.0063,-1.8574,0.0,0.0,0.0,0.0,0.0,0.0,0.0,0.0,0.0,0.0,0.0,0.0,0.0,0.0,0.0,0.0,0.0,0.0,0.0,0.0,0.0,0.0,-2.0812,-2.0119,-2.0062,-2.01,0.0,-1.8677,-1.7292,-1.6484,-1.6234,0.0,0.0,0.0,0.0,0.0,0.0,0.0,-1.857,-1.939,-1.9898,-2.0088,-1.9231,-1.8335,-1.76,-1.6792,-1.6003,-1.5247,-1.4382,-1.3896,-1.3896,-1.3022,0.0,0.0,0.0,0.0,0.0,0.0,0.0,0.0,0.0,0.0,0.0,0.0,0.0,0.0,0.0,0.0,0.0,0.0,0.0,0.0,0.0,0.0,0.0,0.0,0.0,0.0,0.0,0.0,0.0,-1.2121,-1.3581,-1.393,-1.4774,-1.5472,0.0,0.0,0.0,0.0,0.0,0.0,0.0,0.0,0.0,-1.9439,-2.0262,-2.0719,-2.0719,-2.151,-2.1896,-2.1915,-2.2758,-2.3144,-2.3144,-2.3144,-2.3144,-2.3107,-2.2666,-2.2263,-2.1805,-2.0666,-2.017,-2.015,0.0,0.0,0.0,0.0,-2.0539,-2.0785,-2.1305,-2.129,-2.0982,-2.0554,0.0,0.0,0.0,0.0,0.0,0.0,0.0,0.0,0.0,0.0,-2.1135,-2.0781,-2.0354,-2.0041,-2.0125,-1.9477,-1.8696,0.0,-1.7914,-1.7626,-1.6753,0.0,0.0,0.0,0.0,-1.8068,-1.8888,-1.9676,-2.0197,-2.0285,-1.9523,-1.885,-1.8465,-1.7234,-1.633,-1.5945,-1.5112,-1.4632,-1.4632,-1.3824,-1.3368,0.0,0.0,0.0,0.0,0.0,0.0,0.0,0.0,0.0,0.0,0.0,0.0,0.0,0.0,0.0,0.0,0.0,0.0,0.0,0.0,0.0,0.0,0.0,0.0,0.0,0.0,0.0,0.0,-1.3288,-1.4867,-1.5275,-1.6625,-1.7513,0.0,0.0,0.0,0.0,0.0,0.0,-1.9911,-2.0703,-2.1126,-2.1126,-2.1969,-2.2409,-2.2409,-2.3015,-2.3309,-2.3309,-2.3914,-2.419,-2.419,-2.419,-2.419,-2.4171,-2.3566,-2.3309,-2.3235,-2.2208,-2.1803,-2.1803,-2.1916,-2.1977,-2.2039,-2.236,-2.2621,-2.2928,-2.3587,-2.3513,-2.3024,-2.237,-2.2177,-2.1889,-2.0416,0.0,0.0,0.0,0.0,-2.1921,-2.252,-2.2242,-2.1684,-2.1218,-2.0679,-2.0199,-2.0088,-2.0002,-1.9811,0.0,-1.9296,-1.9077,-1.8465,0.0,0.0,0.0,-1.8866,-1.9281,-1.9331,-1.9908,-2.0312,-2.0312,-1.9715,-1.9234,-1.9023,-1.7869,-1.7042,-1.6811,-1.6195,-1.5849,-1.5849,-1.5016,-1.4574,-1.4574,0.0,0.0,0.0,0.0,0.0,0.0,0.0,0.0,0.0,0.0,0.0,0.0,0.0,0.0,0.0,0.0,0.0,0.0,0.0,0.0,0.0,0.0,0.0,0.0,0.0,0.0,0.0,0.0,0.0,-1.7359,-1.8507,0.0,0.0,0.0,0.0,-2.0374,-2.1143,-2.1637,-2.1674,-2.2446,-2.2868,-2.2868,-2.3657,-2.408,-2.408,-2.4116,-2.4135,-2.4135,-2.4171,-2.419,-2.419,-2.419,-2.419,-2.419,-2.4153,-2.4135,-2.4025,-2.2464,-2.1803,-2.1803,-2.1803,-2.1898,-2.2103,-2.2943,-2.3455,-2.3736,-2.3778,-2.3896,-2.4033,-2.3975,-2.3975,-2.3802,-2.2898,-2.2639,0.0,0.0,-2.3957,-2.3957,-2.3995,-2.3976,-2.3534,-2.1872,-2.1449,-2.1218,-2.0458,-2.0277,-2.0277,0.0,-2.0075,-2.0002,-2.0142,0.0,-1.9955,-2.0134,-2.004,-2.0012,-2.0219,-2.0273,-2.0312,-2.0312,-2.0254,-1.9908,-1.9069,-1.8915,-1.853,-1.7702,-1.76,-1.7561,-1.7561,-1.6792,-1.6369,-1.6369,-1.4651,0.0,0.0,0.0,0.0,0.0,0.0,0.0,0.0,0.0,0.0,0.0,0.0,0.0,0.0,0.0,0.0,0.0,0.0,0.0,0.0,0.0,0.0,0.0,0.0,0.0,0.0,0.0,0.0,-1.9381,-2.0323,0.0,-2.0921,-2.1161,-2.1547,-2.2061,-2.2409,-2.2795,-2.3309,-2.3621,-2.3768,-2.3768,-2.4043,-2.419,-2.419,-2.419,-2.419,-2.419,-2.419,-2.419,-2.419,-2.419,-2.419,-2.419,-2.419,-2.419,-2.4153,-2.3584,-2.3327,-2.3327,-2.3327,-2.3364,-2.3471,-2.3905,-2.4219,-2.4473,-2.4536,-2.47,-2.487,-2.487,-2.4524,-2.4149,-2.4351,-2.4312,-2.4255,-2.4486,-2.4556,-2.4531,-2.4393,-2.3968,-2.3439,-2.2822,-2.2218,-2.1783,-2.162,-2.1597,-2.1642,-2.1863,-2.1402,-2.1174,-2.1803,-2.1845,-2.1836,-2.19,-2.1845,-2.1625,-2.1131,-2.1081,-2.0869,-2.0369,-2.0312,-2.0177,-1.985,-1.9319,-1.8876,-1.8561,-1.8003,-1.7702,-1.7702,-1.6926,-1.6503,-1.6503,-1.4786,-1.3497,0.0,0.0,0.0,0.0,0.0,0.0,0.0,0.0,0.0,0.0,0.0,0.0,0.0,0.0,0.0,0.0,0.0,0.0,0.0,0.0,0.0,0.0,0.0,0.0,0.0,-1.8154,-1.9925,-2.0712,-2.1641,-2.2189,-2.2189,-2.2446,-2.2832,-2.3364,-2.34,-2.3639,-2.4171,-2.419,-2.419,-2.419,-2.419,-2.419,-2.419,-2.419,-2.419,-2.419,-2.419,-2.419,-2.419,-2.419,-2.419,-2.419,-2.419,-2.419,-2.419,-2.419,-2.419,-2.419,-2.419,-2.4247,-2.4321,-2.4444,-2.4623,-2.4832,-2.4949,-2.5088,-2.5203,-2.5203,-2.4869,-2.4591,-2.507,-2.5152,-2.5065,-2.4904,-2.4883,-2.4828,-2.4654,-2.4214,-2.3727,-2.345,-2.2926,-2.2464,-2.2297,-2.2319,-2.2517,-2.3045,-2.2441,-2.2076,-2.2697,-2.2987,-2.3055,-2.2831,-2.2987,-2.2844,-2.2034,-2.1947,-2.1735,-2.1196,-2.0889,-2.0696,-2.0696,-1.9927,-1.9446,-1.9439,-1.8907,-1.8581,-1.8581,-1.7503,-1.6907,-1.6907,-1.5209,-1.4209,-1.3989,0.0,0.0,0.0,0.0,0.0,0.0,0.0,0.0,0.0,0.0,0.0,0.0,0.0,0.0,0.0,0.0,0.0,0.0,0.0,0.0,0.0,0.0,0.0,-1.7681,-1.9253,-2.0662,-2.1405,-2.2392,-2.3052,-2.3052,-2.3749,-2.419,-2.419,-2.419,-2.419,-2.419,-2.419,-2.419,-2.419,-2.419,-2.419,-2.419,-2.419,-2.419,-2.419,-2.419,-2.419,-2.419,-2.419,-2.419,-2.419,-2.419,-2.419,-2.419,-2.419,-2.419,-2.419,-2.419,-2.4321,-2.4495,-2.4495,-2.4623,-2.4832,-2.4949,-2.4979,-2.4979,-2.4979,-2.5141,-2.5253,-2.5046,-2.5141,-2.5253,-2.5046,-2.4979,-2.4962,-2.4828,-2.479,-2.4582,-2.3724,-2.3535,-2.3295,-2.244,-2.2445,-2.2821,-2.3671,-2.3206,-2.2707,-2.2852,-2.3417,-2.3643,-2.2987,-2.3437,0.0,-2.2938,-2.2831,-2.2831,-2.2793,-2.2043,-2.1523,-2.1504,-2.0792,-2.0331,-2.0312,-2.0312,-2.0312,-2.0312,-1.8657,-1.7741,-1.7702,-1.608,-1.5657,-1.6503,0.0,0.0,0.0,0.0,0.0,0.0,0.0,0.0,0.0,0.0,0.0,0.0,0.0,0.0,0.0,0.0,0.0,0.0,0.0,0.0,0.0,-1.7821,-1.9489,-1.9307,-2.0989,-2.2557,-2.3344,-2.3693,-2.3878,-2.3878,-2.4061,-2.419,-2.419,-2.419,-2.419,-2.419,-2.419,-2.419,-2.419,-2.419,-2.419,-2.419,-2.419,-2.419,-2.419,-2.419,-2.419,-2.419,-2.419,-2.419,-2.419,-2.419,-2.419,-2.419,-2.419,-2.419,-2.419,-2.419,-2.4228,-2.4303,-2.4462,-2.4623,-2.4804,-2.4842,-2.4855,-2.4855,-2.4855,-2.4956,-2.5077,-2.5022,-2.5034,-2.5053,-2.491,-2.4855,-2.4814,-2.4639,-2.4575,-2.4519,-2.4279,-2.4222,-2.4166,-2.3908,-2.402,-2.4236,-2.4477,-2.4344,-2.4284,-2.4562,-2.4783,-2.4821,-2.4649,-2.4773,0.0,-2.3832,-2.3744,-2.3494,-2.287,-2.2581,-2.2197,-2.1543,-2.1293,-2.0927,-2.035,-2.0312,-2.0312,-2.0312,-1.9234,-1.8357,-1.7722,-1.6676,-1.6253,0.0,0.0,0.0,0.0,0.0,0.0,0.0,0.0,0.0,0.0,0.0,0.0,0.0,0.0,0.0,0.0,0.0,0.0,0.0,0.0,0.0,0.0,-1.9378,-2.1051,-2.1032,-2.2463,-2.3676,-2.4135,-2.419,-2.419,-2.419,-2.419,-2.419,-2.419,-2.419,-2.419,-2.419,-2.419,-2.419,-2.419,-2.419,-2.419,-2.419,-2.419,-2.419,-2.419,-2.419,-2.419,-2.419,-2.419,-2.419,-2.419,-2.419,-2.419,-2.419,-2.419,-2.419,0.0,0.0,0.0,0.0,0.0,-2.4444,-2.4559,-2.4639,-2.467,-2.467,-2.467,-2.4766,-2.4904,-2.4818,-2.4845,-2.4891,-2.4712,-2.467,-2.4623,-2.4428,-2.4375,-2.4375,-2.4375,-2.4375,-2.4375,-2.4375,-2.4545,-2.47,-2.479,-2.4842,0.0,-2.5253,-2.5224,-2.5203,-2.5303,-2.5303,-2.5139,-2.4659,-2.4601,-2.4409,-2.3908,-2.3543,-2.3148,-2.262,-2.1927,0.0,0.0,0.0,-2.0139,-1.9773,-1.928,0.0,0.0,0.0,0.0,0.0,0.0,0.0,0.0,-1.7684,-1.7568,0.0,0.0,0.0,0.0,0.0,0.0,0.0,0.0,0.0,0.0,0.0,0.0,0.0,0.0,0.0,0.0,-2.0573,-2.2285,-2.2666,-2.3578,-2.419,-2.419,-2.419,-2.419,-2.419,-2.419,-2.419,-2.419,-2.419,-2.419,-2.419,0.0,0.0,0.0,0.0,-2.419,-2.419,-2.419,-2.419,-2.419,-2.419,-2.419,-2.419,-2.419,-2.419,-2.419,-2.419,-2.419,-2.419,-2.419,-2.419,-2.419,-2.419,-2.4209,-2.4228,-2.4228,-2.4247,-2.4284,-2.4478,0.0,0.0,-2.4526,-2.4654,-2.4775,-2.4575,-2.4639,-2.4731,-2.4561,-2.4478,-2.4428,-2.4247,-2.419,-2.419,-2.419,-2.419,-2.419,-2.419,-2.4357,-2.4543,-2.4731,-2.4877,-2.5041,-2.5224,-2.5141,-2.5099,-2.5274,-2.5303,-2.5303,-2.5303,-2.5303,-2.5303,-2.5303,0.0,0.0,-2.411,-2.2677,-2.1754,-2.1658,-2.0985,-2.0235,-1.9453,-1.9434,-1.9434,-1.9434,-1.9434,-1.9819,-2.0581,-2.06,-2.0977,-2.1669,-1.8542,-1.833,0.0,0.0,0.0,0.0,0.0,0.0,0.0,0.0,0.0,0.0,0.0,0.0,0.0,0.0,0.0,-1.9864,-2.1387,-2.2674,-2.3386,-2.3905,-2.419,-2.419,-2.419,-2.419,-2.419,-2.419,-2.419,-2.419,-2.419,-2.419,-2.419,-2.419,-2.419,-2.419,-2.419,-2.419,-2.419,-2.419,-2.419,-2.419,0.0,0.0,-2.419,-2.419,-2.419,-2.419,-2.419,-2.419,-2.419,-2.419,-2.419,-2.419,-2.419,-2.4303,-2.4426,-2.4426,-2.4526,-2.4685,-2.4731,-2.4746,-2.4746,-2.4746,-2.4775,-2.479,-2.476,-2.4654,0.0,-2.4512,-2.4375,-2.4247,-2.4209,-2.419,-2.419,-2.419,-2.419,-2.419,-2.419,-2.4357,-2.4512,-2.4561,-2.4697,-2.4896,-2.5022,-2.5163,-2.5264,-2.5284,-2.5303,-2.5303,-2.5303,-2.5303,-2.5303,-2.5303,-2.5149,-2.4812,-2.4168,-2.3783,-2.3302,-2.2581,-2.2389,-2.2235,-2.207,-2.207,-2.207,-2.207,-2.207,-2.2139,-2.2312,-2.2367,-2.2483,-2.2618,-2.1185,-2.1177,0.0,0.0,0.0,0.0,0.0,0.0,0.0,0.0,0.0,0.0,0.0,-1.639,-1.7101,0.0,-2.0216,-2.1148,-2.2171,-2.3095,-2.3842,-2.3937,-2.4016,-2.417,-2.419,-2.419,-2.419,-2.419,-2.419,-2.419,-2.419,-2.419,-2.419,-2.419,-2.419,-2.419,-2.419,-2.419,-2.419,-2.419,-2.419,-2.419,-2.419,-2.419,-2.419,-2.419,-2.419,-2.419,-2.419,-2.419,-2.419,-2.419,-2.419,-2.419,-2.419,-2.4247,-2.4339,-2.4339,-2.4478,-2.4654,-2.4654,-2.4716,-2.4804,-2.4804,-2.4804,-2.4775,-2.4685,-2.4654,-2.4607,-2.441,-2.4339,-2.4339,-2.4228,-2.419,-2.419,-2.419,-2.419,-2.4228,-2.4339,-2.4445,-2.4543,-2.4723,-2.4836,-2.4956,-2.513,-2.5224,-2.5303,-2.5303,-2.5303,-2.5303,-2.5303,-2.5303,-2.5303,-2.5303,-2.5303,-2.5139,-2.4736,-2.4341,-2.3725,-2.2851,-2.2793,-2.2793,-2.2793,-2.2793,-2.2793,-2.2793,-2.2793,-2.2812,-2.2861,-2.2859,-2.309,-2.3534,-2.3062,-2.309,0.0,0.0,0.0,0.0,0.0,0.0,0.0,-1.5781,-1.5561,-1.6306,-1.7405,-1.8285,-1.8512,-2.0216,-2.176,-2.2228,-2.2868,-2.35,-2.4016,-2.3917,-2.3896,-2.417,-2.419,-2.419,-2.419,-2.419,-2.419,-2.419,-2.419,-2.419,-2.419,-2.419,-2.419,-2.419,-2.419,-2.419,-2.419,-2.419,-2.419,-2.419,-2.419,-2.419,-2.419,-2.419,-2.419,-2.419,-2.419,-2.419,-2.419,-2.419,-2.419,-2.419,-2.419,-2.419,-2.419,-2.4247,-2.4393,-2.4561,-2.4561,-2.467,-2.4804,-2.4804,-2.4804,-2.4775,-2.4607,-2.4639,-2.467,-2.4339,-2.4358,-2.441,-2.4247,-2.419,-2.419,-2.419,-2.419,-2.4266,-2.4461,-2.4545,-2.4651,-2.4949,-2.5034,-2.5111,-2.5274,-2.5303,-2.5303,-2.5303,-2.5303,-2.5303,-2.5303,-2.5303,-2.5303,-2.5303,-2.5303,-2.5303,-2.5303,-2.4716,-2.4024,-2.3331,-2.3293,-2.3293,-2.3293,-2.3293,-2.3293,-2.3293,-2.3293,-2.3303,-2.3362,-2.3342,-2.3707,-2.4457,-2.4485,-2.4473,-1.4208,-1.4919,-1.5646,-1.6394,-1.6512,-1.6834,0.0,-1.8471,-1.8623,-1.9343,-1.963,-2.0034,-2.0987,-2.1413,-2.1917,-2.2912,-2.3383,-2.3671,-2.3753,-2.3976,-2.4151,-2.4208,-2.419,-2.419,-2.419,-2.419,-2.419,-2.419,-2.419,-2.419,-2.419,-2.419,-2.419,-2.419,-2.419,-2.419,-2.419,-2.419,-2.419,-2.419,-2.419,-2.419,-2.419,-2.419,-2.419,-2.419,-2.419,-2.419,-2.419,-2.419,-2.419,-2.419,-2.419,-2.419,-2.4228,-2.441,-2.4591,-2.4775,-2.4775,-2.4775,-2.4804,-2.4804,-2.4804,-2.4804,-2.4775,-2.4654,-2.4528,-2.4478,-2.4357,-2.4228,-2.4227,-2.419,-2.419,-2.419,-2.419,-2.4266,-2.4461,-2.4639,-2.4814,-2.4974,-2.5152,-2.5274,-2.5303,-2.5303,-2.5303,-2.5303,-2.5303,-2.5303,-2.5303,-2.5303,-2.5303,-2.5303,-2.5303,-2.5303,-2.5303,-2.5207,-2.5111,-2.5034,-2.5014,-2.5014,-2.5014,-2.5014,-2.5014,-2.5014,-2.5014,-2.5014,-2.5034,-2.5139,-2.5255,-2.537,-2.5476,-2.5472,-1.546,-1.6001,-1.6428,-1.7151,-1.7659,-1.8132,-1.8758,-1.9232,-1.9638,-1.9934,-2.0382,-2.0875,-2.1485,-2.1958,-2.2506,-2.3361,-2.361,-2.3774,-2.3958,-2.4113,-2.419,-2.419,-2.419,-2.419,-2.419,-2.419,-2.419,-2.419,-2.419,-2.419,-2.419,-2.419,-2.419,-2.419,-2.419,-2.419,-2.419,-2.419,-2.419,-2.419,-2.419,-2.419,-2.419,-2.419,-2.419,-2.419,-2.419,-2.419,-2.419,-2.419,-2.419,-2.419,-2.419,-2.419,-2.4209,-2.4284,-2.4444,-2.4623,-2.4623,-2.47,-2.4804,-2.4804,-2.4855,-2.4904,-2.4814,-2.4869,-2.4917,-2.4746,-2.4682,-2.4663,-2.4575,-2.4461,-2.4375,-2.4375,-2.4375,-2.4445,-2.4623,-2.4795,-2.4968,-2.5141,-2.5234,-2.5303,-2.5303,-2.5303,-2.5303,-2.5303,-2.5303,-2.5303,-2.5303,-2.5303,-2.5303,-2.5303,-2.5303,-2.5303,-2.5303,-2.5303,-2.5303,-2.5303,-2.5303,-2.5303,-2.5303,-2.5303,-2.5303,-2.5303,-2.5303,-2.5303,-2.5303,-2.537,-2.5425,-2.5511,-2.5557,-2.56,-1.6411,-1.6851,-1.7117,-1.7676,-1.8352,-1.8894,-1.8894,-1.9638,-2.0322,-2.0322,-2.0957,-2.1598,-2.1848,-2.2432,-2.3021,-2.3628,-2.3774,-2.3917,-2.417,-2.419,-2.419,-2.419,-2.419,-2.419,-2.419,-2.419,-2.419,-2.419,-2.419,-2.419,-2.419,-2.419,-2.419,-2.419,-2.419,-2.419,-2.419,-2.419,-2.419,-2.419,-2.419,-2.419,-2.419,-2.419,-2.419,-2.419,-2.419,-2.419,-2.419,-2.419,-2.419,-2.419,-2.419,-2.419,-2.419,-2.419,-2.4284,-2.4428,-2.4428,-2.4512,-2.4639,-2.4639,-2.4737,-2.4845,-2.4814,-2.4981,-2.5126,-2.491,-2.4904,-2.4911,-2.4832,-2.4654,-2.4512,-2.4559,-2.4545,-2.4559,-2.4814,-2.4924,-2.5046,-2.5264,-2.5303,-2.5303,-2.5303,-2.5303,-2.5303,-2.5303,-2.5303,-2.5303,-2.5303,-2.5303,-2.5303,-2.5303,-2.5303,-2.5303,-2.5303,-2.5303,-2.5303,-2.5303,-2.5303,-2.5303,-2.5303,-2.5303,-2.5303,-2.5303,-2.5303,-2.5303,-2.5303,-2.5341,-2.5404,-2.5505,-2.5532,-2.5606,-1.6699,-1.7219,-1.7777,-1.7772,-1.8352,-1.8894,-1.8894,-2.0061,-2.117,-2.117,-2.1752,-2.2354,-2.2626,-2.2954,-2.33,-2.3631,-2.3976,-2.419,-2.419,-2.419,-2.419,-2.419,-2.419,-2.419,-2.419,-2.419,-2.419,-2.419,-2.419,-2.419,-2.419,-2.419,-2.419,-2.419,-2.419,-2.419,-2.419,-2.419,-2.419,-2.419,-2.419,-2.419,-2.419,-2.419,-2.419,-2.419,-2.419,-2.419,-2.419,-2.419,-2.419,-2.419,-2.419,-2.419,-2.419,-2.419,-2.419,-2.4209,-2.4209,-2.4209,-2.4209,-2.4209,-2.4357,-2.4543,-2.4746,-2.4804,-2.4828,-2.4962,-2.4904,-2.4804,-2.4804,-2.4654,-2.4561,-2.4746,-2.4639,-2.4588,-2.4924,-2.4998,-2.5046,-2.5264,-2.5303,-2.5303,-2.5303,-2.5303,-2.5303,-2.5303,-2.5303,-2.5303,-2.5303,-2.5303,-2.5303,-2.5303,-2.5303,-2.5303,-2.5303,-2.5303,-2.5303,-2.5303,-2.5303,-2.5303,-2.5303,-2.5303,-2.5303,-2.5303,-2.5303,-2.5303,-2.5303,-2.5428,-2.5505,-2.5505,-2.5635,-2.5704,-1.7168,-1.7608,-1.7811,-1.7811,-1.8352,-1.8894,-1.8894,-1.9688,-2.0568,-2.1102,-2.1397,-2.1793,-2.2557,-2.2972,-2.3323,-2.3649,-2.3976,-2.419,-2.419,-2.419,-2.419,-2.419,-2.419,-2.419,-2.419,-2.419,-2.419,-2.419,-2.419,-2.419,-2.419,-2.419,-2.419,-2.419,-2.419,-2.419,-2.419,-2.419,-2.419,-2.419,-2.419,-2.419,-2.419,-2.419,-2.419,-2.419,-2.419,-2.419,-2.419,-2.419,-2.419,-2.419,-2.419,-2.419,-2.419,-2.419,-2.419,-2.419,-2.419,-2.419,-2.419,-2.419,-2.4339,-2.4545,-2.4746,-2.4869,-2.4981,-2.5141,-2.5171,-2.5126,-2.5126,-2.4981,-2.4845,-2.493,-2.4872,-2.4872,-2.4986,-2.5099,-2.5214,-2.5303,-2.5303,-2.5303,-2.5303,-2.5303,-2.5303,-2.5303,-2.5303,-2.5303,-2.5303,-2.5303,-2.5303,-2.5303,-2.5303,-2.5303,-2.5303,-2.5303,-2.5303,-2.5303,-2.5303,-2.5303,-2.5303,-2.5303,-2.5303,-2.5303,-2.5303,-2.5322,-2.537,-2.5409,-2.5486,-2.5563,-2.5616,-2.5648,-1.7557,-1.7811,-1.7811,-1.7811,-1.8217,-1.8626,-1.8528,-1.9355,-2.0246,-2.0679,-2.0991,-2.1477,-2.2373,-2.2461,-2.2597,-2.3234,-2.3581,-2.3821,-2.3999,-2.4113,-2.419,-2.419,-2.419,-2.419,-2.419,-2.419,-2.419,-2.419,-2.419,-2.419,-2.419,-2.419,-2.419,-2.419,-2.419,-2.419,-2.419,-2.4483,-2.463,-2.463,-2.463,-2.4483,-2.419,-2.419,-2.419,-2.419,-2.419,-2.419,-2.419,-2.419,-2.419,-2.419,-2.419,-2.419,-2.419,-2.419,-2.419,-2.419,-2.419,-2.419,-2.419,-2.419,-2.4284,-2.4444,-2.4716,-2.4869,-2.4981,-2.5233,-2.5303,-2.5303,-2.5303,-2.5118,-2.4937,-2.4998,-2.4962,-2.4937,-2.4998,-2.5163,-2.5303,-2.5303,-2.5303,-2.5303,-2.5303,-2.5303,-2.5303,-2.5303,-2.5303,-2.5303,-2.5303,-2.5303,-2.5303,-2.5303,-2.5303,-2.5303,-2.5303,-2.5303,-2.5303,-2.5303,-2.5303,-2.5303,-2.5303,-2.5303,-2.5303,-2.5303,-2.5303,-2.5322,-2.5409,-2.5415,-2.5492,-2.5611,-2.5619,-2.5656,-1.7794,-1.7811,-1.7811,-1.7811,-1.7992,-1.8121,-1.7934,-1.9161,-2.0302,-2.0085,-2.0628,-2.1356,-2.2073,-2.1507,-2.1331,-2.2476,-2.2898,-2.3215,-2.3666,-2.3996,-2.419,-2.419,-2.419,-2.419,-2.419,-2.419,-2.4208,-2.4263,0.0,-2.419,-2.419,-2.419,-2.419,-2.419,-2.4245,-2.4263,-2.4263,-2.5072,-2.5476,-2.5476,-2.5476,-2.5052,-2.4318,-2.4318,-2.43,-2.4263,-2.4263,-2.4245,-2.419,-2.419,-2.419,-2.419,-2.419,-2.419,-2.419,-2.4245,-2.4263,-2.4263,-2.43,-2.4263,-2.419,-2.419,-2.419,-2.4266,-2.467,-2.479,-2.4874,-2.5182,-2.5284,-2.5303,-2.5303,-2.5068,-2.4842,-2.4986,-2.4904,-2.4842,-2.4986,-2.5163,-2.5303,-2.5303,-2.5303,-2.5303,-2.5303,-2.5303,-2.5303,-2.5303,-2.5303,-2.5303,-2.5303,-2.5303,-2.5303,-2.5303,-2.5303,-2.5303,-2.5303,-2.5303,-2.5303,-2.5303,-2.5303,-2.5303,-2.5303,-2.5303,-2.5303,-2.5303,-2.5303,-2.5322,-2.5409,-2.5473,-2.5538,-2.561,-2.5668,-2.5703,-1.7659,-1.7811,-1.7811,-1.7811,-1.7856,-1.8085,-1.8832,-1.9334,-1.9807,-2.0263,-2.0556,-2.0649,-2.0594,-2.1259,-2.1879,-2.22,-2.3172,-2.395,-2.4075,-2.4151,-2.419,-2.419,-2.419,-2.419,-2.419,-2.419,-2.4447,-2.5054,-2.4538,-2.419,-2.419,-2.419,-2.419,-2.419,-2.4777,-2.509,-2.509,-2.5878,-2.63,-2.63,-2.63,-2.619,-2.5988,-2.5988,-2.5658,-2.509,-2.509,-2.474,-2.419,-2.419,-2.419,-2.419,-2.419,-2.419,-2.4263,-2.4869,-2.509,-2.5162,-2.5786,-2.5199,-2.419,-2.419,-2.419,-2.4247,-2.4495,-2.4685,-2.4828,-2.503,-2.5173,-2.5303,-2.5303,-2.513,-2.5005,-2.5192,-2.5077,-2.5005,-2.5173,-2.5264,-2.5303,-2.5303,-2.5303,-2.5303,-2.5303,-2.5303,-2.5303,-2.5303,-2.5303,-2.5303,-2.5303,-2.5303,-2.5303,-2.5303,-2.5303,-2.5303,-2.5303,-2.5303,-2.5303,-2.5303,-2.5303,-2.5303,-2.5303,-2.5303,-2.5303,-2.5303,-2.5303,-2.537,-2.5466,-2.5493,-2.5559,-2.5679,-2.5681,-2.5703,-1.7693,-1.7811,-1.7811,-1.7811,-1.7883,-1.8095,-1.8594,-1.9048,-1.9438,-1.9751,-1.9791,-1.9846,-1.9984,-2.0599,-2.1259,-2.1773,-2.2898,-2.3748,-2.3941,-2.4094,-2.419,-2.419,-2.419,-2.419,-2.419,-2.419,-2.4392,-2.4832,-2.4777,-2.4722,-2.4722,-2.5052,-2.5089,-2.474,-2.5511,-2.6098,-2.6468,-2.6906,-2.7126,-2.7126,-2.7126,-2.6943,-2.6612,-2.6612,-2.6355,-2.5915,0.0,-2.5456,-2.4722,-2.4722,-2.452,-2.419,-2.419,-2.419,-2.4245,-2.4704,-2.4869,-2.4979,-2.5786,-2.5474,-2.4722,-2.4722,-2.4483,-2.4247,-2.4426,-2.4639,-2.4828,-2.4962,-2.5152,-2.5274,-2.5203,-2.5041,-2.4917,-2.493,-2.493,-2.4943,-2.5068,-2.5201,-2.5303,-2.5303,-2.5303,-2.5303,-2.5303,-2.5303,-2.5303,-2.5303,-2.5303,-2.5303,-2.5303,-2.5303,-2.5303,-2.5303,-2.5303,-2.5303,-2.5303,-2.5303,-2.5303,-2.5303,-2.5303,-2.5303,-2.5303,-2.5303,-2.5303,-2.5341,-2.5341,-2.5409,-2.5543,-2.5542,-2.5595,-2.5703,-2.5703,-2.5703,-1.7811,-1.7811,-1.7811,-1.7811,-1.7971,-1.8117,-1.8024,-1.8692,-1.9245,-1.9018,-1.8965,-1.9134,-1.9638,-1.972,-2.0111,-2.1277,-2.2303,-2.3122,-2.3627,-2.3996,-2.419,-2.419,-2.419,-2.419,-2.419,-2.419,-2.4245,-2.4355,-2.5017,-2.5403,-2.5403,-2.6153,-2.6337,-2.5752,-2.6392,-2.7145,-2.7952,-2.7952,-2.7952,-2.7952,-2.7952,-2.7585,-2.6924,-2.6924,-2.6869,-2.6759,-2.6759,-2.63,-2.5568,-2.5568,-2.5089,-2.4355,-2.4355,-2.4281,-2.4208,-2.4318,-2.4355,-2.4483,-2.5403,-2.566,-2.555,-2.5439,-2.4924,-2.4357,-2.4429,-2.4623,-2.4814,-2.4937,-2.513,-2.5264,-2.5088,-2.4917,-2.4775,-2.4639,-2.4716,-2.4818,-2.4861,-2.5091,-2.5303,-2.5303,-2.5303,-2.5303,-2.5303,-2.5303,-2.5303,-2.5303,-2.5303,-2.5303,-2.5303,-2.5303,-2.5303,-2.5303,-2.5303,-2.5303,-2.5303,-2.5303,-2.5303,-2.5303,-2.5303,-2.5303,-2.5303,-2.5303,-2.5322,-2.5409,-2.5409,-2.5466,-2.5601,-2.5601,-2.5628,-2.5703,-2.5703,-2.5703,-1.7811,-1.7811,-1.7811,-1.7811,-1.7816,-1.8097,-1.8922,-1.9252,-1.936,-1.9317,-1.9317,-1.909,-1.8314,-1.8896,-1.9743,-2.0558,-2.18,-2.2908,-2.3605,-2.3996,-2.419,-2.419,-2.419,-2.419,-2.419,-2.419,-2.4483,-2.5146,-2.5329,-2.5403,-2.5403,-2.6153,-2.6851,-2.7365,-2.7512,-2.7989,-2.8796,-2.8796,-2.8796,-2.8796,-2.8796,-2.87,-2.8572,-2.8572,-2.8227,-2.7585,-2.7585,0.0,-2.6392,-2.6392,-2.5915,-2.5201,-2.5201,-2.4777,-2.4281,-2.4962,-2.5201,-2.5403,-2.6869,-2.6943,-2.6282,-2.5623,-2.5311,-2.5072,-2.4449,-2.4512,-2.4804,-2.4828,-2.5049,-2.5284,-2.5264,-2.5043,-2.4874,-2.5096,-2.4994,-2.4888,-2.5149,-2.5253,-2.5303,-2.5303,-2.5303,-2.5303,-2.5303,-2.5303,-2.5303,-2.5303,-2.5303,-2.5303,-2.5303,-2.5303,-2.5303,-2.5303,-2.5303,-2.5303,-2.5303,-2.5303,-2.5303,-2.5303,-2.5303,-2.5303,-2.5303,-2.5303,-2.5322,-2.5409,-2.5409,-2.5466,-2.5601,-2.5601,-2.5628,-2.5703,-2.5703,-2.5703,-1.7811,-1.7811,-1.7811,-1.7811,-1.7811,-1.794,-1.8459,-1.8567,-1.8567,-1.8567,-1.8567,-1.8403,-1.7884,-1.868,-1.9504,-1.9886,-2.0962,-2.2096,-2.3009,-2.3258,-2.3502,-2.3901,-2.3937,-2.3876,-2.3692,-2.3671,-2.3919,-2.4483,-2.4902,-2.522,-2.5383,-2.5768,-2.6722,-2.8374,-2.8026,-2.8191,-2.8975,-2.8994,-2.8994,-2.8994,-2.8994,-2.8994,-2.8994,-2.8994,-2.8796,-2.8429,-2.8429,-2.797,-2.7218,-2.7218,-2.6502,-2.5403,-2.5403,-2.4905,-2.4245,-2.463,-2.4777,-2.4942,-2.6135,-2.6576,-2.6465,-2.5658,-2.5403,-2.5256,-2.4428,-2.4478,-2.4804,-2.4804,-2.5043,-2.5274,-2.5163,-2.5018,-2.493,-2.5012,-2.4975,-2.4968,-2.5243,-2.5303,-2.5303,-2.5303,-2.5303,-2.5303,-2.5303,-2.5303,-2.5303,-2.5303,-2.5303,-2.5303,-2.5303,-2.5303,-2.5303,-2.5303,-2.5303,-2.5303,-2.5303,-2.5303,-2.5303,-2.5303,-2.5303,-2.5303,-2.5303,-2.5322,-2.539,-2.5447,-2.5486,-2.5553,-2.5654,-2.5654,-2.5665,-2.5703,-2.5703,-2.5703,-1.7811,-1.7811,-1.7811,-1.7811,-1.7811,-1.7811,-1.7811,-1.7811,-1.7811,-1.7811,-1.7811,-1.7811,-1.7811,-1.8476,-1.9122,-1.9277,-2.0184,-2.1235,-2.2249,-2.2661,-2.3027,-2.3516,-2.3671,-2.3566,-2.3236,-2.3259,-2.3392,-2.3566,-2.4266,-2.4998,-2.5878,-2.5917,-2.6851,-2.892,-2.8393,-2.8356,-2.8975,-2.8994,-2.8994,-2.8994,-2.8994,-2.8994,-2.8994,-2.8994,-2.8994,-2.8994,-2.8994,-2.865,0.0,-2.8062,-2.7108,-2.5678,-2.5678,-2.5052,-2.419,-2.419,-2.419,-2.4318,-2.5127,-2.5805,-2.6245,-2.5623,-2.5531,-2.5456,-2.4502,-2.4478,-2.4804,-2.4804,-2.5043,-2.5264,-2.5099,-2.501,-2.4924,-2.4832,-2.493,-2.5099,-2.5264,-2.5303,-2.5303,-2.5303,-2.5303,-2.5303,-2.5303,-2.5303,-2.5303,-2.5303,-2.5303,-2.5303,-2.5303,-2.5303,-2.5303,-2.5303,-2.5303,-2.5303,-2.5303,-2.5303,-2.5303,-2.5303,-2.5303,-2.5303,-2.5322,-2.537,-2.5447,-2.5524,-2.5563,-2.5622,-2.5703,-2.5703,-2.5703,-2.5703,-2.5703,-2.5703,-1.7811,-1.7811,-1.7811,-1.7811,-1.7811,-1.7811,-1.7811,-1.7811,-1.7811,-1.7811,-1.7811,-1.7811,-1.7811,-1.7884,-1.8161,-1.8839,-1.986,-2.0813,-2.1562,-2.2794,-2.3516,-2.3282,-2.3522,-2.3566,-2.3236,-2.3477,-2.3544,-2.3277,-2.3594,-2.4911,-2.7438,-2.7567,-2.8026,-2.8957,-2.892,-2.892,-2.8994,-2.8994,-2.8994,-2.8994,-2.8994,-2.8994,-2.8994,-2.8994,-2.8994,-2.8994,-2.8994,-2.8957,0.0,-2.8906,-2.7952,-2.6502,-2.6502,-2.5548,-2.419,-2.419,-2.419,-2.4318,-2.5127,-2.5458,-2.5513,-2.5421,-2.5878,-2.6209,-2.4667,-2.4478,-2.4804,-2.4804,-2.5043,-2.5303,-2.5274,-2.5056,-2.4818,-2.4804,-2.5037,-2.5274,-2.5303,-2.5303,-2.5303,-2.5303,-2.5303,-2.5303,-2.5303,-2.5303,-2.5303,-2.5303,-2.5303,-2.5303,-2.5303,-2.5303,-2.5303,-2.5303,-2.5303,-2.5303,-2.5303,-2.5303,-2.5303,-2.5303,-2.5303,-2.5322,-2.539,-2.5409,-2.5466,-2.5582,-2.5601,-2.5622,-2.5703,-2.5703,-2.5703,-2.5703,-2.5703,-2.5703,-1.7929,-1.843,-1.9005,-1.8572,-1.8454,-1.8454,-1.8454,-1.8115,-1.7811,-1.7811,-1.7811,-1.7811,-1.7811,-1.7811,-1.7912,-1.82,-1.8603,-1.9361,-2.0737,-2.1429,-2.2048,-2.2818,-2.3021,-2.2989,-2.2686,-2.279,-2.2875,-2.2898,-2.3838,-2.5113,-2.67,-2.6508,-2.7163,-2.8938,-2.8539,-2.8521,-2.8994,-2.8994,-2.8994,-2.8994,-2.8994,-2.8994,-2.8994,-2.8994,-2.8994,-2.8994,-2.8994,-2.8994,0.0,-2.8994,-2.8062,-2.6612,-2.6612,-2.5621,-2.419,-2.419,-2.419,-2.4245,-2.4557,-2.4979,-2.5329,-2.4832,-2.5217,-2.5658,-2.4538,-2.4478,-2.4804,-2.4804,-2.5043,-2.5303,-2.5303,-2.5212,-2.5103,-2.5103,-2.5192,-2.5303,-2.5303,-2.5303,-2.5303,-2.5303,-2.5303,-2.5303,-2.5303,-2.5303,-2.5303,-2.5303,-2.5303,-2.5303,-2.5303,-2.5303,-2.5303,-2.5303,-2.5303,-2.5303,-2.5303,-2.5303,-2.5303,-2.5303,-2.5341,-2.537,-2.5409,-2.5486,-2.5543,-2.5601,-2.564,-2.5676,-2.5703,-2.5703,-2.5703,-2.5703,-2.5703,-2.5703,-1.8268,-1.9039,-1.9866,-1.9367,-1.9063,-1.8894,-1.8894,-1.8335,-1.7811,-1.7811,-1.7811,-1.7811,-1.7811,-1.7811,-1.7811,0.0,-1.816,-1.8897,-2.0158,-2.0794,-2.151,-2.2479,-2.266,-2.2599,-2.2338,-2.231,-2.2398,-2.2669,-2.3654,-2.464,-2.5566,-2.5605,-2.6637,-2.892,-2.8448,-2.8429,-2.8975,-2.8994,-2.8994,-2.8994,-2.8994,-2.8994,-2.8994,-2.8994,-2.8994,-2.8994,-2.8994,-2.8994,0.0,-2.8994,-2.8062,-2.6612,-2.6612,-2.5621,-2.419,-2.419,-2.419,-2.419,-2.419,-2.4557,-2.4942,-2.4373,-2.4575,-2.4944,-2.4373,-2.4478,-2.4804,-2.4804,-2.5043,-2.5293,-2.5224,-2.5264,-2.5293,-2.5224,-2.5264,-2.5303,-2.5303,-2.5303,-2.5303,-2.5303,-2.5303,-2.5303,-2.5303,-2.5303,-2.5303,-2.5303,-2.5303,-2.5303,-2.5303,-2.5303,-2.5303,-2.5303,-2.5303,-2.5303,-2.5303,-2.5303,-2.5303,-2.5303,-2.537,-2.5399,-2.5432,-2.5543,-2.5618,-2.5621,-2.5681,-2.5703,-2.5703,-2.5703,-2.5703,-2.5703,-2.5703,-2.5703,-1.8877,-1.9435,-2.0002,-1.9985,-1.9452,-1.8894,-1.8894,-1.8335,-1.7811,-1.7811,-1.7811,-1.7811,-1.7811,-1.7811,-1.7811,-1.7811,-1.9005,-1.9985,-2.0002,-2.1541,-2.2582,-2.2321,-2.2537,-2.2599,-2.2338,-2.231,-2.2398,-2.2669,-2.2721,0.0,-2.4364,-2.5488,-2.7004,-2.8938,-2.8975,-2.8975,-2.8994,-2.8994,-2.8994,-2.8994,-2.8994,-2.8994,-2.8994,-2.8994,-2.8994,-2.8994,-2.8994,-2.8994,0.0,-2.8994,-2.8062,-2.6612,-2.6612,-2.5621,-2.419,-2.419,-2.419,-2.419,-2.419,-2.4208,-2.4208,-2.419,-2.4208,-2.4208,-2.419,-2.4478,-2.4804,-2.4804,-2.5043,-2.5253,-2.5046,-2.5152,-2.5253,-2.5046,-2.5152,-2.5303,-2.5303,-2.5303,-2.5303,-2.5303,-2.5303,-2.5303,-2.5303,-2.5303,-2.5303,-2.5303,-2.5303,-2.5303,-2.5303,-2.5303,-2.5303,-2.5303,-2.5303,-2.5303,-2.5303,-2.5303,-2.5303,-2.5303,-2.537,-2.544,-2.5503,-2.5553,-2.5635,-2.5703,-2.5703,-2.5703,-2.5703,-2.5703,-2.5703,-2.5703,-2.5703,-2.5703,-1.8285,-1.9039,-1.9866,-1.9384,-1.9063,-1.8894,-1.8894,-1.8335,-1.7811,-1.7811,-1.7811,-1.7811,-1.7811,-1.7811,-1.798,-1.8471,-1.8944,0.0,-2.067,-2.13,-2.182,-2.2243,-2.236,-2.2371,-2.231,-2.231,-2.2349,-2.2426,-2.3143,-2.3754,-2.4104,-2.5386,-2.649,-2.7325,-2.7897,-2.8172,-2.8172,-2.8172,-2.8466,-2.8994,-2.8994,-2.8994,-2.8994,-2.8994,-2.8994,-2.8994,-2.8994,-2.8994,0.0,-2.8994,-2.8062,-2.6612,-2.6612,-2.5621,-2.419,-2.419,-2.419,-2.419,-2.419,-2.419,-2.419,-2.419,-2.419,-2.419,-2.419,-2.4478,-2.4832,-2.4917,-2.4998,-2.5088,-2.5022,-2.5152,-2.5274,-2.5214,-2.5253,-2.5303,-2.5303,-2.5303,-2.5303,-2.5303,-2.5303,-2.5303,-2.5303,-2.5303,-2.5303,-2.5303,-2.5303,-2.5303,-2.5303,-2.5303,-2.5303,-2.5303,-2.5303,-2.5303,-2.5303,-2.5303,-2.5322,-2.537,-2.5428,-2.5505,-2.5584,-2.5625,-2.5685,-2.5703,-2.5703,-2.5703,-2.5703,-2.5703,-2.5703,-2.5703,-2.5703,-2.5703,-1.8115,-1.9072,-1.9883,-1.9435,-1.9113,-1.8894,-1.8894,-1.8335,-1.7811,-1.7811,-1.7811,-1.7811,-1.7811,-1.7811,-1.8048,-1.8775,-1.913,-1.9756,-2.1034,-2.1431,-2.1786,-2.226,-2.231,-2.231,-2.231,-2.231,-2.231,-2.231,-2.2969,-2.3411,-2.351,-2.475,-2.5623,-2.5947,-2.7175,-2.7952,-2.8246,-2.8246,-2.8503,-2.8994,-2.8994,-2.8994,-2.8994,-2.8994,-2.8994,-2.8994,-2.8994,-2.8994,0.0,-2.8686,-2.7787,-2.6576,-2.6264,-2.5346,-2.419,-2.419,-2.419,-2.419,-2.419,-2.419,-2.419,-2.419,-2.4266,-2.4339,-2.441,-2.4561,-2.4727,-2.4949,-2.501,-2.5022,-2.5099,-2.5214,-2.5303,-2.5303,-2.5303,-2.5303,-2.5303,-2.5303,-2.5303,-2.5303,-2.5303,-2.5303,-2.5303,-2.5303,-2.5303,-2.5303,-2.5303,-2.5303,-2.5303,-2.5303,-2.5303,-2.5303,-2.5303,-2.5303,-2.5303,-2.5303,-2.5322,-2.5409,-2.5453,-2.5528,-2.5611,-2.5652,-2.5703,-2.5703,-2.5703,-2.5703,-2.5703,-2.5703,-2.5703,-2.5703,-2.5703,-2.5703,0.0,-1.9198,-1.9782,-1.9833,-1.9333,-1.8826,-1.8826,-1.8302,0.0,-1.7811,-1.7811,-1.7828,-1.7879,-1.7896,-1.8149,-1.8927,-1.9655,-2.0365,-2.1187,-2.187,-2.231,-2.231,-2.231,-2.231,-2.231,-2.231,-2.231,-2.231,-2.231,-2.2398,-2.266,-2.3681,-2.4504,-2.4951,-2.6713,-2.8077,-2.8902,-2.8902,-2.8938,-2.8994,-2.8994,-2.8994,-2.8994,-2.8994,-2.8994,0.0,-2.8994,0.0,0.0,-2.8136,-2.7328,-2.6521,-2.5695,-2.4905,-2.419,-2.419,-2.419,-2.419,-2.419,-2.419,-2.419,-2.419,-2.4339,-2.4512,-2.47,-2.4639,-2.4575,-2.4898,-2.4986,-2.5022,-2.5233,-2.5274,-2.5303,-2.5303,-2.5303,-2.5303,-2.5303,-2.5303,-2.5303,-2.5303,-2.5303,-2.5303,-2.5303,-2.5303,-2.5303,-2.5303,-2.5303,-2.5303,-2.5303,-2.5303,-2.5303,-2.5303,-2.5303,-2.5303,-2.5303,-2.5303,-2.5341,-2.5409,-2.5466,-2.5538,-2.5609,-2.5678,-2.5703,-2.5703,-2.5703,-2.5703,-2.5703,-2.5703,-2.5703,-2.5703,-2.5703,-2.5703,-1.6086,0.0,-1.7608,-1.8183,-1.82,-1.8065,0.0,-1.7929,-1.7811,-1.7811,-1.7811,-1.798,-1.8538,-1.864,-1.908,-2.0458,-2.0788,-2.1177,-2.1938,-2.2192,-2.231,-2.231,-2.231,-2.231,-2.231,-2.231,-2.231,-2.231,-2.231,-2.2321,-2.2388,-2.2851,-2.3804,-2.5401,-2.6128,-2.7018,-2.8062,-2.8081,-2.8393,-2.8994,-2.8994,-2.8994,-2.8994,-2.8994,-2.8994,-2.8994,-2.8994,0.0,-2.892,-2.8136,-2.7328,-2.6521,-2.5695,-2.4905,-2.419,-2.419,-2.419,-2.419,-2.419,-2.419,-2.419,-2.419,-2.4228,-2.4266,-2.4339,-2.4428,-2.4543,-2.4785,-2.4842,-2.4855,-2.4915,-2.5115,-2.5303,-2.5303,-2.5303,-2.5303,-2.5303,-2.5303,-2.5303,-2.5303,-2.5303,-2.5303,-2.5303,-2.5303,-2.5303,-2.5303,-2.5303,-2.5303,-2.5303,-2.5303,-2.5303,-2.5303,-2.5303,-2.5322,-2.537,-2.539,-2.5409,-2.5466,-2.5542,-2.5615,-2.5679,-2.5681,-2.5703,-2.5703,-2.5703,-2.5703,-2.5703,-2.5703,-2.5703,-2.5703,-2.5703,-2.5703,-1.4902,-1.5866,-1.68,-1.7185,-1.7557,-1.7811,-1.7811,-1.7811,-1.7811,-1.7811,-1.7811,-1.8031,-1.8758,-1.8894,-1.9401,-2.0967,-2.1204,-2.1448,-2.2209,-2.231,-2.231,-2.231,-2.231,-2.231,0.0,-2.231,-2.231,-2.231,-2.231,-2.231,-2.231,-2.2563,-2.3414,-2.4992,-2.5356,-2.6436,-2.8338,-2.8356,-2.8576,-2.8994,-2.8994,-2.8994,-2.8994,-2.8994,-2.8994,-2.8994,-2.8994,0.0,-2.8902,-2.7732,-2.6998,-2.6484,-2.5309,-2.4575,-2.419,-2.419,-2.419,-2.419,-2.419,-2.419,-2.419,-2.419,-2.4247,-2.4357,-2.4444,-2.4495,-2.4545,-2.4746,-2.4842,-2.4904,-2.5019,-2.516,-2.5303,-2.5303,-2.5303,-2.5303,-2.5303,-2.5303,-2.5303,-2.5303,-2.5303,-2.5303,-2.5303,-2.5303,-2.5303,-2.5303,-2.5303,-2.5303,-2.5303,-2.5303,-2.5303,-2.5303,-2.5322,-2.537,-2.5409,-2.5466,-2.5505,-2.5543,-2.5582,-2.5628,-2.5703,-2.5703,-2.5703,-2.5703,-2.5703,-2.5703,-2.5703,-2.5703,-2.5703,-2.5703,-2.5703,-2.5703,-1.4445,-1.5663,-1.6699,-1.6699,-1.7253,-1.7811,-1.7811,-1.7811,-1.7811,-1.7811,-1.7896,-1.82,-1.8927,-1.9164,-1.9705,-2.1126,-2.1363,-2.1583,-2.2226,-2.231,-2.231,-2.231,-2.231,0.0,-2.231,-2.231,-2.231,-2.231,-2.231,-2.231,-2.231,-2.2527,-2.3163,-2.4307,-2.4658,-2.6023,-2.8526,-2.8627,-2.8705,-2.8833,-2.8833,-2.8865,-2.8994,-2.8865,-2.8865,-2.8975,0.0,0.0,-2.8682,-2.709,-2.6429,-2.6264,-2.4777,-2.419,-2.419,-2.419,-2.419,-2.419,-2.419,-2.419,-2.419,-2.419,-2.4321,-2.4495,-2.47,-2.4654,-2.4575,-2.476,-2.4877,-2.501,-2.5203,-2.5274,-2.5303,-2.5303,-2.5303,-2.5303,-2.5303,-2.5303,-2.5303,-2.5303,-2.5303,-2.5303,-2.5303,-2.5303,-2.5303,-2.5303,-2.5303,-2.5303,-2.5303,-2.5303,-2.5303,-2.5303,-2.537,-2.5399,-2.5398,-2.5524,-2.5601,-2.5601,-2.5618,-2.5646,-2.5703,-2.5703,-2.5703,-2.5703,-2.5703,-2.5703,-2.5703,-2.5703,-2.5703,-2.5703,-2.5703,-2.5703,-1.5054,-1.6035,-1.6699,-1.6699,-1.7253,-1.7811,-1.7811,-1.7811,-1.7811,-1.7811,-1.8302,-1.8961,-1.9697,-2.0382,-2.1109,-2.1989,-2.2141,-2.2175,-2.2293,-2.231,-2.231,-2.231,0.0,-2.231,-2.231,-2.231,-2.231,-2.231,-2.231,-2.231,-2.231,-2.2349,-2.2877,-2.4025,-2.4343,-2.5141,-2.6512,-2.6834,-2.731,-2.797,-2.797,-2.8338,-2.8975,-2.8301,-2.8356,-2.892,0.0,-2.7346,-2.786,-2.6245,-2.5586,-2.5495,-2.4557,-2.419,-2.419,-2.419,-2.419,-2.419,-2.419,-2.419,-2.419,-2.419,-2.4228,-2.4284,-2.4478,-2.4639,-2.476,-2.479,-2.4799,-2.4869,-2.4998,-2.5163,-2.5303,-2.5303,-2.5303,-2.5303,-2.5303,-2.5303,-2.5303,-2.5303,-2.5303,-2.5303,-2.5303,-2.5303,-2.5303,-2.5303,-2.5303,-2.5303,-2.5303,-2.5303,-2.5303,-2.5303,-2.537,-2.5415,-2.5485,-2.5564,-2.562,-2.5678,-2.5678,-2.5698,-2.5703,-2.5703,-2.5703,-2.5703,-2.5703,-2.5703,-2.5703,-2.5703,-2.5703,-2.5703,-2.5703,-2.5703,-1.4716,-1.5544,-1.6289,-1.7101,-1.8149,-1.887,-1.8488,-1.8707,-1.8988,-1.8988,-1.9241,-1.9739,-2.0517,-2.094,-2.1431,-2.2192,-2.231,-2.231,-2.231,-2.231,-2.231,0.0,0.0,-2.231,-2.231,-2.231,-2.231,-2.231,-2.231,-2.231,-2.231,-2.231,-2.2706,-2.3533,-2.3689,-2.4193,-2.5069,-2.523,-2.5933,-2.7145,-2.7145,-2.7346,-2.7695,-2.7328,-2.7346,-2.7677,0.0,-2.6814,-2.7053,-2.5878,-2.5403,-2.5329,-2.4502,-2.419,-2.419,-2.419,-2.419,-2.419,-2.419,-2.419,-2.419,-2.419,-2.419,-2.4247,-2.4426,-2.4495,-2.4526,-2.4823,-2.4987,-2.5049,-2.501,-2.5152,-2.5303,-2.5303,-2.5303,-2.5303,-2.5303,-2.5303,-2.5303,-2.5303,-2.5303,-2.5303,-2.5303,-2.5303,-2.5303,-2.5303,-2.5303,-2.5303,-2.5303,-2.5303,-2.5303,-2.5303,-2.539,-2.547,-2.5498,-2.5595,-2.5678,-2.5697,-2.5691,-2.5703,-2.5703,-2.5703,-2.5703,-2.5703,-2.5703,-2.5703,-2.5703,-2.5703,-2.5703,-2.5703,-2.5703,-2.5703,-1.4513,-1.5308,-1.617,-1.7473,-1.8633,-1.9427,-1.9215,-1.9469,-1.9782,-1.9951,-2.0137,-2.0467,-2.1102,-2.1329,-2.1634,-2.2226,-2.231,-2.231,-2.231,-2.231,-2.231,-2.231,-2.231,-2.231,-2.231,-2.231,-2.231,-2.231,-2.231,-2.231,-2.231,-2.2377,-2.2607,-2.3069,-2.3253,-2.3566,-2.4074,-2.417,-2.4905,-2.6319,-2.6319,-2.6429,-2.6594,-2.641,-2.6429,-2.6594,-2.6209,-2.6135,-2.6264,-2.5438,-2.5127,-2.5072,-2.4428,-2.419,-2.419,-2.419,-2.419,-2.419,-2.419,-2.419,-2.419,-2.419,-2.419,-2.4247,-2.4426,-2.4428,-2.4426,-2.4831,-2.5118,-2.5264,-2.5111,-2.5173,-2.5303,-2.5303,-2.5303,-2.5303,-2.5303,-2.5303,-2.5303,-2.5303,-2.5303,-2.5303,-2.5303,-2.5303,-2.5303,-2.5303,-2.5303,-2.5303,-2.5303,-2.5303,-2.5303,-2.5303,-2.5428,-2.5506,-2.5539,-2.5636,-2.5703,-2.5703,-2.5703,-2.5703,-2.5703,-2.5703,-2.5703,-2.5703,-2.5703,-2.5703,-2.5703,-2.5703,-2.5703,-2.5703,-2.5703,-2.5703,-1.5122,-1.6052,-1.6817,-1.7608,-1.7873,-1.8295,-1.9613,-1.9435,-1.9164,-1.9849,-2.0602,-2.1109,-2.1204,-2.1752,-2.2243,-2.2293,-2.231,-2.231,-2.231,0.0,-2.231,-2.231,-2.231,-2.231,-2.231,-2.231,-2.231,-2.231,-2.231,-2.231,-2.231,-2.2537,-2.2695,-2.2746,-2.3346,-2.3692,-2.3753,-2.4036,-2.463,-2.5495,-2.5495,-2.5878,-2.6576,-2.5823,-2.5878,-2.6521,-2.5016,-2.4795,-2.5421,-2.4612,-2.4281,-2.4281,-2.4226,-2.419,-2.419,-2.419,-2.419,-2.419,-2.419,-2.419,-2.419,-2.419,-2.419,-2.4247,-2.4426,-2.4623,-2.476,-2.4804,-2.5056,-2.5303,-2.5274,-2.5303,-2.5303,-2.5303,-2.5303,-2.5303,-2.5303,-2.5303,-2.5303,-2.5303,-2.5303,-2.5303,-2.5303,-2.5303,-2.5303,-2.5303,-2.5303,-2.5303,-2.5303,-2.5303,-2.5303,-2.5303,-2.5428,-2.5549,-2.5681,-2.5683,-2.5703,-2.5703,-2.5703,-2.5703,-2.5703,-2.5703,-2.5703,-2.5703,-2.5703,-2.5703,-2.5703,-2.5703,-2.5703,-2.5703,-2.5703,-2.5703,-1.4648,-1.5781,-1.6885,-1.7625,-1.8481,-1.9309,-1.9866,-2.0179,-2.0534,-2.1295,-2.1684,-2.1887,-2.1887,-2.2124,-2.231,-2.231,-2.231,-2.231,-2.231,-2.231,-2.231,-2.231,-2.231,-2.231,-2.231,-2.2436,-2.2537,-2.2537,-2.2537,-2.2643,-2.2849,-2.2764,-2.2898,-2.3323,-2.3566,-2.3795,-2.4016,-2.4151,-2.4355,-2.4649,-2.4649,-2.4814,-2.5107,-2.4777,-2.4814,-2.5071,-2.4465,-2.4373,-2.463,-2.4318,-2.419,-2.419,-2.419,-2.419,-2.419,-2.419,-2.419,-2.419,-2.419,-2.419,-2.419,-2.419,-2.419,-2.4247,-2.4426,-2.4543,-2.467,-2.4864,-2.5018,-2.5111,-2.5111,-2.5214,-2.5303,-2.5303,-2.5303,-2.5303,-2.5303,-2.5303,-2.5303,-2.5303,-2.5303,-2.5303,-2.5303,-2.5303,-2.5303,-2.5303,-2.5303,-2.5303,-2.5303,-2.5303,-2.5303,-2.5303,-2.5426,-2.5547,-2.5683,-2.5703,-2.5703,-2.5703,-2.5703,-2.5703,-2.5703,-2.5703,-2.5703,-2.5703,-2.5703,-2.5703,-2.5703,-2.5703,-2.5703,-2.5703,-2.5703,-2.5703,-1.4359,-1.5578,-1.6885,-1.7625,-1.8741,-1.9765,-2.0281,-2.0788,-2.1397,-2.2158,-2.231,-2.231,-2.231,-2.231,-2.231,-2.231,-2.231,-2.231,-2.231,-2.231,-2.231,-2.231,-2.231,-2.231,-2.231,-2.2537,-2.2695,-2.2695,-2.2797,-2.2972,-2.3189,-2.3093,-2.323,-2.3692,-2.3795,-2.3976,-2.419,-2.419,-2.419,-2.419,-2.419,-2.419,-2.419,-2.419,-2.419,-2.419,-2.419,-2.419,-2.419,-2.419,-2.419,-2.419,-2.419,-2.419,-2.419,-2.419,-2.419,-2.419,-2.419,-2.419,-2.419,-2.419,-2.4247,-2.4321,-2.4461,-2.4556,-2.4708,-2.4949,-2.5046,-2.5099,-2.5099,-2.5203,-2.5303,-2.5303,-2.5303,-2.5303,-2.5303,-2.5303,-2.5303,-2.5303,-2.5303,-2.5303,-2.5303,-2.5303,-2.5303,-2.5303,-2.5303,-2.5303,-2.5303,-2.5303,-2.5322,-2.537,-2.5453,-2.5554,-2.5683,-2.5703,-2.5703,-2.5703,-2.5703,-2.5703,-2.5703,-2.5703,-2.5703,-2.5703,-2.5703,-2.5703,-2.5703,-2.5703,-2.5703,-2.5703,-2.5703,-2.5703,-1.4494,-1.5578,-1.6885,-1.7625,-1.8369,-1.9316,-2.0865,-2.1204,-2.1397,-2.2158,-2.231,-2.231,-2.231,-2.231,-2.231,-2.231,-2.231,-2.231,-2.231,-2.231,-2.231,-2.231,-2.231,-2.231,-2.231,-2.2537,-2.2695,-2.2695,-2.3021,-2.3189,-2.3212,-2.3522,-2.3692,-2.3692,-2.4016,-2.419,-2.419,-2.419,-2.419,-2.419,-2.419,-2.419,-2.419,-2.419,-2.419,-2.419,-2.419,-2.419,-2.419,-2.419,-2.419,-2.419,-2.419,-2.419,-2.419,-2.419,-2.419,-2.419,-2.419,-2.419,-2.419,-2.419,-2.4339,-2.4495,-2.4512,-2.4737,-2.501,-2.501,-2.5152,-2.5303,-2.5303,-2.5303,-2.5303,-2.5303,-2.5303,-2.5303,-2.5303,-2.5303,-2.5303,-2.5303,-2.5303,-2.5303,-2.5303,-2.5303,-2.5303,-2.5303,-2.5303,-2.5303,-2.5303,-2.5303,-2.5341,-2.5486,-2.5492,-2.5554,-2.5683,-2.5703,-2.5703,-2.5703,-2.5703,-2.5703,-2.5703,-2.5703,-2.5703,-2.5703,-2.5703,-2.5703,-2.5703,-2.5703,-2.5703,-2.5703,-2.5703,-2.5703,-1.4494,-1.5578,-1.6885,-1.7625,-1.9164,-2.0645,-2.1102,-2.1204,-2.1397,-2.2158,-2.231,-2.231,-2.231,-2.231,-2.231,-2.231,-2.231,-2.231,-2.231,-2.231,-2.231,-2.231,-2.231,-2.231,-2.231,-2.2537,-2.2797,-2.3045,-2.3141,-2.3414,-2.3876,-2.3774,-2.3816,-2.4036,-2.4151,-2.419,-2.419,-2.419,-2.419,-2.419,-2.419,-2.419,-2.419,-2.419,-2.419,-2.419,-2.419,-2.419,-2.419,-2.419,-2.419,-2.419,-2.419,-2.419,-2.419,-2.419,-2.419,-2.419,-2.419,-2.419,-2.419,-2.419,-2.4339,-2.4528,-2.467,-2.485,-2.5034,-2.5163,-2.5253,-2.5303,-2.5303,-2.5303,-2.5303,-2.5303,-2.5303,-2.5303,-2.5303,-2.5303,-2.5303,-2.5303,-2.5303,-2.5303,-2.5303,-2.5303,-2.5303,-2.5303,-2.5303,-2.5303,-2.5303,-2.5341,-2.5409,-2.5486,-2.5532,-2.5609,-2.5683,-2.5703,-2.5703,-2.5703,-2.5703,-2.5703,-2.5703,-2.5703,-2.5703,-2.5703,-2.5703,-2.5703,-2.5703,-2.5703,-2.5703,-2.5703,-2.5703,-2.5703,-1.5291,-1.6238,-1.7371,-1.8437,-1.9722,-2.0873,-2.1498,-2.1634,-2.1752,-2.2226,-2.231,-2.231,-2.231,-2.231,-2.231,-2.231,-2.231,-2.231,-2.231,-2.231,-2.2349,-2.2453,-2.2463,-2.2463,-2.2463,-2.2857,-2.3117,-2.3189,-2.3455,-2.3774,-2.417,-2.4016,-2.3996,-2.419,-2.419,-2.419,-2.419,-2.419,-2.419,-2.419,-2.419,-2.419,-2.419,-2.419,-2.419,-2.419,-2.419,-2.419,-2.419,-2.419,-2.419,-2.419,-2.419,-2.419,-2.419,-2.419,-2.419,-2.419,-2.419,-2.4266,-2.4321,-2.4321,-2.4493,-2.4723,-2.4836,-2.4993,-2.5152,-2.5264,-2.5303,-2.5303,-2.5303,-2.5303,-2.5303,-2.5303,-2.5303,-2.5303,-2.5303,-2.5303,-2.5303,-2.5303,-2.5303,-2.5303,-2.5303,-2.5303,-2.5303,-2.5303,-2.5303,-2.5303,-2.5303,-2.5341,-2.5408,-2.5484,-2.553,-2.5607,-2.5683,-2.5703,-2.5703,-2.5703,-2.5703,-2.5703,-2.5703,-2.5703,-2.5703,-2.5703,-2.5703,-2.5703,-2.5703,-2.5703,-2.5703,-2.5703,-2.5703,-2.5703,-1.6428,-1.7185,-1.8143,-1.963,-2.0103,-2.0576,-2.1989,-2.231,-2.231,-2.231,-2.231,-2.231,-2.231,-2.231,-2.231,-2.231,-2.231,-2.231,-2.231,-2.231,-2.2415,-2.2686,-2.2695,-2.2721,-2.2746,-2.33,-2.3544,-2.3277,-2.3816,-2.417,-2.419,-2.419,-2.419,-2.419,-2.419,-2.419,-2.419,-2.419,-2.419,-2.419,-2.419,-2.419,-2.419,-2.419,-2.419,-2.419,-2.419,-2.419,-2.419,-2.419,-2.419,-2.419,-2.419,-2.419,-2.419,-2.419,-2.419,-2.419,-2.4228,-2.4358,-2.4512,-2.4528,-2.4752,-2.501,-2.501,-2.5141,-2.5303,-2.5303,-2.5303,-2.5303,-2.5303,-2.5303,-2.5303,-2.5303,-2.5303,-2.5303,-2.5303,-2.5303,-2.5303,-2.5303,-2.5303,-2.5303,-2.5303,-2.5303,-2.5303,-2.5303,-2.5303,-2.5303,-2.5303,-2.5303,-2.5357,-2.5496,-2.5513,-2.5564,-2.5683,-2.5703,-2.5703,-2.5703,-2.5703,-2.5703,-2.5703,-2.5703,-2.5703,-2.5703,-2.5703,-2.5703,-2.5703,-2.5703,-2.5703,-2.5703,-2.5703,-2.5703,-1.5781,-1.6796,-1.8143,-1.963,-2.0897,-2.1904,-2.2226,-2.231,-2.231,-2.231,-2.231,-2.231,-2.231,-2.231,-2.231,-2.231,-2.231,-2.231,-2.231,-2.231,-2.2415,-2.2686,-2.2695,-2.2797,-2.3069,-2.3212,-2.3392,-2.3566,-2.3714,-2.3917,-2.419,-2.419,-2.419,-2.419,-2.419,-2.419,-2.419,-2.419,-2.419,0.0,-2.419,-2.419,-2.419,-2.419,-2.419,-2.419,-2.419,-2.419,-2.419,-2.419,-2.419,-2.419,-2.419,-2.419,-2.419,-2.419,-2.419,-2.4228,-2.4375,-2.4461,-2.4528,-2.4685,-2.485,-2.501,-2.501,-2.5141,-2.5303,-2.5303,-2.5303,-2.5303,-2.5303,-2.5303,-2.5303,-2.5303,-2.5303,-2.5303,-2.5303,-2.5303,-2.5303,-2.5303,-2.5303,-2.5303,-2.5303,-2.5303,-2.5303,-2.5303,-2.5303,-2.5303,-2.5303,-2.5341,-2.5409,-2.5483,-2.5554,-2.5603,-2.5684,-2.5703,-2.5703,-2.5703,-2.5703,-2.5703,-2.5703,-2.5703,-2.5703,-2.5703,-2.5703,-2.5703,-2.5703,-2.5703,-2.5703,-2.5703,-2.5703,-2.5703,-1.6018,-1.7202,-1.8691,-2.0196,-2.1448,-2.231,-2.231,-2.231,-2.231,-2.231,-2.231,-2.231,-2.231,-2.231,-2.231,-2.231,-2.231,-2.231,-2.231,-2.2398,-2.2616,-2.2898,-2.3069,-2.3253,-2.3414,-2.3588,-2.3692,-2.3692,-2.3837,-2.4016,-2.419,-2.419,-2.419,-2.419,-2.419,-2.419,-2.419,-2.419,-2.419,-2.419,-2.419,-2.419,-2.419,-2.419,-2.419,-2.419,-2.419,-2.419,-2.419,-2.419,-2.419,-2.419,-2.419,-2.419,-2.419,-2.419,-2.419,-2.4228,-2.4426,-2.4559,-2.467,-2.4836,-2.5005,-2.5152,-2.5152,-2.5214,-2.5303,-2.5303,-2.5303,-2.5303,-2.5303,-2.5303,-2.5303,-2.5303,-2.5303,-2.5303,-2.5303,-2.5303,-2.5303,-2.5303,-2.5303,-2.5303,-2.5303,-2.5303,-2.5303,-2.5303,-2.5303,-2.5303,-2.5303,-2.5322,-2.539,-2.5447,-2.5507,-2.5574,-2.5644,-2.5684,-2.5703,-2.5703,-2.5703,-2.5703,-2.5703,-2.5703,-2.5703,-2.5703,-2.5703,-2.5703,-2.5703,-2.5703,-2.5703,-2.5703,-2.5703,-2.5703,-1.6136,-1.7574,-1.9266,-2.0814,-2.1752,-2.231,-2.231,-2.231,-2.231,-2.231,-2.231,-2.231,-2.231,-2.231,-2.231,-2.236,-2.2321,-2.231,-2.236,-2.2527,-2.2772,-2.3141,-2.3437,-2.3671,-2.3774,-2.4054,-2.4094,-2.3816,-2.4036,-2.419,-2.419,-2.419,-2.419,-2.419,-2.419,-2.419,-2.419,-2.419,-2.419,-2.419,-2.419,-2.419,-2.419,-2.419,-2.419,-2.419,-2.419,-2.419,-2.419,-2.419,-2.419,-2.419,-2.419,-2.419,-2.419,-2.419,-2.419,-2.4228,-2.4461,-2.4654,-2.4832,-2.5005,-2.5163,-2.5303,-2.5303,-2.5303,-2.5303,-2.5303,-2.5303,-2.5303,-2.5303,-2.5303,-2.5303,-2.5303,-2.5303,-2.5303,-2.5303,-2.5303,-2.5303,-2.5303,-2.5303,-2.5303,-2.5303,-2.5303,-2.5303,-2.5303,-2.5303,-2.5303,-2.5303,-2.5303,-2.5322,-2.539,-2.5444,-2.5516,-2.5585,-2.5644,-2.5684,-2.5703,-2.5703,-2.5703,-2.5703,-2.5703,-2.5703,-2.5703,-2.5703,-2.5703,-2.5703,-2.5703,-2.5703,-2.5703,-2.5703,-2.5703,-1.471,-1.6796,-1.9266,-2.0814,-2.1752,-2.231,-2.231,-2.231,-2.231,-2.231,-2.231,-2.231,-2.231,-2.231,-2.2388,-2.2625,-2.2436,-2.2388,-2.2625,-2.249,-2.2571,-2.3117,-2.3236,-2.3482,-2.4074,-2.417,-2.417,-2.4151,-2.417,-2.419,-2.419,-2.419,-2.419,-2.419,-2.419,-2.419,-2.419,-2.419,-2.419,-2.419,-2.419,-2.419,-2.419,-2.419,-2.419,-2.419,-2.419,-2.419,-2.419,-2.419,-2.419,-2.419,-2.419,-2.419,-2.419,-2.419,-2.419,-2.4247,-2.4623,-2.4775,-2.4861,-2.516,-2.5274,-2.5303,-2.5303,-2.5303,-2.5303,-2.5303,-2.5303,-2.5303,-2.5303,-2.5303,-2.5303,-2.5303,-2.5303,-2.5303,-2.5303,-2.5303,-2.5303,-2.5303,-2.5303,-2.5303,-2.5303,-2.5303,-2.5303,-2.5303,-2.5303,-2.5303,-2.5303,-2.5303,-2.5322,-2.539,-2.5418,-2.546,-2.5585,-2.5605,-2.5644,-2.5703,-2.5703,-2.5703,-2.5703,-2.5703,-2.5703,-2.5703,-2.5703,-2.5703,-2.5703,-2.5703,-2.5703,-2.5703,-2.5703,-2.5703,-1.6488,-1.7912,-1.9367,-2.1329,-2.2073,-2.231,-2.231,-2.231,-2.231,-2.231,-2.231,-2.231,-2.231,-2.231,-2.2388,-2.266,-2.2599,-2.2625,-2.2947,-2.3056,-2.3177,-2.3455,-2.3649,-2.3876,-2.417,-2.419,-2.419,-2.419,-2.419,-2.419,-2.419,-2.419,-2.419,-2.419,-2.419,-2.419,-2.419,-2.419,-2.419,-2.419,-2.419,-2.419,-2.419,-2.419,-2.419,-2.419,-2.419,-2.419,-2.419,-2.419,-2.419,-2.419,-2.419,-2.419,-2.419,-2.419,-2.419,-2.4266,-2.4654,-2.4804,-2.4861,-2.5182,-2.5303,-2.5303,-2.5303,-2.5303,-2.5303,-2.5303,-2.5303,-2.5303,-2.5303,-2.5303,-2.5303,-2.5303,-2.5303,-2.5303,-2.5303,-2.5303,-2.5303,-2.5303,-2.5303,-2.5303,-2.5303,-2.5303,-2.5303,-2.5303,-2.5303,-2.5303,-2.5303,-2.5303,-2.5303,-2.5341,-2.539,-2.5434,-2.5549,-2.5588,-2.5625,-2.5703,-2.5703,-2.5703,-2.5703,-2.5703,-2.5703,-2.5703,-2.5703,-2.5703,-2.5703,-2.5703,-2.5703,-2.5703,-2.5703,-2.5703,-1.7266,-1.8137,-1.8877,-2.116,-2.1887,-2.2073,-2.226,-2.231,-2.231,-2.231,-2.231,-2.231,-2.231,-2.231,-2.2388,-2.266,-2.2695,-2.2822,-2.3141,-2.3414,-2.3588,-2.3692,-2.3917,-2.4094,-2.419,-2.419,-2.419,-2.419,-2.419,-2.419,-2.419,-2.419,-2.419,-2.419,-2.419,-2.419,-2.419,-2.419,-2.419,-2.419,-2.419,-2.419,-2.419,-2.419,-2.419,-2.419,-2.419,-2.419,-2.419,-2.419,-2.419,-2.419,-2.419,-2.419,-2.419,-2.419,-2.419,-2.4266,-2.4654,-2.4804,-2.4861,-2.5182,-2.5303,-2.5303,-2.5303,-2.5303,-2.5303,-2.5303,-2.5303,-2.5303,-2.5303,-2.5303,-2.5303,-2.5303,-2.5303,-2.5303,-2.5303,-2.5303,-2.5303,-2.5303,-2.5303,-2.5303,-2.5303,-2.5303,-2.5303,-2.5303,-2.5303,-2.5303,-2.5303,-2.5303,-2.5303,-2.5303,-2.5341,-2.5409,-2.5486,-2.5541,-2.5602,-2.5684,-2.5703,-2.5703,-2.5703,-2.5703,-2.5703,-2.5703,-2.5703,-2.5703,-2.5703,-2.5703,-2.5703,-2.5703,-2.5703,-2.5703,-1.4986,-1.6089,-1.7359,-1.9562,-2.0686,-2.1431,-2.2141,-2.231,-2.231,-2.231,-2.231,-2.231,-2.231,-2.231,-2.2388,-2.266,-2.2695,-2.2822,-2.3141,-2.323,-2.3346,-2.3671,-2.3714,-2.3837,-2.417,-2.419,-2.419,-2.419,-2.419,-2.419,-2.419,-2.419,-2.419,-2.419,-2.419,-2.419,-2.419,-2.419,-2.419,-2.419,-2.419,-2.419,-2.419,-2.419,-2.419,-2.419,-2.419,-2.419,-2.419,-2.419,-2.419,-2.419,-2.419,-2.419,-2.419,-2.419,-2.419,-2.4266,-2.4654,-2.4804,-2.4861,-2.5182,-2.5303,-2.5303,-2.5303,-2.5303,-2.5303,-2.5303,-2.5303,-2.5303,-2.5303,-2.5303,-2.5303,-2.5303,-2.5303,-2.5303,-2.5303,-2.5303,-2.5303,-2.5303,-2.5303,-2.5303,-2.5303,-2.5303,-2.5303,-2.5303,-2.5303,-2.5303,-2.5303,-2.5303,-2.5303,-2.5303,-2.5303,-2.537,-2.5486,-2.5506,-2.5561,-2.5683,-2.5703,-2.5703,-2.5703,-2.5703,-2.5703,-2.5703,-2.5703,-2.5703,-2.5703,-2.5703,-2.5703,-2.5703,-2.5703,-2.5703,-1.4739,-1.5811,-1.6909,-1.8812,-2.0247,-2.1271,-2.1515,-2.1955,-2.231,-2.231,-2.231,-2.2175,-2.1684,-2.1989,-2.2388,-2.266,-2.2873,-2.3141,-2.3459,-2.3714,-2.3896,-2.3996,-2.4016,-2.4074,-2.419,-2.419,-2.419,-2.419,-2.419,-2.419,-2.419,-2.419,-2.419,-2.419,-2.419,-2.419,-2.419,-2.419,-2.419,-2.419,-2.419,-2.419,-2.419,-2.419,-2.419,-2.419,-2.419,-2.419,-2.419,-2.419,-2.419,-2.419,-2.419,-2.419,-2.419,-2.419,-2.419,-2.4266,-2.4654,-2.4804,-2.4861,-2.5182,-2.5303,-2.5303,-2.5303,-2.5303,-2.5303,-2.5303,-2.5303,-2.5303,-2.5303,-2.5303,-2.5303,-2.5303,-2.5303,-2.5303,-2.5303,-2.5303,-2.5303,-2.5303,-2.5303,-2.5303,-2.5303,-2.5303,-2.5303,-2.5303,-2.5303,-2.5303,-2.5303,-2.5303,-2.5303,-2.5303,-2.5303,-2.5341,-2.5428,-2.5479,-2.5538,-2.5625,-2.5684,-2.5703,-2.5703,-2.5703,-2.5703,-2.5703,-2.5703,-2.5703,-2.5703,-2.5703,-2.5703,-2.5703,-2.5703,-2.5703,-1.43,-1.5037,-1.5945,-1.8222,-1.9353,-2.022,-2.1329,-2.1752,-2.2006,-2.226,-2.2107,-2.1854,-2.16,-2.1769,-2.1987,-2.2159,-2.2555,-2.2998,-2.3464,-2.3917,-2.419,-2.419,-2.419,-2.419,-2.419,-2.419,-2.419,-2.419,-2.419,0.0,-2.419,-2.419,-2.419,-2.419,-2.419,-2.419,-2.419,-2.419,-2.419,-2.419,-2.419,-2.419,-2.419,-2.419,-2.419,-2.419,-2.419,-2.419,-2.419,-2.419,-2.419,-2.419,-2.419,-2.419,-2.419,-2.419,-2.419,-2.4266,-2.4654,-2.4804,-2.4861,-2.5182,-2.5303,-2.5303,-2.5303,-2.5303,-2.5303,-2.5303,-2.5303,-2.5303,-2.5303,-2.5303,-2.5303,-2.5303,-2.5303,-2.5303,-2.5303,-2.5303,-2.5303,-2.5303,-2.5303,-2.5303,-2.5303,-2.5303,-2.5303,-2.5303,-2.5303,-2.5303,-2.5303,-2.5303,-2.5303,-2.5303,-2.5303,-2.5322,-2.539,-2.5453,-2.5537,-2.5605,-2.5664,-2.5703,-2.5703,-2.5703,-2.5703,-2.5703,-2.5703,-2.5703,-2.5703,-2.5703,-2.5703,-2.5703,-2.5703,-2.5703,0.0,0.0,0.0,-1.76,-1.7896,-1.8252,-2.145,-2.1667,-2.1363,-2.2124,-2.1701,-2.1414,-2.2141,-2.1684,-2.1204,-2.1204,-2.1718,-2.2362,-2.31,-2.3774,-2.419,-2.419,-2.419,-2.419,-2.419,-2.419,-2.419,-2.419,-2.419,-2.419,-2.4171,-2.4135,-2.4135,-2.4153,-2.4153,-2.4171,-2.419,-2.419,-2.419,-2.419,-2.419,-2.419,-2.419,-2.419,-2.419,-2.419,-2.419,-2.419,-2.419,-2.419,-2.419,-2.419,-2.419,-2.419,-2.419,-2.419,-2.419,-2.4266,-2.4654,-2.4804,-2.4861,-2.5182,-2.5303,-2.5303,-2.5303,-2.5303,-2.5303,-2.5303,-2.5303,-2.5303,-2.5303,-2.5303,-2.5303,-2.5303,-2.5303,-2.5303,-2.5303,-2.5303,-2.5303,-2.5303,-2.5303,-2.5303,-2.5303,-2.5303,-2.5303,-2.5303,-2.5303,-2.5303,-2.5303,-2.5303,-2.5303,-2.5303,-2.5303,-2.5322,-2.539,-2.5466,-2.5536,-2.5584,-2.5664,-2.5703,-2.5703,-2.5703,-2.5703,-2.5703,-2.5703,-2.5703,-2.5703,-2.5703,-2.5703,-2.5703,-2.5703,-2.5703,-1.2624,0.0,0.0,0.0,0.0,0.0,-1.9282,-1.9915,-2.0568,-2.1329,-2.1329,-2.1271,-2.1465,-2.1329,-2.1204,-2.1204,-2.2146,-2.2982,-2.3153,-2.3774,-2.419,-2.419,-2.419,-2.419,-2.419,-2.419,-2.419,0.0,-2.419,-2.3951,-2.3364,-2.2776,-2.2721,-2.3309,-2.3327,-2.3621,-2.419,-2.419,-2.419,-2.419,-2.419,-2.419,-2.419,-2.419,-2.419,-2.419,-2.419,-2.419,-2.419,-2.419,-2.419,-2.419,-2.419,-2.419,-2.419,-2.419,-2.419,-2.4266,-2.4654,-2.4804,-2.4861,-2.5182,-2.5303,-2.5303,-2.5303,-2.5303,-2.5303,-2.5303,-2.5303,-2.5303,-2.5303,-2.5303,-2.5303,-2.5303,-2.5303,-2.5303,-2.5303,-2.5303,-2.5303,-2.5303,-2.5303,-2.5303,-2.5303,-2.5303,-2.5303,-2.5303,-2.5303,-2.5303,-2.5303,-2.5303,-2.5303,-2.5303,-2.5303,-2.5303,-2.5322,-2.5428,-2.5522,-2.5527,-2.5637,-2.5703,-2.5703,-2.5703,-2.5703,-2.5703,-2.5703,-2.5703,-2.5703,-2.5703,-2.5703,-2.5703,-2.5703,-2.5703,-1.2514,-1.3329,-1.4437,-1.5215,0.0,0.0,-1.8588,-1.9109,-1.958,0.0,-2.045,-2.0458,-2.1085,-2.0923,-2.0906,-2.1549,-2.2142,-2.2676,-2.3153,-2.3774,-2.419,-2.419,-2.419,-2.419,-2.419,-2.419,-2.419,-2.419,-2.3896,-2.3345,-2.2538,-2.2042,-2.2171,-2.296,-2.2997,-2.34,-2.419,-2.419,-2.419,-2.419,-2.419,-2.419,-2.419,-2.419,-2.419,-2.419,-2.419,-2.419,-2.419,-2.419,-2.419,-2.419,-2.419,-2.419,-2.419,-2.419,-2.419,-2.4266,-2.4654,-2.4804,-2.4861,-2.5182,-2.5303,-2.5303,-2.5303,-2.5303,-2.5303,-2.5303,-2.5303,-2.5303,-2.5303,-2.5303,-2.5303,-2.5303,-2.5303,-2.5303,-2.5303,-2.5303,-2.5303,-2.5303,-2.5303,-2.5303,-2.5303,-2.5303,-2.5303,-2.5303,-2.5303,-2.5303,-2.5303,-2.5303,-2.5303,-2.5303,-2.5303,-2.5303,-2.5303,-2.5428,-2.549,-2.5503,-2.5631,-2.5703,-2.5703,-2.5703,-2.5703,-2.5703,-2.5703,-2.5703,-2.5703,-2.5703,-2.5703,-2.5703,-2.5703,-2.5703,-1.2936,-1.3086,-1.3699,-1.5717,-1.5909,0.0,-1.861,-1.8752,-1.8658,0.0,-1.9343,-1.9333,-2.0788,-2.0483,-2.0441,-2.1809,-2.179,-2.1969,-2.3059,-2.3663,-2.4079,-2.419,-2.419,-2.419,-2.419,-2.419,-2.4153,-2.4061,-2.3235,-2.2409,-2.1675,-2.1582,-2.1877,-2.2703,-2.2703,-2.3162,-2.4061,-2.4061,-2.4116,-2.419,-2.419,-2.419,-2.419,-2.419,-2.419,-2.419,-2.419,-2.419,-2.419,-2.419,-2.419,-2.419,-2.419,-2.419,-2.419,-2.419,-2.419,-2.4247,-2.4639,-2.4775,-2.4861,-2.516,-2.5274,-2.5303,-2.5303,-2.5303,-2.5303,-2.5303,-2.5303,-2.5303,-2.5303,-2.5303,-2.5303,-2.5303,-2.5303,-2.5303,-2.5303,-2.5303,-2.5303,-2.5303,-2.5303,-2.5303,-2.5303,-2.5303,-2.5303,-2.5303,-2.5303,-2.5303,-2.5303,-2.5303,-2.5303,-2.5303,-2.5303,-2.5303,-2.5303,-2.5428,-2.549,-2.5503,-2.5611,-2.5684,-2.5703,-2.5703,-2.5703,-2.5703,-2.5703,-2.5703,-2.5703,-2.5703,-2.5703,-2.5703,-2.5703,-2.5703,-1.375,-1.474,-1.5815,-1.5252,-1.6371,0.0,-1.7023,-1.7658,-1.8398,0.0,-1.8809,-1.9164,-2.0052,-2.0103,-2.0103,-2.039,-2.1087,-2.1969,-2.3059,-2.3027,-2.3227,-2.4097,-2.419,-2.419,-2.419,-2.419,-2.3933,-2.329,-2.1841,-2.0906,-2.0759,-2.0134,-2.0152,-2.0961,-2.0979,-2.1695,-2.3235,-2.3235,-2.3566,-2.419,-2.419,-2.419,-2.419,-2.419,-2.419,-2.419,-2.419,-2.419,-2.419,-2.419,-2.419,-2.419,-2.419,-2.419,-2.419,-2.419,-2.419,-2.4228,-2.4478,-2.467,-2.4832,-2.5005,-2.5163,-2.5303,-2.5303,-2.5303,-2.5303,-2.5303,-2.5303,-2.5303,-2.5303,-2.5303,-2.5303,-2.5303,-2.5303,-2.5303,-2.5303,-2.5303,-2.5303,-2.5303,-2.5303,-2.5303,-2.5303,-2.5303,-2.5303,-2.5303,-2.5303,-2.5303,-2.5303,-2.5303,-2.5303,-2.5303,-2.5303,-2.5303,-2.5303,-2.537,-2.5432,-2.5503,-2.5572,-2.5644,-2.5703,-2.5703,-2.5703,-2.5703,-2.5703,-2.5703,-2.5703,-2.5703,-2.5703,-2.5703,-2.5703,-2.5703,-1.4468,-1.5022,-1.5741,-1.5741,-1.6381,0.0,0.0,-1.7047,-1.7518,-1.8241,-1.8253,-1.8507,-1.9774,-1.9697,-1.9562,-1.9934,-2.0142,-2.0625,-2.1704,-2.2611,-2.3361,-2.3901,-2.4094,-2.419,-2.419,-2.419,-2.3878,-2.307,-2.1859,-2.096,-2.0521,-1.9748,-1.9675,-2.0466,-2.0503,-2.1125,-2.2391,-2.2813,-2.3199,-2.3621,-2.4006,-2.419,-2.419,-2.419,-2.419,-2.419,-2.419,-2.419,-2.419,-2.419,-2.419,-2.419,-2.419,-2.419,-2.419,-2.419,-2.419,-2.4228,-2.4426,-2.4578,-2.4682,-2.4924,-2.5077,-2.5163,-2.5264,-2.5303,-2.5303,-2.5303,-2.5303,-2.5303,-2.5303,-2.5303,-2.5303,-2.5303,-2.5303,-2.5303,-2.5303,-2.5303,-2.5303,-2.5303,-2.5303,-2.5303,-2.5303,-2.5303,-2.5303,-2.5303,-2.5303,-2.5303,-2.5303,-2.5303,-2.5303,-2.5303,-2.5303,-2.5303,-2.5303,-2.537,-2.5427,-2.5495,-2.5556,-2.5625,-2.5703,-2.5703,-2.5703,-2.5703,-2.5703,-2.5703,-2.5703,-2.5703,-2.5703,-2.5703,-2.5703,-2.5703,-1.5184,-1.5156,-1.5545,-1.6323,-1.6443,-1.6458,0.0,0.0,0.0,-1.7805,-1.7617,-1.7756,-1.9202,0.0,0.0,-1.9478,0.0,0.0,0.0,-2.1856,0.0,-2.3458,-2.3846,-2.4132,-2.419,-2.3914,-2.3529,-2.3052,-2.2097,-2.1308,-2.0794,-1.9987,-1.9822,-2.0484,-2.0338,-2.0684,-2.1528,-2.2189,-2.2611,-2.2776,-2.3584,-2.3896,-2.3749,-2.4061,-2.4116,-2.3988,-2.4135,-2.419,-2.419,-2.419,-2.419,-2.419,-2.419,-2.419,-2.419,-2.419,-2.419,-2.4228,-2.4393,-2.4461,-2.4543,-2.4818,-2.4937,-2.4998,-2.5224,-2.5274,-2.5253,-2.5303,-2.5303,-2.5303,-2.5303,-2.5303,-2.5303,-2.5303,-2.5303,-2.5303,-2.5303,-2.5303,-2.5303,-2.5303,-2.5303,-2.5303,-2.5303,-2.5303,-2.5303,-2.5303,-2.5303,-2.5303,-2.5303,-2.5303,-2.5303,-2.5303,-2.5303,-2.5303,-2.5303,-2.5341,-2.5409,-2.5486,-2.555,-2.5623,-2.5703,-2.5703,-2.5703,-2.5703,-2.5703,-2.5703,-2.5703,-2.5703,-2.5703,-2.5703,-2.5703,-2.5703,-1.5858,-1.6503,-1.7146,-1.6158,-1.7146,-1.7939,-1.6352,0.0,-1.7073,-1.6628,0.0,-1.737,-1.7559,0.0,0.0,0.0,0.0,0.0,-1.9043,-2.0114,-2.1348,-2.2592,-2.3358,-2.3858,-2.417,-2.2905,-2.2318,-2.296,-2.153,-2.0941,-2.162,-2.0831,-2.0411,-2.0503,-1.9803,-1.9822,-2.0631,-2.0741,-2.118,-2.195,-2.2758,-2.2758,-2.2133,-2.3547,-2.3804,-2.318,-2.3896,-2.419,-2.419,-2.419,-2.419,-2.419,-2.419,-2.419,-2.419,-2.419,-2.419,-2.419,-2.4228,-2.4339,-2.4512,-2.4543,-2.4685,-2.4883,-2.5192,-2.5192,-2.5077,-2.5253,-2.5303,-2.5303,-2.5303,-2.5303,-2.5303,-2.5303,-2.5303,-2.5303,-2.5303,-2.5303,-2.5303,-2.5303,-2.5303,-2.5303,-2.5303,-2.5303,-2.5303,-2.5303,-2.5303,-2.5303,-2.5303,-2.5303,-2.5303,-2.5303,-2.5303,-2.5303,-2.5303,-2.5303,-2.537,-2.5486,-2.5518,-2.557,-2.5683,-2.5703,-2.5703,-2.5703,-2.5703,-2.5703,-2.5703,-2.5703,-2.5703,-2.5703,-2.5703,-2.5703,-1.5978,-1.6443,-1.6995,-1.6473,-1.6921,-1.7387,-1.6801,-1.6699,-1.6889,-1.7417,0.0,0.0,0.0,0.0,0.0,0.0,-1.8065,0.0,0.0,0.0,-2.0079,-2.1444,0.0,0.0,-2.3437,-2.2887,-2.2832,-2.3639,-2.2171,-2.162,-2.2446,-2.1712,-2.1015,-2.0521,-2.017,-1.9932,-1.9803,-2.0264,-2.0668,-2.107,-2.1896,-2.2116,-2.1821,-2.2483,-2.2887,-2.3033,-2.3364,-2.3768,-2.419,-2.419,-2.419,-2.419,-2.419,-2.419,-2.419,-2.419,-2.419,-2.419,-2.419,-2.4266,-2.4358,-2.4461,-2.4639,-2.4832,-2.4981,-2.4949,-2.4891,-2.4987,-2.5072,-2.5141,-2.5141,-2.5214,-2.5303,-2.5303,-2.5303,-2.5303,-2.5303,-2.5303,-2.5303,-2.5303,-2.5303,-2.5303,-2.5303,-2.5303,-2.5303,-2.5303,-2.5303,-2.5303,-2.5303,-2.5303,-2.5303,-2.5303,-2.5303,-2.5303,-2.5303,-2.5303,-2.537,-2.5486,-2.5566,-2.5636,-2.5703,-2.5703,-2.5703,-2.5703,-2.5703,-2.5703,-2.5703,-2.5703,-2.5703,-2.5703,-2.5703,-2.5703,-1.6263,-1.6563,-1.6999,-1.6563,0.0,0.0,0.0,0.0,0.0,0.0,0.0,0.0,0.0,0.0,-1.8099,-1.8099,0.0,-1.7811,0.0,-1.8082,0.0,0.0,0.0,0.0,0.0,-2.2464,-2.2758,-2.3786,0.0,-2.2244,-2.3272,-2.2465,-2.1642,-2.0886,-2.0477,-1.9933,-1.923,-1.9799,-2.0091,-2.0091,-2.0999,-2.1327,-2.1141,-2.1601,-2.2116,-2.2685,-2.2905,-2.3456,-2.419,-2.419,-2.419,-2.419,-2.419,-2.419,-2.419,-2.419,-2.419,-2.419,-2.419,-2.419,-2.4228,-2.4426,-2.4559,-2.4654,-2.4775,-2.476,-2.4731,-2.479,-2.4864,-2.4949,-2.4998,-2.5099,-2.5224,-2.5303,-2.5303,-2.5303,-2.5303,-2.5303,-2.5303,-2.5303,-2.5303,-2.5303,-2.5303,-2.5303,-2.5303,-2.5303,-2.5303,-2.5303,-2.5303,-2.5303,-2.5303,-2.5303,-2.5303,-2.5303,-2.5303,-2.5303,-2.5361,-2.5481,-2.5603,-2.5684,-2.5703,-2.5703,-2.5703,-2.5703,-2.5703,-2.5703,-2.5703,-2.5703,-2.5703,-2.5703,-2.5703,-2.5703,0.0,0.0,0.0,-1.6216,0.0,0.0,0.0,0.0,-1.7189,0.0,0.0,0.0,0.0,-1.8642,-1.886,-1.886,-1.8268,0.0,0.0,0.0,0.0,0.0,0.0,0.0,0.0,-2.1088,-2.1255,0.0,-2.2263,0.0,-2.408,-2.3095,-2.2259,-2.1767,-2.0439,-1.95,-1.9019,-1.9037,-1.9055,-1.9055,-2.0056,-2.0134,-1.9452,-2.1068,-2.1821,-2.1894,-2.2666,-2.3456,-2.419,-2.419,-2.419,-2.419,-2.419,-2.419,-2.419,-2.419,-2.419,-2.419,-2.419,-2.419,-2.4228,-2.4426,-2.4375,-2.4284,-2.4685,-2.467,-2.4561,-2.4746,-2.4804,-2.4828,-2.4962,-2.4991,-2.5046,-2.5253,-2.5303,-2.5303,-2.5303,-2.5303,-2.5303,-2.5303,-2.5303,-2.5303,-2.5303,-2.5303,-2.5303,-2.5303,-2.5303,-2.5303,-2.5303,-2.5303,-2.5303,-2.5303,-2.5303,-2.5303,-2.5303,-2.5303,-2.5354,-2.5498,-2.5553,-2.5625,-2.5703,-2.5703,-2.5703,-2.5703,-2.5703,-2.5703,-2.5703,-2.5703,-2.5703,-2.5703,-2.5703,-2.5703,0.0,0.0,-1.7046,-1.6309,0.0,0.0,0.0,0.0,0.0,0.0,0.0,0.0,0.0,-1.9159,-1.8894,-1.8894,-1.8285,-1.7642,0.0,0.0,0.0,0.0,-1.8753,-2.0152,0.0,0.0,0.0,0.0,-2.2244,0.0,0.0,-2.3622,-2.2741,-2.1571,-2.0863,-1.9937,-1.8752,-1.8734,-1.8734,-1.8734,-1.9253,-1.9356,-1.9137,-1.9831,-2.0427,-2.096,-2.1218,-2.2134,-2.3419,-2.3419,-2.3731,-2.419,-2.419,-2.419,-2.419,-2.419,-2.419,-2.419,-2.419,-2.419,-2.4209,-2.4266,-2.4266,-2.4228,-2.4357,-2.4357,-2.4321,-2.4393,-2.4495,-2.4639,-2.4828,-2.4924,-2.5046,-2.5253,-2.5303,-2.5303,-2.5303,-2.5303,-2.5303,-2.5303,-2.5303,-2.5303,-2.5303,-2.5303,-2.5303,-2.5303,-2.5303,-2.5303,-2.5303,-2.5303,-2.5303,-2.5303,-2.5303,-2.5303,-2.5303,-2.5341,-2.5408,-2.5487,-2.5567,-2.5625,-2.5703,-2.5703,-2.5703,-2.5703,-2.5703,-2.5703,-2.5703,-2.5703,-2.5703,-2.5703,-2.5703,-2.5703,-1.6771,-1.6788,0.0,-1.6248,-1.6359,0.0,-1.6611,0.0,-1.7415,0.0,0.0,0.0,0.0,0.0,-1.9299,-1.9299,-1.8454,-1.7456,0.0,-1.59,0.0,0.0,-1.7241,-1.8662,-1.9373,-1.9665,-2.0499,-2.2132,-2.1769,0.0,0.0,0.0,-2.27,-2.1267,-2.0802,-1.9909,-1.8467,-1.845,-1.845,-1.8469,-1.8734,-1.8914,-1.9001,-1.9134,-1.9669,-2.0503,-2.0503,-2.1438,-2.2997,-2.2997,-2.3474,-2.419,-2.419,-2.419,-2.419,-2.419,-2.419,-2.419,-2.419,-2.419,-2.419,-2.419,-2.419,-2.419,-2.419,-2.419,-2.419,-2.419,-2.4284,-2.4426,-2.4639,-2.4809,-2.4981,-2.5152,-2.5253,-2.5303,-2.5303,-2.5303,-2.5303,-2.5303,-2.5303,-2.5303,-2.5303,-2.5303,-2.5303,-2.5303,-2.5303,-2.5303,-2.5303,-2.5303,-2.5303,-2.5303,-2.5303,-2.5303,-2.5303,-2.5341,-2.5409,-2.5486,-2.5532,-2.5619,-2.5703,-2.5703,-2.5703,-2.5703,-2.5703,-2.5703,-2.5703,-2.5703,-2.5703,-2.5703,-2.5703,-2.5703]}]]